[[{"header":{"parameterUnit":"m.s-1","parameterCategory":1,"la1":31.0,"la2":29.5877,"lo1":-88.7671,"lo2":-86.6584,"dy":0.0162,"dx":0.0185,"nx":115,"ny":88,"refTime":"2026-04-01T00:00:00:Z","depth":0,"parameterNumber":2,"parameterNumberName":"U-component_of_WINDS"},"data":[0.0,0.0,0.0,0.0,0.0,0.0,0.0,0.0,0.0,0.0,0.0,0.0,0.0,0.0,0.0,0.0,0.0,0.0,0.0,0.0,0.0,0.0,0.0,0.0,0.0,0.0,0.0,0.0,0.0,0.0,0.0,0.0,0.0,0.0,0.0,0.0,0.0,0.0,0.0,0.0,0.0,0.0,0.0,0.0,0.0,0.0,0.0,0.0,0.0,0.0,0.0,0.0,0.0,0.0,0.0,0.0,0.0,0.0,0.0,0.0,0.0,0.0,0.0,0.0,0.0,0.0,0.0,0.0,0.0,0.0,0.0,0.0,0.0,0.0,0.0,0.0,0.0,0.0,0.0,0.0,0.0,0.0,0.0,0.0,0.0,0.0,0.0,0.0,0.0,0.0,0.0,0.0,0.0,0.0,0.0,0.0,0.0,0.0,0.0,0.0,0.0,0.0,0.0,0.0,0.0,0.0,0.0,0.0,0.0,0.0,0.0,0.0,0.0,0.0,0.0,0.0,0.0,0.0,0.0,0.0,0.0,0.0,0.0,0.0,0.0,0.0,0.0,0.0,0.0,0.0,0.0,0.0,0.0,0.0,0.0,0.0,0.0,0.0,0.0,0.0,0.0,0.0,0.0,0.0,0.0,0.0,0.0,0.0,0.0,0.0,0.0,0.0,0.0,0.0,0.0,0.0,0.0,0.0,0.0,0.0,0.0,0.0,0.0,0.0,0.0,0.0,0.0,0.0,0.0,0.0,0.0,0.0,0.0,0.0,0.0,0.0,0.0,0.0,0.0,0.0,0.0,0.0,0.0,0.0,0.0,0.0,0.0,0.0,0.0,0.0,0.0,0.0,0.0,0.0,0.0,0.0,0.0,0.0,0.0,0.0,0.0,0.0,0.0,0.0,0.0,0.0,0.0,0.0,0.0,0.0,0.0,0.0,0.0,0.0,0.0,0.0,0.0,0.0,0.0,0.0,0.0,0.0,0.0,0.0,0.0,0.0,0.0,0.0,0.0,0.0,0.0,0.0,0.0,0.0,0.0,0.0,0.0,0.0,0.0,0.0,0.0,0.0,0.0,0.0,0.0,0.0,0.0,0.0,0.0,0.0,0.0,0.0,0.0,0.0,0.0,0.0,0.0,0.0,0.0,0.0,0.0,0.0,0.0,0.0,0.0,0.0,0.0,0.0,0.0,0.0,0.0,0.0,0.0,0.0,0.0,0.0,0.0,0.0,0.0,0.0,0.0,0.0,0.0,0.0,0.0,0.0,0.0,0.0,0.0,0.0,0.0,0.0,0.0,0.0,0.0,0.0,0.0,0.0,0.0,0.0,0.0,0.0,0.0,0.0,0.0,0.0,0.0,0.0,0.0,0.0,0.0,0.0,0.0,0.0,0.0,0.0,0.0,0.0,0.0,0.0,0.0,0.0,0.0,0.0,0.0,0.0,0.0,0.0,0.0,0.0,0.0,0.0,0.0,0.0,0.0,0.0,0.0,0.0,0.0,0.0,0.0,0.0,0.0,0.0,0.0,0.0,0.0,0.0,0.0,0.0,0.0,0.0,0.0,0.0,0.0,0.0,0.0,0.0,0.0,0.0,0.0,0.0,0.0,0.0,0.0,0.0,0.0,0.0,0.0,0.0,0.0,0.0,0.0,0.0,0.0,0.0,0.0,0.0,0.0,0.0,0.0,0.0,0.0,0.0,0.0,0.0,0.0,0.0,0.0,0.0,0.0,0.0,0.0,0.0,0.0,0.0,0.0,0.0,0.0,0.0,0.0,0.0,0.0,0.0,0.0,0.0,0.0,0.0,0.0,0.0,0.0,0.0,0.0,0.0,0.0,0.0,0.0,0.0,0.0,0.0,0.0,0.0,0.0,0.0,0.0,0.0,0.0,0.0,0.0,0.0,0.0,0.0,0.0,0.0,0.0,0.0,0.0,0.0,0.0,0.0,0.0,0.0,0.0,0.0,0.0,0.0,0.0,0.0,0.0,0.0,0.0,0.0,0.0,0.0,0.0,0.0,0.0,0.0,0.0,0.0,0.0,0.0,0.0,0.0,0.0,0.0,0.0,0.0,0.0,0.0,0.0,0.0,0.0,0.0,0.0,0.0,0.0,0.0,0.0,0.0,0.0,0.0,0.0,0.0,0.0,0.0,0.0,0.0,0.0,0.0,0.0,0.0,0.0,0.0,0.0,0.0,0.0,0.0,0.0,0.0,0.0,0.0,0.0,0.0,0.0,0.0,0.0,0.0,0.0,0.0,0.0,0.0,0.0,0.0,0.0,0.0,0.0,0.0,0.0,0.0,0.0,0.0,0.0,0.0,0.0,0.0,0.0,0.0,0.0,0.0,0.0,0.0,0.0,0.0,0.0,0.0,0.0,0.0,0.0,0.0,0.0,0.0,0.0,0.0,0.0,0.0,0.0,0.0,0.0,0.0,0.0,0.0,0.0,0.0,0.0,0.0,0.0,0.0,0.0,0.0,0.0,0.0,0.0,0.0,0.0,0.0,0.0,0.0,0.0,0.0,0.0,0.0,0.0,0.0,0.0,0.0,0.0,0.0,0.0,0.0,0.0,0.0,0.0,0.0,0.0,0.0,0.0,0.0,0.0,0.0,0.0,0.0,0.0,0.0,0.0,0.0,0.0,0.0,0.0,0.0,0.0,0.0,0.0,0.0,0.0,0.0,0.0,0.0,0.0,0.0,0.0,0.0,0.0,0.0,0.0,0.0,0.0,0.0,0.0,0.0,0.0,0.0,0.0,0.0,0.0,0.0,0.0,0.0,0.0,0.0,0.0,0.0,0.0,0.0,0.0,0.0,0.0,0.0,0.0,0.0,0.0,0.0,0.0,0.0,0.0,0.0,0.0,0.0,0.0,0.0,0.0,0.0,0.0,0.0,0.0,0.0,0.0,0.0,0.0,0.0,0.0,0.0,0.0,0.0,0.0,0.0,0.0,0.0,0.0,0.0,0.0,0.0,0.0,0.0,0.0,0.0,0.0,0.0,0.0,0.0,0.0,0.0,0.0,0.0,0.0,0.0,0.0,0.0,0.0,0.0,0.0,0.0,0.0,0.0,0.0,0.0,0.0,0.0,0.0,0.0,0.0,0.0,0.0,0.0,0.0,0.0,0.0,0.0,0.0,0.0,0.0,0.0,0.0,0.0,0.0,0.0,0.0,0.0,0.0,0.0,0.0,0.0,0.0,0.0,0.0,0.0,0.0,0.0,0.0,0.0,0.0,0.0,0.0,0.0,0.0,0.0,0.0,0.0,0.0,0.0,0.0,0.0,0.0,0.0,0.0,0.0,0.0,0.0,0.0,0.0,0.0,0.0,0.0,0.0,0.0,0.0,0.0,0.0,0.0,0.0,0.0,0.0,0.0,0.0,0.0,0.0,0.0,0.0,0.0,0.0,0.0,0.0,0.0,0.0,0.0,0.0,0.0,0.0,0.0,0.0,0.0,0.0,0.0,0.0,0.0,0.0,0.0,0.0,0.0,0.0,0.0,0.0,0.0,0.0,0.0,0.0,0.0,0.0,0.0,0.0,0.0,0.0,0.0,0.0,0.0,0.0,0.0,0.0,0.0,0.0,0.0,0.0,0.0,0.0,0.0,0.0,0.0,0.0,0.0,0.0,0.0,0.0,0.0,0.0,0.0,0.0,0.0,0.0,0.0,0.0,0.0,0.0,0.0,0.0,0.0,0.0,0.0,0.0,0.0,0.0,0.0,0.0,0.0,0.0,0.0,0.0,0.0,0.0,0.0,0.0,0.0,0.0,0.0,0.0,0.0,0.0,0.0,0.0,0.0,0.0,0.0,0.0,0.0,0.0,0.0,0.0,0.0,0.0,0.0,0.0,0.0,0.0,0.0,0.0,0.0,0.0,0.0,0.0,0.0,0.0,0.0,0.0,0.0,0.0,0.0,0.0,0.0,0.0,0.0,0.0,0.0,0.0,0.0,0.0,0.0,0.0,0.0,0.0,0.0,0.0,0.0,0.0,0.0,0.0,0.0,0.0,0.0,0.0,0.0,0.0,0.0,0.0,0.0,0.0,0.0,0.0,0.0,0.0,0.0,0.0,0.0,0.0,0.0,0.0,0.0,0.0,0.0,0.0,0.0,0.0,0.0,0.0,0.0,0.0,0.0,0.0,0.0,0.0,0.0,0.0,0.0,0.0,0.0,0.0,0.0,0.0,0.0,0.0,0.0,0.0,0.0,0.0,0.0,0.0,0.0,0.0,0.0,0.0,0.0,0.0,0.0,0.0,0.0,0.0,0.0,0.0,-2.9226,0.0,0.0,0.0,0.0,0.0,0.0,0.0,0.0,0.0,0.0,0.0,0.0,0.0,0.0,0.0,0.0,0.0,0.0,0.0,0.0,0.0,0.0,0.0,0.0,0.0,0.0,0.0,0.0,0.0,0.0,0.0,0.0,0.0,0.0,0.0,0.0,0.0,0.0,0.0,0.0,0.0,0.0,0.0,0.0,0.0,0.0,0.0,0.0,0.0,0.0,0.0,0.0,0.0,0.0,0.0,0.0,0.0,0.0,0.0,0.0,0.0,0.0,0.0,0.0,0.0,0.0,0.0,0.0,0.0,0.0,0.0,0.0,0.0,0.0,0.0,0.0,0.0,0.0,0.0,0.0,0.0,0.0,0.0,0.0,0.0,0.0,0.0,0.0,0.0,0.0,0.0,0.0,0.0,0.0,0.0,0.0,0.0,0.0,0.0,0.0,0.0,0.0,0.0,0.0,0.0,0.0,0.0,0.0,0.0,0.0,-3.0677,-3.0232,-3.0586,-3.0409,-2.956,0.0,0.0,0.0,0.0,0.0,0.0,0.0,0.0,0.0,0.0,0.0,0.0,0.0,0.0,0.0,0.0,0.0,0.0,0.0,0.0,0.0,0.0,0.0,0.0,0.0,0.0,0.0,0.0,0.0,0.0,0.0,0.0,0.0,0.0,0.0,0.0,0.0,0.0,0.0,0.0,0.0,0.0,0.0,0.0,0.0,0.0,0.0,0.0,0.0,0.0,0.0,0.0,0.0,0.0,0.0,0.0,0.0,0.0,0.0,0.0,0.0,0.0,0.0,0.0,0.0,0.0,0.0,0.0,0.0,0.0,0.0,0.0,0.0,0.0,0.0,0.0,0.0,0.0,0.0,0.0,0.0,0.0,0.0,0.0,0.0,0.0,0.0,0.0,0.0,0.0,0.0,0.0,0.0,0.0,0.0,0.0,0.0,0.0,0.0,0.0,0.0,0.0,0.0,0.0,0.0,0.0,0.0,0.0,0.0,0.0,0.0,0.0,-3.0813,-3.0633,-2.9865,0.0,0.0,0.0,0.0,0.0,0.0,0.0,0.0,0.0,0.0,0.0,0.0,0.0,0.0,0.0,0.0,0.0,0.0,0.0,0.0,0.0,0.0,0.0,0.0,0.0,0.0,0.0,0.0,0.0,0.0,0.0,0.0,0.0,0.0,0.0,0.0,0.0,0.0,0.0,0.0,0.0,0.0,0.0,0.0,0.0,0.0,0.0,0.0,0.0,0.0,0.0,0.0,0.0,0.0,0.0,0.0,0.0,0.0,0.0,0.0,0.0,0.0,0.0,0.0,0.0,0.0,0.0,0.0,0.0,0.0,0.0,0.0,0.0,0.0,0.0,0.0,0.0,0.0,0.0,0.0,0.0,0.0,0.0,0.0,0.0,0.0,0.0,0.0,0.0,0.0,0.0,0.0,0.0,0.0,0.0,0.0,0.0,0.0,0.0,0.0,0.0,0.0,0.0,0.0,0.0,0.0,0.0,0.0,0.0,0.0,-3.093,-3.1185,-3.1568,0.0,-2.9922,0.0,0.0,0.0,0.0,0.0,0.0,0.0,0.0,0.0,0.0,0.0,0.0,0.0,0.0,0.0,0.0,0.0,0.0,0.0,0.0,0.0,0.0,0.0,0.0,0.0,0.0,0.0,0.0,0.0,0.0,0.0,0.0,0.0,0.0,0.0,0.0,0.0,0.0,0.0,0.0,0.0,0.0,0.0,0.0,0.0,0.0,0.0,0.0,0.0,0.0,0.0,0.0,0.0,0.0,0.0,0.0,0.0,0.0,0.0,0.0,0.0,0.0,0.0,0.0,0.0,0.0,0.0,0.0,0.0,0.0,0.0,0.0,0.0,0.0,0.0,0.0,0.0,0.0,0.0,0.0,0.0,0.0,0.0,0.0,0.0,0.0,0.0,0.0,0.0,0.0,0.0,0.0,0.0,0.0,0.0,0.0,0.0,0.0,0.0,0.0,0.0,0.0,0.0,0.0,0.0,0.0,0.0,0.0,0.0,0.0,-3.1071,-3.0832,-3.0655,-3.0111,0.0,0.0,0.0,0.0,0.0,0.0,0.0,0.0,0.0,0.0,0.0,0.0,0.0,0.0,0.0,0.0,0.0,0.0,0.0,0.0,0.0,0.0,0.0,0.0,0.0,0.0,0.0,0.0,0.0,0.0,0.0,0.0,0.0,0.0,0.0,0.0,0.0,0.0,0.0,0.0,0.0,0.0,0.0,0.0,0.0,0.0,0.0,0.0,0.0,0.0,0.0,0.0,0.0,0.0,0.0,0.0,0.0,0.0,0.0,0.0,0.0,0.0,0.0,0.0,0.0,0.0,0.0,0.0,0.0,0.0,0.0,0.0,0.0,0.0,0.0,0.0,0.0,0.0,0.0,0.0,0.0,0.0,0.0,0.0,0.0,0.0,0.0,0.0,0.0,0.0,0.0,0.0,0.0,0.0,0.0,0.0,0.0,0.0,0.0,0.0,0.0,0.0,0.0,0.0,0.0,0.0,0.0,0.0,0.0,0.0,-3.0918,-3.1143,-3.0833,-3.0411,-2.9704,-2.8717,0.0,0.0,0.0,0.0,0.0,0.0,0.0,0.0,0.0,0.0,0.0,0.0,0.0,0.0,0.0,0.0,0.0,0.0,0.0,0.0,0.0,0.0,0.0,0.0,0.0,0.0,0.0,0.0,0.0,0.0,0.0,0.0,0.0,0.0,0.0,0.0,0.0,0.0,0.0,0.0,0.0,0.0,0.0,0.0,0.0,0.0,0.0,0.0,0.0,0.0,0.0,0.0,0.0,0.0,0.0,0.0,0.0,0.0,0.0,0.0,0.0,0.0,0.0,0.0,0.0,0.0,0.0,0.0,0.0,0.0,0.0,0.0,0.0,0.0,0.0,0.0,0.0,0.0,0.0,0.0,0.0,0.0,0.0,0.0,0.0,0.0,0.0,0.0,0.0,0.0,0.0,0.0,0.0,0.0,0.0,0.0,0.0,0.0,0.0,0.0,0.0,0.0,0.0,0.0,0.0,0.0,0.0,0.0,-3.1302,-3.1015,-3.1112,-3.1617,-3.1622,-3.0676,0.0,0.0,0.0,0.0,0.0,0.0,0.0,0.0,0.0,0.0,0.0,0.0,0.0,0.0,0.0,0.0,0.0,0.0,0.0,0.0,0.0,0.0,0.0,0.0,0.0,0.0,0.0,0.0,0.0,0.0,0.0,0.0,0.0,0.0,0.0,0.0,0.0,0.0,0.0,0.0,0.0,0.0,0.0,0.0,0.0,0.0,0.0,0.0,0.0,0.0,0.0,0.0,0.0,0.0,0.0,0.0,0.0,0.0,0.0,0.0,0.0,0.0,0.0,0.0,0.0,0.0,0.0,0.0,0.0,0.0,0.0,0.0,0.0,0.0,0.0,0.0,0.0,0.0,0.0,0.0,0.0,0.0,0.0,0.0,0.0,0.0,0.0,0.0,0.0,0.0,0.0,0.0,0.0,0.0,0.0,0.0,0.0,0.0,0.0,0.0,0.0,0.0,0.0,0.0,0.0,0.0,0.0,0.0,0.0,-3.0263,-3.0495,-3.1087,-3.205,-3.0612,-2.9623,0.0,0.0,0.0,0.0,0.0,0.0,0.0,0.0,0.0,0.0,0.0,0.0,0.0,0.0,0.0,0.0,0.0,0.0,0.0,0.0,0.0,0.0,0.0,0.0,0.0,0.0,0.0,0.0,0.0,0.0,0.0,0.0,0.0,0.0,0.0,0.0,0.0,0.0,0.0,0.0,0.0,0.0,0.0,0.0,0.0,0.0,0.0,0.0,0.0,0.0,0.0,0.0,0.0,0.0,0.0,0.0,0.0,0.0,0.0,0.0,0.0,0.0,0.0,0.0,0.0,0.0,0.0,0.0,0.0,0.0,0.0,0.0,0.0,0.0,0.0,0.0,0.0,0.0,0.0,0.0,0.0,0.0,0.0,0.0,0.0,0.0,0.0,0.0,0.0,0.0,0.0,0.0,0.0,0.0,0.0,0.0,0.0,0.0,0.0,0.0,0.0,0.0,0.0,0.0,0.0,0.0,0.0,0.0,0.0,-3.0207,0.0,-3.1359,-3.1696,-3.0178,-2.9111,0.0,0.0,0.0,0.0,0.0,0.0,0.0,0.0,0.0,0.0,0.0,0.0,0.0,0.0,0.0,0.0,0.0,0.0,0.0,0.0,0.0,0.0,0.0,0.0,0.0,0.0,0.0,0.0,0.0,0.0,0.0,0.0,0.0,0.0,0.0,0.0,0.0,0.0,0.0,0.0,0.0,0.0,0.0,0.0,0.0,0.0,0.0,0.0,0.0,0.0,0.0,0.0,0.0,0.0,0.0,0.0,0.0,0.0,0.0,0.0,0.0,0.0,0.0,0.0,0.0,0.0,0.0,0.0,0.0,0.0,0.0,0.0,0.0,0.0,0.0,0.0,0.0,0.0,0.0,0.0,0.0,0.0,0.0,0.0,0.0,0.0,0.0,0.0,0.0,0.0,0.0,0.0,0.0,0.0,0.0,0.0,0.0,0.0,0.0,0.0,0.0,0.0,0.0,0.0,0.0,0.0,0.0,0.0,-3.0235,-3.1415,-3.2033,-3.1747,-3.0568,-3.0455,-2.9364,0.0,0.0,0.0,0.0,0.0,0.0,0.0,0.0,0.0,0.0,0.0,0.0,0.0,0.0,0.0,0.0,0.0,0.0,0.0,0.0,0.0,0.0,0.0,0.0,0.0,0.0,0.0,0.0,0.0,0.0,0.0,0.0,0.0,0.0,0.0,0.0,0.0,0.0,0.0,0.0,0.0,0.0,0.0,0.0,0.0,0.0,0.0,0.0,0.0,0.0,0.0,0.0,0.0,0.0,0.0,0.0,0.0,0.0,0.0,0.0,0.0,0.0,0.0,0.0,0.0,0.0,0.0,0.0,0.0,0.0,0.0,0.0,0.0,0.0,0.0,0.0,0.0,0.0,0.0,0.0,0.0,0.0,0.0,0.0,0.0,0.0,0.0,0.0,0.0,0.0,0.0,0.0,0.0,0.0,0.0,0.0,0.0,0.0,0.0,0.0,0.0,0.0,0.0,0.0,0.0,0.0,0.0,0.0,0.0,-3.0825,-3.1443,-3.1808,-3.178,-3.054,-2.9698,0.0,0.0,0.0,0.0,0.0,0.0,0.0,0.0,0.0,0.0,0.0,0.0,0.0,0.0,0.0,0.0,0.0,0.0,0.0,0.0,0.0,0.0,0.0,0.0,0.0,0.0,0.0,0.0,0.0,0.0,0.0,0.0,0.0,0.0,0.0,0.0,0.0,0.0,0.0,0.0,0.0,0.0,0.0,0.0,0.0,0.0,0.0,0.0,0.0,0.0,0.0,0.0,0.0,0.0,0.0,0.0,0.0,0.0,0.0,0.0,0.0,0.0,0.0,0.0,0.0,0.0,0.0,0.0,0.0,0.0,0.0,0.0,0.0,0.0,0.0,0.0,0.0,0.0,0.0,0.0,0.0,0.0,0.0,0.0,0.0,0.0,0.0,0.0,0.0,0.0,0.0,0.0,0.0,0.0,0.0,0.0,0.0,0.0,0.0,0.0,0.0,0.0,0.0,0.0,0.0,0.0,0.0,0.0,0.0,-3.1578,-3.2202,-3.2483,-3.2426,-3.105,-3.015,-2.9813,0.0,0.0,0.0,0.0,0.0,0.0,0.0,0.0,0.0,0.0,0.0,0.0,0.0,0.0,0.0,0.0,0.0,0.0,0.0,0.0,0.0,0.0,0.0,0.0,0.0,0.0,0.0,0.0,0.0,0.0,0.0,0.0,0.0,0.0,0.0,0.0,0.0,0.0,0.0,0.0,0.0,0.0,0.0,0.0,0.0,0.0,0.0,0.0,0.0,0.0,0.0,0.0,0.0,0.0,0.0,0.0,0.0,0.0,0.0,0.0,0.0,0.0,0.0,0.0,0.0,0.0,0.0,0.0,0.0,0.0,0.0,0.0,0.0,0.0,0.0,0.0,0.0,0.0,0.0,0.0,0.0,0.0,0.0,0.0,0.0,0.0,0.0,0.0,0.0,0.0,0.0,0.0,0.0,0.0,0.0,0.0,0.0,0.0,0.0,0.0,0.0,0.0,0.0,0.0,0.0,0.0,0.0,0.0,-3.3319,-3.3964,-3.374,-3.2623,-3.1921,-3.0712,0.0,0.0,0.0,0.0,0.0,0.0,0.0,0.0,0.0,0.0,0.0,0.0,0.0,0.0,0.0,0.0,0.0,0.0,0.0,0.0,0.0,0.0,0.0,0.0,0.0,0.0,0.0,0.0,0.0,0.0,0.0,0.0,0.0,0.0,0.0,0.0,0.0,0.0,0.0,0.0,0.0,0.0,0.0,0.0,0.0,0.0,0.0,0.0,0.0,0.0,0.0,0.0,0.0,0.0,0.0,0.0,0.0,0.0,0.0,0.0,0.0,0.0,0.0,0.0,0.0,0.0,0.0,0.0,0.0,0.0,0.0,0.0,0.0,0.0,0.0,0.0,0.0,0.0,0.0,0.0,0.0,0.0,0.0,0.0,0.0,0.0,0.0,0.0,0.0,0.0,0.0,0.0,0.0,0.0,0.0,0.0,0.0,0.0,0.0,0.0,0.0,0.0,0.0,0.0,0.0,0.0,0.0,0.0,0.0,-3.3936,-3.504,-3.5208,-3.4458,-3.296,-3.1949,0.0,0.0,0.0,0.0,0.0,0.0,0.0,0.0,0.0,0.0,0.0,0.0,0.0,0.0,0.0,0.0,0.0,0.0,0.0,0.0,0.0,0.0,0.0,0.0,0.0,0.0,0.0,0.0,0.0,0.0,0.0,0.0,0.0,0.0,0.0,0.0,0.0,0.0,0.0,0.0,0.0,0.0,0.0,0.0,0.0,0.0,0.0,0.0,0.0,0.0,0.0,0.0,0.0,0.0,0.0,0.0,0.0,0.0,0.0,0.0,0.0,0.0,0.0,0.0,0.0,0.0,0.0,0.0,0.0,0.0,0.0,0.0,0.0,0.0,0.0,0.0,0.0,0.0,0.0,0.0,0.0,0.0,0.0,0.0,0.0,0.0,0.0,0.0,0.0,0.0,0.0,0.0,0.0,0.0,0.0,0.0,0.0,0.0,0.0,0.0,0.0,0.0,0.0,0.0,0.0,0.0,0.0,0.0,-3.3382,-3.4618,-3.5826,-3.6314,-3.5977,-3.4393,-3.3213,0.0,0.0,0.0,0.0,0.0,0.0,0.0,0.0,0.0,0.0,0.0,0.0,0.0,0.0,0.0,0.0,0.0,0.0,0.0,0.0,0.0,0.0,0.0,0.0,0.0,0.0,0.0,0.0,0.0,0.0,0.0,0.0,0.0,0.0,0.0,0.0,0.0,0.0,0.0,0.0,0.0,0.0,0.0,0.0,0.0,0.0,0.0,0.0,0.0,0.0,0.0,0.0,0.0,0.0,0.0,0.0,0.0,0.0,0.0,0.0,0.0,0.0,0.0,0.0,0.0,0.0,0.0,0.0,0.0,0.0,0.0,0.0,0.0,0.0,0.0,0.0,0.0,0.0,0.0,0.0,0.0,0.0,0.0,0.0,0.0,0.0,0.0,0.0,0.0,0.0,0.0,0.0,0.0,0.0,0.0,0.0,0.0,0.0,0.0,0.0,0.0,0.0,0.0,0.0,0.0,0.0,0.0,0.0,-3.3928,-3.5236,-3.6388,-3.6978,-3.695,-3.577,-3.4281,0.0,0.0,0.0,0.0,0.0,0.0,0.0,0.0,0.0,0.0,0.0,0.0,0.0,0.0,0.0,0.0,0.0,0.0,0.0,0.0,0.0,0.0,0.0,0.0,0.0,0.0,0.0,0.0,0.0,0.0,0.0,0.0,0.0,0.0,0.0,0.0,0.0,0.0,0.0,0.0,0.0,0.0,0.0,0.0,0.0,0.0,0.0,0.0,0.0,0.0,0.0,0.0,0.0,0.0,0.0,0.0,0.0,0.0,0.0,0.0,0.0,0.0,0.0,0.0,0.0,0.0,0.0,0.0,0.0,0.0,0.0,0.0,0.0,0.0,0.0,0.0,0.0,0.0,0.0,0.0,0.0,0.0,0.0,0.0,0.0,0.0,0.0,0.0,0.0,0.0,0.0,0.0,0.0,0.0,0.0,0.0,0.0,0.0,0.0,0.0,0.0,0.0,0.0,0.0,0.0,0.0,0.0,0.0,-3.4215,-3.5655,-3.6536,-3.6978,-3.6978,-3.5311,-3.3992,0.0,0.0,0.0,0.0,0.0,0.0,0.0,0.0,0.0,0.0,0.0,0.0,0.0,0.0,0.0,0.0,0.0,0.0,0.0,0.0,0.0,0.0,0.0,0.0,0.0,0.0,0.0,0.0,0.0,0.0,0.0,0.0,0.0,0.0,0.0,0.0,0.0,0.0,0.0,0.0,0.0,0.0,0.0,0.0,0.0,0.0,0.0,0.0,-3.0493,0.0,0.0,0.0,0.0,0.0,0.0,0.0,0.0,0.0,0.0,0.0,0.0,0.0,0.0,0.0,0.0,0.0,0.0,0.0,0.0,0.0,0.0,0.0,0.0,0.0,0.0,0.0,0.0,0.0,0.0,0.0,0.0,0.0,0.0,0.0,0.0,0.0,0.0,0.0,0.0,0.0,0.0,0.0,0.0,0.0,0.0,0.0,0.0,0.0,0.0,0.0,0.0,0.0,0.0,0.0,0.0,0.0,0.0,0.0,-3.4451,-3.5582,-3.6705,-3.7091,-3.6705,-3.5467,-3.4454,0.0,0.0,0.0,0.0,0.0,0.0,0.0,0.0,0.0,0.0,0.0,0.0,0.0,0.0,0.0,0.0,0.0,0.0,0.0,0.0,0.0,0.0,0.0,0.0,0.0,0.0,0.0,0.0,0.0,0.0,0.0,0.0,0.0,0.0,0.0,0.0,0.0,0.0,0.0,0.0,0.0,0.0,0.0,0.0,0.0,0.0,0.0,0.0,0.0,0.0,0.0,0.0,0.0,0.0,0.0,0.0,0.0,0.0,0.0,0.0,0.0,0.0,0.0,0.0,0.0,0.0,0.0,0.0,0.0,0.0,0.0,0.0,0.0,0.0,0.0,0.0,0.0,0.0,0.0,0.0,0.0,0.0,0.0,0.0,0.0,0.0,0.0,0.0,0.0,0.0,0.0,0.0,0.0,0.0,0.0,0.0,0.0,0.0,0.0,0.0,0.0,0.0,0.0,0.0,0.0,0.0,0.0,-3.3041,-3.4302,-3.5204,-3.6535,-3.6904,-3.6166,-3.5684,-3.5062,-3.4167,0.0,0.0,0.0,0.0,0.0,0.0,0.0,0.0,0.0,0.0,0.0,0.0,0.0,0.0,0.0,0.0,0.0,0.0,0.0,0.0,0.0,0.0,0.0,0.0,0.0,0.0,0.0,0.0,0.0,0.0,0.0,0.0,0.0,0.0,0.0,0.0,0.0,0.0,-3.1162,-3.1746,0.0,0.0,0.0,0.0,0.0,0.0,0.0,0.0,-2.9603,0.0,0.0,0.0,0.0,0.0,0.0,0.0,0.0,0.0,0.0,0.0,0.0,0.0,0.0,0.0,0.0,0.0,0.0,0.0,0.0,0.0,0.0,0.0,0.0,0.0,0.0,0.0,0.0,0.0,0.0,0.0,0.0,0.0,0.0,0.0,0.0,0.0,0.0,0.0,0.0,0.0,0.0,0.0,0.0,0.0,0.0,0.0,0.0,0.0,0.0,0.0,0.0,0.0,0.0,0.0,0.0,-3.2401,-3.2439,-3.3037,-3.4315,-3.5273,-3.5508,-3.4991,-3.54,-3.5123,-3.4001,0.0,0.0,0.0,0.0,0.0,0.0,0.0,0.0,0.0,0.0,0.0,0.0,0.0,0.0,0.0,0.0,0.0,0.0,0.0,0.0,0.0,0.0,0.0,0.0,0.0,0.0,0.0,0.0,0.0,0.0,0.0,0.0,0.0,0.0,0.0,0.0,0.0,0.0,0.0,-3.1514,-3.1759,0.0,0.0,0.0,0.0,0.0,0.0,0.0,0.0,-2.9267,0.0,0.0,0.0,0.0,0.0,0.0,0.0,0.0,0.0,0.0,0.0,0.0,0.0,0.0,0.0,0.0,0.0,0.0,0.0,0.0,0.0,0.0,0.0,0.0,0.0,0.0,0.0,0.0,0.0,0.0,0.0,0.0,0.0,0.0,0.0,0.0,0.0,0.0,0.0,0.0,0.0,0.0,0.0,0.0,0.0,0.0,0.0,0.0,0.0,0.0,0.0,0.0,0.0,0.0,0.0,-3.1204,-3.2247,-3.3264,-3.4287,-3.4912,-3.4891,-3.4212,-3.3981,-3.3221,0.0,0.0,0.0,0.0,0.0,0.0,0.0,0.0,0.0,0.0,0.0,0.0,0.0,0.0,0.0,0.0,0.0,0.0,0.0,0.0,0.0,0.0,0.0,0.0,0.0,0.0,0.0,0.0,0.0,0.0,0.0,0.0,0.0,0.0,0.0,0.0,0.0,0.0,0.0,0.0,-3.1356,-3.168,-3.1629,0.0,0.0,0.0,0.0,0.0,0.0,-2.8939,-2.8545,0.0,0.0,0.0,0.0,0.0,0.0,0.0,0.0,0.0,0.0,0.0,0.0,0.0,0.0,0.0,0.0,0.0,0.0,0.0,0.0,0.0,0.0,0.0,0.0,0.0,0.0,0.0,0.0,0.0,0.0,0.0,0.0,0.0,0.0,0.0,0.0,0.0,0.0,0.0,0.0,0.0,0.0,0.0,0.0,0.0,0.0,0.0,0.0,0.0,0.0,0.0,0.0,0.0,0.0,0.0,-2.9975,-3.1913,-3.3273,-3.4093,-3.4384,-3.4195,-3.3375,-3.2628,-3.1612,0.0,0.0,0.0,0.0,0.0,0.0,0.0,0.0,0.0,0.0,0.0,0.0,0.0,0.0,0.0,0.0,0.0,0.0,0.0,0.0,0.0,0.0,0.0,0.0,0.0,0.0,0.0,0.0,0.0,0.0,0.0,0.0,0.0,0.0,0.0,0.0,0.0,0.0,0.0,0.0,0.0,-3.1692,-3.1251,-3.0285,0.0,0.0,0.0,0.0,-2.9665,-2.9366,0.0,0.0,0.0,0.0,0.0,0.0,0.0,0.0,0.0,0.0,0.0,0.0,0.0,0.0,0.0,0.0,0.0,0.0,0.0,0.0,0.0,0.0,0.0,0.0,0.0,0.0,0.0,0.0,0.0,0.0,0.0,0.0,0.0,0.0,0.0,0.0,0.0,0.0,0.0,0.0,0.0,0.0,0.0,0.0,0.0,0.0,0.0,0.0,0.0,0.0,0.0,0.0,0.0,0.0,0.0,0.0,-3.0185,-3.0899,-3.1738,-3.2692,-3.2936,-3.2787,-3.2237,-3.2259,-3.2027,0.0,0.0,0.0,0.0,0.0,0.0,0.0,0.0,0.0,0.0,0.0,0.0,0.0,0.0,0.0,0.0,0.0,0.0,0.0,0.0,0.0,0.0,0.0,0.0,0.0,0.0,0.0,0.0,0.0,0.0,0.0,0.0,0.0,0.0,0.0,0.0,0.0,0.0,0.0,0.0,0.0,-3.1687,-3.1733,-3.079,-3.0308,0.0,0.0,-3.0147,-3.0744,-3.1869,0.0,0.0,0.0,0.0,0.0,0.0,0.0,0.0,0.0,0.0,0.0,0.0,0.0,0.0,0.0,0.0,0.0,0.0,0.0,0.0,0.0,0.0,0.0,0.0,0.0,0.0,0.0,0.0,0.0,0.0,0.0,0.0,0.0,0.0,0.0,0.0,0.0,0.0,0.0,0.0,0.0,0.0,0.0,0.0,0.0,0.0,0.0,0.0,0.0,0.0,0.0,0.0,0.0,0.0,0.0,-2.8109,-2.9788,-3.0859,-3.1915,-3.2879,-3.2711,-3.2392,-3.1809,-3.1123,-3.0396,0.0,0.0,0.0,0.0,0.0,0.0,0.0,0.0,0.0,0.0,0.0,0.0,0.0,0.0,0.0,0.0,0.0,0.0,0.0,0.0,0.0,0.0,0.0,0.0,0.0,0.0,0.0,0.0,0.0,0.0,0.0,0.0,0.0,0.0,0.0,0.0,0.0,0.0,0.0,0.0,0.0,0.0,-3.2213,-3.2053,0.0,0.0,0.0,-3.1249,-3.1754,0.0,0.0,0.0,0.0,0.0,0.0,0.0,0.0,0.0,0.0,0.0,0.0,0.0,0.0,0.0,0.0,0.0,0.0,0.0,0.0,0.0,0.0,0.0,0.0,0.0,0.0,0.0,0.0,0.0,0.0,0.0,0.0,0.0,0.0,0.0,0.0,0.0,0.0,0.0,0.0,0.0,0.0,0.0,0.0,0.0,0.0,0.0,0.0,0.0,0.0,0.0,0.0,0.0,0.0,0.0,0.0,0.0,-2.9665,-3.1157,-3.2351,-3.3224,-3.2764,-3.2236,-3.1731,-3.0399,0.0,0.0,0.0,0.0,0.0,0.0,0.0,0.0,0.0,0.0,0.0,0.0,0.0,0.0,0.0,0.0,0.0,0.0,0.0,0.0,0.0,0.0,0.0,0.0,0.0,0.0,0.0,-2.1098,0.0,0.0,0.0,0.0,0.0,0.0,0.0,0.0,0.0,0.0,0.0,0.0,0.0,0.0,-3.2596,-3.2302,-3.2619,-3.2959,0.0,0.0,-3.198,-3.2343,-3.2932,-3.2592,0.0,0.0,0.0,0.0,0.0,0.0,0.0,0.0,0.0,0.0,0.0,0.0,0.0,0.0,0.0,0.0,0.0,0.0,0.0,0.0,0.0,0.0,0.0,0.0,0.0,0.0,0.0,0.0,0.0,0.0,0.0,0.0,0.0,0.0,0.0,0.0,0.0,0.0,0.0,0.0,0.0,0.0,0.0,0.0,0.0,0.0,0.0,0.0,0.0,0.0,0.0,0.0,0.0,0.0,-2.8654,-3.0147,-3.1662,-3.2718,-3.3247,-3.2764,-3.2259,-3.1825,-3.0744,-2.97,0.0,0.0,0.0,0.0,0.0,0.0,0.0,0.0,0.0,0.0,0.0,0.0,0.0,0.0,0.0,0.0,0.0,0.0,0.0,0.0,0.0,0.0,0.0,0.0,0.0,0.0,0.0,0.0,0.0,0.0,0.0,0.0,0.0,0.0,0.0,0.0,0.0,0.0,0.0,0.0,0.0,-3.1206,-3.1622,-3.171,-3.2009,0.0,-3.2525,-3.2197,-3.2219,-3.4153,-3.424,-3.0127,0.0,0.0,0.0,0.0,0.0,0.0,0.0,0.0,0.0,0.0,0.0,0.0,0.0,0.0,0.0,0.0,0.0,0.0,0.0,0.0,0.0,0.0,0.0,0.0,0.0,0.0,0.0,0.0,0.0,0.0,0.0,0.0,0.0,0.0,0.0,0.0,0.0,0.0,0.0,0.0,0.0,0.0,0.0,0.0,0.0,0.0,0.0,0.0,0.0,0.0,0.0,0.0,0.0,-2.7698,-2.8879,-3.0641,-3.1728,-3.2218,-3.204,-3.1595,-3.0815,-3.0103,-2.8857,0.0,0.0,0.0,0.0,0.0,0.0,0.0,0.0,0.0,0.0,0.0,0.0,0.0,0.0,0.0,0.0,0.0,0.0,0.0,0.0,0.0,0.0,0.0,0.0,0.0,0.0,0.0,0.0,-2.205,-2.2116,-2.2078,0.0,0.0,0.0,0.0,0.0,0.0,0.0,0.0,0.0,0.0,-3.152,-3.1949,-3.2516,0.0,0.0,-3.3039,-3.2681,-3.2734,-3.3311,-3.2853,-3.0291,-2.9729,0.0,0.0,0.0,0.0,0.0,0.0,0.0,0.0,0.0,0.0,0.0,0.0,0.0,0.0,0.0,0.0,0.0,0.0,0.0,0.0,0.0,0.0,0.0,0.0,0.0,0.0,0.0,0.0,0.0,0.0,0.0,0.0,0.0,0.0,0.0,0.0,0.0,0.0,0.0,0.0,0.0,0.0,0.0,0.0,0.0,0.0,0.0,0.0,0.0,0.0,0.0,0.0,-2.7217,-2.8116,-3.0105,-3.128,-3.1607,-3.1578,-3.1236,-3.0428,-2.9746,-2.8481,0.0,0.0,0.0,0.0,0.0,0.0,0.0,0.0,0.0,0.0,0.0,0.0,0.0,0.0,0.0,0.0,0.0,0.0,0.0,0.0,0.0,0.0,0.0,0.0,0.0,0.0,0.0,0.0,-2.2584,-2.2439,-2.2315,0.0,0.0,0.0,0.0,0.0,0.0,0.0,0.0,0.0,0.0,-3.1352,-3.1954,-3.2599,-3.3028,-3.3028,-3.2749,-3.2513,-3.2394,-3.2459,-3.1878,-2.9998,0.0,0.0,0.0,0.0,0.0,0.0,0.0,0.0,0.0,0.0,0.0,0.0,0.0,0.0,0.0,0.0,0.0,0.0,0.0,0.0,0.0,0.0,0.0,0.0,0.0,0.0,0.0,-2.5944,0.0,0.0,-2.5259,0.0,0.0,0.0,0.0,0.0,0.0,0.0,0.0,0.0,0.0,0.0,0.0,0.0,0.0,0.0,0.0,0.0,0.0,0.0,0.0,0.0,0.0,-2.7523,-2.8092,-3.0335,-3.1556,-3.1578,-3.1578,-3.1338,-3.0815,-2.9899,-2.8871,-2.778,0.0,0.0,0.0,0.0,0.0,0.0,0.0,0.0,0.0,0.0,0.0,0.0,0.0,0.0,0.0,0.0,0.0,0.0,0.0,0.0,0.0,0.0,0.0,0.0,0.0,0.0,-2.3225,-2.277,-2.2296,0.0,0.0,0.0,0.0,0.0,0.0,0.0,0.0,0.0,-2.7676,-2.9155,-3.0378,-3.127,-3.1436,-3.1457,-3.1477,-3.1457,-3.127,-3.0855,-3.1774,-3.1754,0.0,0.0,0.0,0.0,0.0,0.0,0.0,0.0,0.0,0.0,0.0,0.0,0.0,0.0,0.0,0.0,0.0,0.0,0.0,0.0,0.0,0.0,0.0,0.0,0.0,0.0,0.0,-2.751,-2.6853,0.0,0.0,0.0,0.0,0.0,0.0,0.0,0.0,0.0,0.0,0.0,-2.6263,-2.6526,0.0,0.0,0.0,0.0,0.0,0.0,0.0,0.0,0.0,0.0,0.0,0.0,-2.6602,-2.7197,-2.9366,-3.0568,-3.0547,-3.0547,-3.0336,-2.9872,-2.9189,-2.7841,-2.5714,0.0,0.0,0.0,0.0,0.0,0.0,0.0,0.0,0.0,0.0,0.0,0.0,0.0,0.0,0.0,0.0,0.0,0.0,0.0,0.0,0.0,0.0,0.0,0.0,0.0,-2.4467,0.0,0.0,0.0,0.0,0.0,0.0,0.0,0.0,0.0,0.0,0.0,-2.5052,-2.6112,-2.7389,-2.8511,-2.9098,-2.9486,-2.978,0.0,0.0,0.0,0.0,0.0,0.0,0.0,0.0,0.0,0.0,0.0,0.0,0.0,0.0,-3.1032,-2.7954,-2.721,-2.7213,-2.7711,0.0,0.0,0.0,0.0,0.0,0.0,0.0,0.0,0.0,0.0,0.0,0.0,0.0,0.0,-2.7979,-2.7447,-2.7283,0.0,0.0,0.0,0.0,0.0,0.0,0.0,0.0,-2.7661,-2.7945,-2.7392,-2.7653,-2.7412,-2.6612,-2.5816,-2.4848,0.0,0.0,0.0,0.0,0.0,0.0,0.0,0.0,-2.6231,-2.6915,-2.8918,-2.9994,-2.9994,-2.9994,-2.9849,-2.9539,-2.8938,-2.7552,-2.5337,-2.4529,-2.3557,0.0,0.0,0.0,0.0,0.0,0.0,0.0,0.0,0.0,0.0,0.0,0.0,0.0,0.0,0.0,0.0,0.0,0.0,0.0,0.0,0.0,0.0,0.0,-2.3477,0.0,0.0,0.0,0.0,0.0,0.0,0.0,0.0,0.0,-2.2829,-2.3669,-2.4569,-2.5672,-2.6589,-2.729,-2.7623,0.0,0.0,0.0,0.0,0.0,0.0,0.0,-2.8252,-2.9257,-2.8883,-2.8765,-2.9939,-3.099,-3.1612,-3.1414,0.0,0.0,-2.9237,-2.8737,-2.8791,-2.9409,-2.9771,-3.0184,-3.0581,-3.1102,-3.1336,0.0,0.0,0.0,0.0,-2.8496,0.0,0.0,0.0,-2.8064,-2.7883,0.0,-2.7472,0.0,0.0,0.0,0.0,-2.5165,-2.6843,0.0,0.0,-2.894,-2.9433,-2.898,-2.8907,-2.876,-2.8296,-2.7496,-2.6825,-2.6159,-2.4847,0.0,0.0,0.0,0.0,0.0,0.0,-2.6392,-2.7365,-2.9104,-2.9994,-3.0015,-2.9994,-2.9994,-2.9932,-2.9104,-2.7986,-2.6641,-2.6123,-2.5088,-2.335,-2.2811,0.0,0.0,0.0,0.0,0.0,0.0,0.0,0.0,0.0,0.0,0.0,0.0,0.0,0.0,0.0,0.0,0.0,0.0,0.0,0.0,-2.1111,0.0,0.0,0.0,0.0,0.0,0.0,0.0,0.0,0.0,0.0,-2.2854,-2.3668,-2.4719,-2.625,0.0,0.0,0.0,0.0,-2.6864,-2.6204,-2.6302,-2.6563,-2.6879,-2.7919,-2.855,-2.8425,0.0,0.0,-2.9214,-2.9479,-2.9726,-2.9196,-2.9672,-3.0352,-3.2211,-3.167,-3.121,-3.1251,-3.1196,-3.1457,-3.189,-3.2107,-3.2473,-3.071,0.0,0.0,0.0,0.0,-2.9928,-3.0329,-3.1228,-3.073,-3.0189,-2.9641,-2.9521,0.0,0.0,0.0,0.0,0.0,0.0,-2.5864,-2.5703,-2.6715,-2.7164,-2.7154,-2.7211,-2.71,-2.6918,-2.6134,-2.5355,-2.4614,-2.4392,-2.3489,-2.1939,0.0,0.0,0.0,0.0,-2.7201,-2.8389,-2.9456,-3.016,-3.047,-3.016,-2.9849,-2.9497,-2.9249,-2.8462,-2.7164,-2.681,-2.5911,-2.4413,-2.3774,0.0,0.0,0.0,0.0,0.0,0.0,0.0,0.0,0.0,0.0,0.0,0.0,0.0,0.0,0.0,0.0,0.0,0.0,0.0,-2.1111,-2.0918,-2.0809,0.0,0.0,0.0,0.0,0.0,0.0,0.0,0.0,0.0,-2.1933,-2.2592,-2.319,0.0,0.0,-2.417,-2.4433,-2.4738,-2.5034,-2.5283,-2.5545,0.0,-2.6738,-2.6349,-2.652,-2.8002,-2.9133,-2.9779,-2.981,-3.0351,-3.0921,-3.0997,-3.1095,-3.1332,-3.1764,-3.1013,-3.0335,-3.0529,-3.0606,-3.0761,-3.1207,-3.1421,-3.1498,-3.2389,-3.1445,-3.0849,-3.0809,-3.1166,-3.0908,-3.1344,-3.2276,-3.1839,-3.1384,-3.1027,-3.0195,-2.8458,-2.6122,-2.5172,0.0,0.0,0.0,-2.5272,-2.5429,-2.599,-2.6344,-2.6645,-2.6662,-2.6602,-2.6568,-2.5461,-2.4818,-2.4663,-2.4043,-2.3062,-2.1931,0.0,-2.3185,-2.276,-2.4714,-2.6333,-2.7497,-2.8779,-2.9459,-2.9559,-2.9619,-2.9536,-2.9218,-2.9034,-2.8614,-2.7815,-2.7464,-2.6688,-2.5533,-2.4912,-2.3923,0.0,0.0,0.0,0.0,0.0,0.0,0.0,0.0,0.0,0.0,0.0,-2.1805,-2.1312,0.0,0.0,0.0,-2.0268,-2.0348,-2.0432,-2.0215,0.0,0.0,0.0,0.0,0.0,0.0,0.0,-1.9316,-2.0208,-2.1086,-2.1789,-2.2225,-2.272,-2.3334,-2.3181,-2.3135,-2.3488,0.0,-2.3992,-2.4347,-2.4733,-2.5218,-2.5976,-2.5613,-2.5802,-2.7537,-2.8277,-2.8711,-2.8905,-2.9371,-2.977,-2.9965,-2.9983,-2.9953,-3.0081,-2.9556,-2.9585,-3.0597,-3.086,-3.1011,-3.1469,-3.1564,-3.1602,-3.3489,-3.2966,-3.1378,-3.1131,-3.166,-3.166,-3.1834,-3.2105,-3.1655,-3.1634,-3.1764,-2.9758,-2.8314,-2.7233,-2.4791,0.0,-2.4284,-2.4765,-2.536,-2.6118,-2.6118,-2.6363,-2.6702,-2.6641,-2.6702,-2.6624,-2.5161,-2.4849,-2.5418,-2.3641,-2.2481,-2.1951,-2.2498,-2.2789,-2.2873,-2.367,-2.4542,-2.5459,-2.7326,-2.8089,-2.7714,-2.8442,-2.8834,-2.8794,-2.8468,-2.8249,-2.8209,-2.7759,-2.7142,-2.6287,-2.5761,-2.4578,-2.2422,0.0,0.0,0.0,0.0,0.0,0.0,0.0,0.0,0.0,0.0,0.0,0.0,0.0,0.0,0.0,-1.9279,0.0,-1.9665,-1.9169,0.0,0.0,0.0,-1.8745,-1.8555,-1.9594,-2.027,-2.03,0.0,0.0,-2.2213,-2.2491,-2.3018,-2.3954,-2.3501,-2.3193,-2.3545,-2.3625,-2.3643,-2.376,-2.3961,-2.44,-2.5058,-2.5256,-2.5666,-2.6619,-2.6922,-2.6925,-2.6975,-2.7057,-2.7039,-2.7206,-2.7105,-2.7304,-2.7585,-2.7966,-2.8818,-3.0809,-3.1339,-3.1577,-3.1832,-3.1926,-3.1974,-3.0531,-3.0189,-2.9771,-3.0891,-3.2906,-3.2969,-3.2382,-3.1556,-3.1399,-3.0646,-2.9418,-2.8926,-2.7565,-2.5572,-2.3741,-2.2916,-2.3051,-2.3384,-2.3688,-2.3901,-2.3901,-2.3947,-2.4023,-2.4023,-2.4023,-2.4023,-2.3638,-2.3307,-2.3064,-2.2601,-2.2021,-2.1436,-2.1536,-2.1791,-2.225,-2.3877,-2.5162,-2.6079,-2.6483,-2.6619,-2.6511,-2.6699,-2.6665,-2.6481,-2.6371,-2.6116,-2.577,-2.5466,-2.4911,-2.4188,-2.3506,-2.2655,-2.1555,-2.0245,0.0,0.0,0.0,0.0,0.0,0.0,0.0,0.0,0.0,-2.0474,-1.9395,0.0,-1.9516,0.0,-1.8655,-1.8666,-1.8979,-1.8661,0.0,0.0,-1.9403,-1.952,-2.0413,-2.0794,-2.1072,-2.132,-2.1774,-2.2286,-2.2828,-2.2945,-2.3267,-2.3954,-2.331,-2.2945,-2.3486,-2.3593,-2.3819,-2.4268,-2.4628,-2.4841,-2.4716,-2.4553,-2.4559,-2.4815,-2.4844,-2.4895,-2.5156,-2.5482,-2.5742,-2.6002,-2.6261,-2.6566,-2.6887,-2.6984,-2.7343,-2.8196,-2.908,-2.9895,-3.0,-3.0083,-3.0188,-2.9541,-2.9182,-2.9182,-3.0095,-3.1534,-3.1534,-3.1065,-3.0354,-3.0337,-2.9777,-2.884,-2.7939,-2.6358,-2.4361,-2.3284,-2.2828,-2.2842,-2.3032,-2.3106,-2.3106,-2.3106,-2.3106,-2.3106,-2.3106,-2.3106,-2.3106,-2.3106,-2.2784,-2.2213,-2.2184,-2.192,-2.1423,-2.1423,-2.1576,-2.1892,-2.2965,-2.3804,-2.4234,-2.4728,-2.5235,-2.5743,-2.5569,-2.5346,-2.5033,-2.5016,-2.4823,-2.4402,-2.4139,-2.3722,-2.3132,-2.255,-2.179,-2.0667,-1.9695,-1.8823,0.0,0.0,0.0,0.0,0.0,0.0,0.0,0.0,0.0,0.0,0.0,-1.8783,-1.8483,-1.8781,-1.9081,-1.9403,-1.9652,-2.0047,-2.0603,-2.0618,-2.0852,-2.1569,-2.1759,-2.1964,-2.2286,-2.2491,-2.2769,-2.3252,-2.3325,-2.3515,-2.4013,-2.3486,-2.3237,-2.3676,-2.3691,-2.3779,-2.4276,-2.451,-2.4635,-2.4379,-2.4203,-2.4086,-2.4086,-2.4086,-2.4151,-2.4346,-2.454,-2.4784,-2.4978,-2.5123,-2.5409,-2.5878,-2.6137,-2.6377,-2.6956,-2.7733,-2.8378,-2.8576,-2.8725,-2.9023,-2.9077,-2.8725,-2.8691,-2.8657,-2.8674,-2.8657,-2.8789,-2.892,-2.892,-2.8854,-2.8558,-2.6793,-2.5098,-2.3647,-2.3325,-2.3149,-2.3106,-2.3106,-2.3106,-2.3106,-2.3106,-2.3106,-2.3106,-2.3106,-2.3106,-2.3106,-2.3106,-2.2784,-2.2198,-2.2184,-2.1993,-2.1657,-2.1642,-2.1628,-2.1628,-2.1642,-2.1657,-2.1686,-2.2809,-2.3834,-2.4872,-2.4536,-2.4166,-2.3871,-2.3854,-2.3668,-2.3315,-2.3045,-2.2689,-2.2316,-2.2045,-2.1279,-1.9889,-1.9446,-1.8705,0.0,-1.7091,0.0,0.0,0.0,0.0,0.0,0.0,0.0,0.0,-1.863,-1.8247,-1.8525,-1.9403,-2.0077,-2.0343,-2.1203,-2.1613,-2.1437,-2.1891,-2.2242,-2.2301,-2.2535,-2.2798,-2.3076,-2.3106,-2.3223,-2.3471,-2.353,-2.3647,-2.3837,-2.3662,-2.3545,-2.3852,-2.372,-2.372,-2.4027,-2.4042,-2.4057,-2.4013,-2.3969,-2.3925,-2.394,-2.391,-2.3954,-2.3925,-2.399,-2.4004,-2.4004,-2.4039,-2.4251,-2.4833,-2.5206,-2.5672,-2.6306,-2.6733,-2.7134,-2.7584,-2.7981,-2.8444,-2.6487,-2.6156,-2.5952,-2.5846,-2.5913,-2.5846,-2.6501,-2.7485,-2.7485,-2.6886,-2.5883,-2.5173,-2.4553,-2.3969,-2.3647,-2.3354,-2.3106,-2.3106,-2.3106,-2.3106,-2.3106,-2.3106,-2.3106,-2.3106,-2.3106,-2.3106,-2.3106,-2.2784,-2.2184,-2.2184,-2.1876,-2.132,-2.1306,-2.1306,-2.1306,0.0,0.0,0.0,-2.2186,-2.2423,-2.2387,-2.2311,-2.1994,-2.139,-2.1375,0.0,-2.0582,-2.0719,-2.0499,-1.9976,-2.0128,0.0,0.0,0.0,0.0,0.0,0.0,0.0,0.0,0.0,0.0,0.0,-1.9339,-1.9265,-1.8642,-1.9317,-1.9745,-1.9833,-2.0516,-2.1072,-2.1379,-2.1584,-2.1876,-2.2301,-2.2462,-2.2637,-2.2901,-2.2974,-2.3047,-2.3091,-2.3106,-2.3135,-2.3208,-2.3208,-2.3237,-2.331,-2.3237,-2.3223,-2.3296,-2.3471,-2.3706,-2.3998,-2.3837,-2.3691,-2.3691,-2.3486,-2.3354,-2.3296,-2.3296,-2.331,-2.3325,-2.3325,-2.331,-2.3325,-2.3281,-2.3501,-2.4187,-2.4369,-2.4627,-2.5271,-2.5457,-2.5861,-2.7051,-2.7584,-2.8013,-2.5397,-2.4954,-2.481,-2.4653,0.0,-2.4578,-2.497,-2.5629,-2.5965,-2.5712,-2.5105,-2.4715,-2.4481,-2.4305,-2.3808,-2.3501,-2.334,-2.3179,-2.3106,-2.3106,-2.3106,-2.3106,-2.3106,-2.3106,-2.3106,-2.3106,-2.3106,-2.2857,-2.2418,-2.2257,-2.1935,-2.1452,-2.1291,-2.1203,-2.1203,-2.1203,-2.1291,-2.1452,-2.1613,-2.1628,-2.1467,-2.1467,-2.1218,-2.0694,-2.0559,0.0,0.0,0.0,0.0,0.0,0.0,0.0,0.0,0.0,0.0,-1.9008,-1.8796,-1.8723,-1.8738,-1.9161,-1.9638,-1.9974,-2.0442,-2.0369,-1.955,-2.0088,-2.0498,-2.0671,-2.0989,-2.1331,-2.1646,-2.1939,-2.2277,-2.2566,-2.2748,-2.2868,-2.2889,-2.2856,-2.2793,-2.2668,-2.2731,-2.2856,-2.2856,-2.2981,-2.3106,-2.3106,-2.3106,-2.3106,-2.312,-2.3237,-2.3427,-2.3574,-2.3486,-2.3369,-2.334,-2.3237,-2.3106,-2.3106,-2.3106,-2.3106,-2.3106,-2.3106,-2.3106,-2.3106,-2.3106,-2.3281,-2.372,-2.3969,-2.4232,-2.4767,-2.5017,-2.5255,-2.6063,-2.6584,-2.715,-2.503,-2.4568,-2.4456,-2.426,-2.4036,-2.4048,-2.3966,-2.402,-2.4645,0.0,0.0,-2.464,-2.4494,-2.4407,-2.3869,-2.3671,-2.3598,-2.334,-2.3193,-2.3193,-2.3135,-2.3106,-2.3106,-2.3106,-2.3043,-2.2981,-2.3043,-2.2883,-2.25,-2.2313,-2.2067,-2.1701,-2.1423,-2.1276,-2.1218,-2.1203,-2.1203,-2.1203,-2.1203,-2.1203,-2.1203,-2.1203,-2.1057,-2.0679,-2.0472,-2.015,-1.9823,-1.9301,-1.9023,-1.8964,-1.876,-1.8891,-1.9403,-1.9506,-1.9769,-2.0267,-2.027,-2.0355,-2.0343,-2.0548,-2.0737,-2.0856,-2.1351,-2.138,-2.09,-2.0931,-2.1073,-2.1327,-2.1343,-2.146,-2.1698,-2.2199,-2.2543,-2.248,-2.2731,-2.2793,-2.2543,-2.248,-2.2418,-2.2181,-2.2355,-2.2543,-2.2606,-2.2856,-2.3043,-2.3106,-2.3106,-2.3106,-2.3106,-2.312,-2.3149,-2.3164,-2.3164,-2.312,-2.3106,-2.312,-2.3106,-2.3106,-2.3106,-2.3106,-2.3106,-2.3106,-2.3106,-2.3106,-2.3106,-2.3252,-2.3545,-2.3866,-2.4188,-2.451,-2.4885,-2.5066,-2.5119,-2.551,-2.6182,-2.5282,-2.5156,-2.4638,-2.4386,-2.433,-2.4078,-2.3966,-2.4034,-2.4102,-2.417,-2.4156,-2.4114,-2.3944,-2.369,-2.3871,-2.3802,-2.353,-2.3548,-2.353,-2.3515,-2.3237,-2.3106,-2.3106,-2.3106,-2.2918,-2.2731,-2.2981,-2.2759,-2.2285,-2.2396,-2.2271,-2.1759,-2.1657,-2.1481,-2.1233,-2.1203,-2.1203,-2.1203,-2.1203,-2.1203,-2.1203,-2.1203,-2.1057,-2.0735,-2.0676,-2.0369,-1.9837,-1.993,-1.9901,-1.9705,-1.9842,-1.9964,-2.0051,-2.0355,-2.0559,-2.0647,-2.0662,-2.0779,-2.1042,-2.0852,-2.0972,-2.1507,-2.1381,-2.1336,-2.1548,-2.1761,-2.1954,-2.1942,-2.1922,-2.1992,-2.2048,-2.2139,-2.2167,-2.2167,-2.2244,-2.223,-2.2167,-2.2167,-2.2104,-2.2041,-2.2104,-2.2292,-2.248,-2.2606,-2.2793,-2.2981,-2.3043,-2.3106,-2.3043,-2.3106,-2.3106,-2.3106,-2.3106,-2.3106,-2.3106,-2.3106,-2.3106,-2.3106,-2.3106,-2.3106,-2.3106,-2.3106,-2.3106,-2.3106,-2.3106,-2.3237,-2.3515,-2.3866,-2.4159,-2.4466,-2.4788,-2.5022,-2.5052,-2.5187,-2.551,-2.4838,-2.4675,-2.4402,-2.4197,-2.402,-2.372,-2.3571,-2.342,-2.3406,-2.3611,-2.3966,-2.3966,-2.395,-2.3795,-2.3694,-2.3686,-2.3464,-2.3349,-2.3185,-2.3014,-2.2871,-2.2714,-2.2557,-2.2543,-2.248,-2.2355,-2.2495,-2.2472,-2.2391,-2.2342,-2.2294,-2.2184,-2.1876,-2.1525,-2.1233,-2.1203,-2.1203,-2.1203,-2.1203,-2.1203,-2.1203,-2.1203,-2.113,-2.0984,-2.0823,-2.0589,-2.0296,-2.0252,-2.011,-2.0033,-2.0095,-2.0256,-2.0431,-2.0647,-2.0794,-2.0969,-2.0984,-2.113,-2.1452,-2.1481,-2.1448,-2.1421,-2.1624,-2.1614,-2.1385,-2.165,-2.1825,-2.1839,-2.1664,-2.1538,-2.1551,-2.174,-2.1853,-2.1853,-2.1992,-2.2041,-2.1866,-2.1803,-2.174,-2.1614,-2.1727,-2.1853,-2.2041,-2.223,-2.2355,-2.2543,-2.2668,-2.2793,-2.2856,-2.2981,-2.3106,-2.3106,-2.3106,-2.3106,-2.3106,-2.3106,-2.3106,-2.3106,-2.3106,-2.3106,-2.3106,-2.3106,-2.3106,-2.3106,-2.3106,-2.3164,-2.3325,-2.3603,-2.391,-2.4247,-2.4569,-2.487,-2.5046,-2.5066,-2.5322,-2.4502,-2.4302,-2.4222,-2.3995,-2.3661,-2.342,-2.3153,-2.2873,-2.2928,-2.3201,-2.3693,-2.3747,-2.3761,-2.372,-2.3565,-2.3468,-2.3412,-2.32,-2.3,-2.2855,-2.2706,-2.251,-2.223,-2.2216,-2.2111,-2.2055,-2.2041,-2.223,-2.2327,-2.2238,-2.2328,-2.2503,-2.2081,-2.1642,-2.132,-2.132,-2.1276,-2.1218,-2.1203,-2.1203,-2.1203,-2.1203,-2.1203,-2.1189,-2.0969,-2.0781,-2.0696,-2.0463,-2.0332,-2.0332,-2.0332,-2.0463,-2.0808,-2.084,-2.0943,-2.1161,-2.1191,-2.1307,-2.1584,-2.1732,-2.1596,-2.1199,-2.1555,-2.1562,-2.1175,-2.1339,-2.1488,-2.1488,-2.1299,-2.1109,-2.1172,-2.1362,-2.1488,-2.1488,-2.1727,-2.174,-2.1551,-2.1488,-2.1362,-2.1172,-2.1362,-2.1551,-2.1614,-2.1803,-2.2041,-2.2181,-2.2355,-2.248,-2.2606,-2.2856,-2.2981,-2.3106,-2.3106,-2.3106,-2.3106,-2.3106,-2.3106,-2.3106,-2.3106,-2.3106,-2.3106,-2.3106,-2.3106,-2.3106,-2.3106,-2.312,-2.3135,-2.3384,-2.372,-2.4057,-2.4393,-2.4686,-2.5046,-2.5052,-2.5255,-2.4549,-2.4556,-2.4315,-2.3875,-2.342,-2.3354,-2.3166,-2.2886,-2.2859,-2.2928,-2.3065,-2.2996,-2.2996,-2.3065,-2.3297,-2.3406,-2.3392,-2.3454,-2.342,-2.335,-2.3112,-2.2832,-2.2552,-2.2524,-2.2193,-2.1768,-2.1929,-2.1929,-2.179,-2.2264,-2.2529,-2.2562,-2.2301,-2.1979,-2.1686,-2.1657,-2.1511,-2.1218,-2.1203,-2.1203,-2.1203,-2.1203,-2.1203,-2.1203,-2.1174,-2.0988,-2.0716,-2.0644,-2.063,-2.063,-2.0673,-2.0816,-2.106,-2.1119,-2.1175,-2.119,-2.1204,-2.1247,-2.1246,-2.0994,-2.0923,-2.1081,-2.0929,-2.0967,-2.1092,-2.1145,-2.1172,-2.1172,-2.1109,-2.1109,-2.1109,-2.1172,-2.1172,-2.1172,-2.1222,-2.1172,-2.1172,-2.1172,-2.1109,-2.1109,-2.1172,-2.1235,-2.1488,-2.1614,-2.174,-2.1992,-2.2104,-2.223,-2.248,-2.2606,-2.2793,-2.3043,-2.3106,-2.3106,-2.3106,-2.3106,-2.3106,-2.3106,-2.3106,-2.3106,-2.3106,-2.3106,-2.3106,-2.3106,-2.3106,-2.3106,-2.3179,-2.3369,-2.3676,-2.4027,-2.4364,-2.4753,-2.4964,-2.5066,-2.5255,-2.4636,-2.4623,-2.4502,-2.4222,-2.3848,-2.3661,-2.342,-2.314,-2.3008,-2.2859,-2.2859,-2.2859,-2.2859,-2.2941,-2.3065,-2.3133,-2.3119,-2.3147,-2.3052,-2.2821,-2.2685,-2.2481,-2.2274,-2.207,-2.1869,-2.1619,-2.157,-2.1551,-2.1677,-2.2041,-2.2199,-2.2039,-2.1882,-2.1683,-2.1458,-2.1429,-2.1213,-2.09,-2.09,-2.08,-2.0701,-2.1031,-2.1089,-2.0902,-2.0902,-2.0788,-2.05,-2.0443,-2.0544,-2.0658,-2.0544,-2.0615,-2.0902,-2.0743,-2.0684,-2.0699,-2.081,-2.0934,-2.0893,-2.0929,-2.0903,-2.0854,-2.0891,-2.0989,-2.1096,-2.1109,-2.1109,-2.1109,-2.1109,-2.1109,-2.1109,-2.1109,-2.1109,-2.1109,-2.1109,-2.1109,-2.1109,-2.1109,-2.1109,-2.1109,-2.1109,-2.1109,-2.1235,-2.1299,-2.1362,-2.1551,-2.1664,-2.1915,-2.223,-2.248,-2.2731,-2.3043,-2.3106,-2.3106,-2.3106,-2.3106,-2.3106,-2.3106,-2.3106,-2.3106,-2.3106,-2.3106,-2.3106,-2.3106,-2.3106,-2.3106,-2.3106,-2.3223,-2.3442,-2.3925,-2.4525,-2.4973,-2.5105,-2.5052,-2.5187,-2.4636,-2.4636,-2.4636,-2.4476,-2.4182,-2.3888,-2.3594,-2.33,-2.2993,-2.2859,-2.2859,-2.2859,-2.2859,-2.2859,-2.2859,-2.2859,-2.2859,-2.2859,-2.2752,-2.2552,-2.2539,-2.2378,-2.2098,-2.1897,-2.1697,-2.1601,-2.14,-2.138,-2.1628,-2.1853,-2.1867,-2.1734,-2.1706,-2.1614,-2.1348,-2.1306,-2.1166,-2.0886,-2.0858,-2.0746,-2.0623,-2.1002,-2.1032,-2.063,-2.0601,-2.0443,-2.0155,-2.0155,-2.027,-2.0443,-2.027,-2.027,-2.0558,-2.0412,-2.0322,-2.0419,-2.0579,-2.0722,-2.0821,-2.0999,-2.1037,-2.0877,-2.1002,-2.1109,-2.1109,-2.1109,-2.1109,-2.1109,-2.1109,-2.1109,-2.1109,-2.1109,-2.1109,-2.1109,-2.1109,-2.1109,-2.1109,-2.1109,-2.1109,-2.1109,-2.1109,-2.1109,-2.1109,-2.1109,-2.1109,-2.1172,-2.1425,-2.174,-2.2041,-2.2355,-2.2731,-2.3043,-2.3106,-2.3106,-2.3106,-2.3106,-2.3106,-2.3106,-2.3106,-2.3106,-2.3106,-2.3106,-2.3106,-2.3106,-2.3106,-2.3106,-2.3106,-2.3149,-2.334,-2.3969,-2.4635,-2.509,-2.5052,-2.5066,-2.5066,-2.4636,-2.4636,-2.4636,-2.4476,-2.4182,-2.3888,-2.3607,-2.3327,-2.3006,-2.2859,-2.2859,-2.2859,-2.2859,-2.2859,-2.2859,-2.2859,-2.2859,-2.2859,-2.2914,-2.2819,-2.2819,-2.2672,-2.2405,-2.2378,-2.2084,-2.1722,-2.1628,-2.1582,-2.1579,-2.1614,-2.179,-2.2013,-2.1999,-2.186,-2.1608,-2.1505,-2.1413,-2.1148,-2.1106,-2.1152,-2.1124,-2.1124,-2.0903,-2.0382,-2.0342,-2.0169,-1.9866,-1.9809,-1.9809,-1.9866,-1.9822,-1.9996,-2.0312,-2.033,-2.0369,-2.0643,-2.0699,-2.08,-2.1039,-2.1083,-2.1056,-2.1082,-2.1082,-2.1109,-2.1109,-2.1109,-2.1109,-2.1109,-2.1109,-2.1109,-2.1109,-2.1109,-2.1109,-2.1109,-2.1109,-2.1109,-2.1109,-2.1109,-2.1109,-2.1109,-2.1109,-2.1109,-2.1109,-2.1109,-2.1109,-2.1172,-2.1425,-2.174,-2.2104,-2.2418,-2.2731,-2.2981,-2.3106,-2.3106,-2.3106,-2.3106,-2.3106,-2.3106,-2.3106,-2.3106,-2.3106,-2.3106,-2.3106,-2.3106,-2.3106,-2.3106,-2.3106,-2.3252,-2.3501,-2.3998,-2.4613,-2.4979,-2.5052,-2.5066,-2.5066,-2.4636,-2.4636,-2.4636,-2.4569,-2.4436,-2.3981,-2.3701,-2.3567,-2.3142,-2.2859,-2.2859,-2.2859,-2.2859,-2.2859,-2.2859,-2.2859,-2.2859,-2.2859,-2.2859,-2.2859,-2.2859,-2.2874,-2.2699,-2.2512,-2.2325,-2.2111,-2.1924,-2.1748,-2.1582,-2.1393,-2.1362,-2.1425,-2.1488,-2.1357,-2.1276,-2.1262,-2.1175,-2.0917,-2.0876,-2.0795,-2.0618,-2.0591,-2.0482,-2.0278,-2.0264,-2.0072,-1.9546,-1.9533,-1.9591,-1.9822,-1.9825,-1.9933,-2.0254,-2.0278,-2.0382,-2.0665,-2.0676,-2.081,-2.1047,-2.1105,-2.1109,-2.1109,-2.1109,-2.1109,-2.1109,-2.1109,-2.1109,-2.1109,-2.1109,-2.1109,-2.1109,-2.1109,-2.1109,-2.1109,-2.1109,-2.1109,-2.1109,-2.1109,-2.1109,-2.1109,-2.1109,-2.1109,-2.1109,-2.1109,-2.1172,-2.1362,-2.1551,-2.1866,-2.2306,-2.2543,-2.2731,-2.2981,-2.3106,-2.3106,-2.3106,-2.3106,-2.3106,-2.3106,-2.3106,-2.3106,-2.3106,-2.3106,-2.3106,-2.3106,-2.3106,-2.3135,-2.3164,-2.353,-2.3764,-2.4042,-2.4657,-2.4993,-2.5052,-2.5066,-2.5066,-2.5359,-2.5286,-2.477,-2.4636,-2.4569,-2.4115,-2.3848,-2.3714,-2.3233,-2.2953,-2.2873,-2.2859,-2.2859,-2.2859,-2.2859,-2.2859,-2.2859,-2.2859,-2.2859,-2.2859,-2.2859,-2.2859,-2.2832,-2.2659,-2.2512,-2.2378,-2.2124,-2.1844,-2.1628,-2.1349,-2.1203,-2.1109,-2.1109,-2.1109,-2.1109,-2.1109,-2.1002,-2.0842,-2.0815,-2.0708,-2.0535,-2.0521,-2.0468,-2.0361,-2.0415,-2.0172,-1.9666,-1.9639,-1.9757,-1.9902,-1.9945,-2.0107,-2.0381,-2.0389,-2.0508,-2.0775,-2.0815,-2.0895,-2.1069,-2.1109,-2.1109,-2.1109,-2.1109,-2.1109,-2.1109,-2.1109,-2.1109,-2.1109,-2.1109,-2.1109,-2.1109,-2.1109,-2.1109,-2.1109,-2.1109,-2.1109,-2.1109,-2.1109,-2.1109,-2.1109,-2.1109,-2.1109,-2.1109,-2.1109,-2.1235,-2.1538,-2.1614,-2.1866,-2.2432,-2.2606,-2.2731,-2.3043,-2.3106,-2.3106,-2.3106,-2.3106,-2.3106,-2.3106,-2.3106,-2.3106,-2.3106,-2.3106,-2.3106,-2.3106,-2.3135,-2.3179,-2.3384,-2.3764,-2.4027,-2.4218,-2.4613,-2.5037,-2.5066,-2.5066,-2.5066,-2.6939,-2.6721,-2.5286,-2.4784,-2.473,-2.4361,-2.4022,-2.3768,-2.3447,-2.314,-2.2939,-2.2873,-2.2859,-2.2859,-2.2859,-2.2859,-2.2859,-2.2859,-2.2859,-2.2859,-2.2859,-2.2859,-2.2859,-2.2832,-2.2686,-2.2458,-2.2151,-2.1871,-2.1643,-2.1614,-2.139,-2.1162,-2.1122,-2.1109,-2.1109,-2.1109,-2.1109,-2.1069,-2.1056,-2.1069,-2.1096,-2.1042,-2.0909,-2.0708,-2.0717,-2.0583,-2.0241,-2.014,-2.016,-2.0174,-2.0214,-2.0374,-2.0663,-2.0668,-2.0802,-2.1015,-2.1096,-2.1096,-2.1096,-2.1109,-2.1109,-2.1109,-2.1109,-2.1109,-2.1109,-2.1109,-2.1109,-2.1109,-2.1109,-2.1109,-2.1109,-2.1109,-2.1109,-2.1109,-2.1109,-2.1109,-2.1109,-2.1109,-2.1109,-2.1109,-2.1109,-2.1109,-2.1109,-2.1109,-2.1222,-2.1488,-2.1677,-2.1853,-2.248,-2.2668,-2.2793,-2.2981,-2.3106,-2.3106,-2.3106,-2.3106,-2.3106,-2.3106,-2.3106,-2.3106,-2.3106,-2.3106,-2.3106,-2.3106,-2.3106,-2.3164,-2.3457,-2.3823,-2.4145,-2.4393,-2.4788,-2.5052,-2.5066,-2.5066,-2.5066,-2.8501,-2.8285,-2.6794,-2.6152,-2.6036,-2.4752,-2.4142,-2.4022,-2.3554,-2.3273,-2.3153,-2.2953,-2.2859,-2.2859,-2.2859,-2.2859,-2.2859,-2.2859,-2.2859,-2.2859,-2.2859,-2.2859,-2.2859,-2.2859,-2.2887,-2.2686,-2.2432,-2.2245,-2.2084,-2.1815,-2.1561,-2.1403,-2.1203,-2.1109,-2.1109,-2.1109,-2.1109,-2.1109,-2.1109,-2.1109,-2.1109,-2.1109,-2.1056,-2.0989,-2.0975,-2.0922,-2.0828,-2.0454,-2.018,-2.0254,-2.0428,-2.0668,-2.0909,-2.0975,-2.1015,-2.1082,-2.1109,-2.1109,-2.1109,-2.1109,-2.1109,-2.1109,-2.1109,-2.1109,-2.1109,-2.1109,-2.1109,-2.1109,-2.1109,-2.1109,-2.1109,-2.1109,-2.1109,-2.1109,-2.1109,-2.1109,-2.1109,-2.1109,-2.1109,-2.1109,-2.1109,-2.1109,-2.1109,-2.1109,-2.1235,-2.1538,-2.179,-2.2118,-2.248,-2.2731,-2.2918,-2.3106,-2.3106,-2.3106,-2.3106,-2.3106,-2.3106,-2.3106,-2.3106,-2.3106,-2.3106,-2.3106,-2.3106,-2.312,-2.312,-2.3281,-2.3574,-2.3896,-2.4247,-2.4525,-2.4832,-2.4979,-2.5037,-2.5066,-2.5066,-3.0075,-2.9845,-2.8357,-2.7722,-2.7563,-2.5924,-2.5146,-2.4936,-2.4022,-2.3594,-2.3447,-2.3166,-2.3033,-2.3006,-2.2981,-2.2859,-2.2859,-2.2859,-2.2859,-2.2859,-2.2859,-2.2859,-2.2859,-2.2859,-2.2859,-2.2832,-2.2672,-2.2525,-2.2405,-2.2058,-2.1764,-2.1614,-2.1427,-2.1216,-2.1122,-2.1109,-2.1109,-2.1109,-2.1109,-2.1109,-2.1109,-2.1109,-2.1109,-2.1109,-2.1109,-2.1109,-2.1082,-2.0735,-2.05,-2.0588,-2.0748,-2.0922,-2.1096,-2.1096,-2.1109,-2.1109,-2.1109,-2.1109,-2.1109,-2.1109,-2.1109,-2.1109,-2.1109,-2.1109,-2.1109,-2.1109,-2.1109,-2.1109,-2.1109,-2.1109,-2.1109,-2.1109,-2.1109,-2.1109,-2.1109,-2.1109,-2.1109,-2.1109,-2.1109,-2.1109,-2.1109,-2.1109,-2.1109,-2.1109,-2.1235,-2.1551,-2.179,-2.2104,-2.248,-2.2731,-2.2918,-2.3043,-2.3106,-2.3106,-2.3106,-2.3106,-2.3106,-2.3106,-2.3106,-2.3106,-2.3106,-2.3106,-2.3106,-2.3179,-2.3208,-2.3501,-2.3793,-2.4101,-2.4423,-2.4671,-2.4905,-2.4979,-2.5066,-2.5066,-2.5119,-3.1649,-3.1437,-2.9987,-2.9345,-2.9147,-2.7692,-2.6894,-2.6429,-2.5008,-2.4282,-2.4039,-2.349,-2.33,-2.3247,-2.2993,-2.2859,-2.2859,-2.2859,-2.2859,-2.2859,-2.2859,-2.2859,-2.2859,-2.2859,-2.2859,-2.2859,-2.2846,-2.2699,-2.2498,-2.2378,-2.2151,-2.171,-2.1681,-2.143,-2.1229,-2.1136,-2.1149,-2.1109,-2.1109,-2.1109,-2.1109,-2.1109,-2.1109,-2.1109,-2.1109,-2.1109,-2.1096,-2.1042,-2.1056,-2.1096,-2.1056,-2.1069,-2.1096,-2.1109,-2.1109,-2.1109,-2.1109,-2.1109,-2.1109,-2.1109,-2.1109,-2.1109,-2.1109,-2.1109,-2.1109,-2.1109,-2.1109,-2.1109,-2.1109,-2.1109,-2.1109,-2.1109,-2.1109,-2.1109,-2.1109,-2.1109,-2.1109,-2.1109,-2.1109,-2.1109,-2.1109,-2.1109,-2.1109,-2.1109,-2.1299,-2.1551,-2.1664,-2.2041,-2.2418,-2.2731,-2.2793,-2.2918,-2.3106,-2.3106,-2.3106,-2.3106,-2.3106,-2.3106,-2.3106,-2.312,-2.3164,-2.3179,-2.3223,-2.3281,-2.3442,-2.3735,-2.4013,-2.432,-2.4598,-2.4943,-2.5075,-2.5052,-2.5119,-2.5119,-2.5524,-3.3173,-3.3015,-3.1508,-3.0926,-3.0714,-2.9218,-2.8526,-2.8259,-2.6601,-2.5784,-2.5456,-2.402,-2.334,-2.3287,-2.3006,-2.2859,-2.2859,-2.2859,-2.2859,-2.2859,-2.2859,-2.2859,-2.2859,-2.2859,-2.2859,-2.2859,-2.2859,-2.2819,-2.2726,-2.2539,-2.2338,-2.2191,-2.1951,-2.1724,-2.1483,-2.143,-2.1309,-2.1136,-2.1109,-2.1122,-2.1122,-2.1109,-2.1109,-2.1109,-2.1109,-2.1109,-2.1109,-2.1109,-2.1109,-2.1109,-2.1109,-2.1109,-2.1109,-2.1109,-2.1109,-2.1109,-2.1109,-2.1109,-2.1109,-2.1109,-2.1109,-2.1109,-2.1109,-2.1109,-2.1109,-2.1109,-2.1109,-2.1109,-2.1109,-2.1109,-2.1109,-2.1109,-2.1109,-2.1109,-2.1109,-2.1109,-2.1109,-2.1109,-2.1109,-2.1109,-2.1109,-2.1109,-2.1109,-2.1172,-2.1235,-2.1551,-2.1853,-2.2118,-2.248,-2.2793,-2.2981,-2.2981,-2.3106,-2.3106,-2.3106,-2.3106,-2.3106,-2.3106,-2.312,-2.3135,-2.3223,-2.3325,-2.3413,-2.3515,-2.3779,-2.4057,-2.4276,-2.4525,-2.487,-2.5105,-2.5307,-2.539,-2.5255,-2.5255,-2.5965,-3.3817,-3.3747,-3.2806,-3.2438,-3.2228,-3.0785,-3.0129,-2.967,-2.767,-2.6647,-2.6157,-2.4465,-2.3514,-2.3474,-2.306,-2.2873,-2.2859,-2.2859,-2.2859,-2.2859,-2.2859,-2.2859,-2.2859,-2.2859,-2.2859,-2.2859,-2.2859,-2.2859,-2.2832,-2.2686,-2.2552,-2.2392,-2.2258,-2.2017,-2.175,-2.1724,-2.1722,-2.1496,-2.1376,-2.1296,-2.1296,-2.1162,-2.1109,-2.1109,-2.1109,-2.1109,-2.1109,-2.1109,-2.1109,-2.1109,-2.1109,-2.1109,-2.1109,-2.1109,-2.1109,-2.1109,-2.1109,-2.1109,-2.1109,-2.1109,-2.1109,-2.1109,-2.1109,-2.1109,-2.1109,-2.1109,-2.1109,-2.1109,-2.1109,-2.1109,-2.1109,-2.1109,-2.1109,-2.1109,-2.1109,-2.1109,-2.1109,-2.1109,-2.1109,-2.1109,-2.1109,-2.1109,-2.1109,-2.1235,-2.1362,-2.1614,-2.2041,-2.2292,-2.2606,-2.2918,-2.3106,-2.3106,-2.3106,-2.3106,-2.3106,-2.3106,-2.3149,-2.3149,-2.3325,-2.331,-2.3427,-2.3559,-2.3647,-2.3808,-2.4101,-2.4335,-2.451,-2.4686,-2.4876,-2.5172,-2.551,-2.5913,-2.5913,-2.6182,-2.6886,-3.3817,-3.3817,-3.3817,-3.3817,-3.3521,-3.2368,-3.1719,-3.1155,-2.8557,-2.7258,-2.6764,-2.4784,-2.3812,-2.3799,-2.3126,-2.2859,-2.2859,-2.2859,-2.2859,-2.2859,-2.2859,-2.2859,-2.2859,-2.2859,-2.2859,-2.2859,-2.2859,-2.2859,-2.2846,-2.2846,-2.2712,-2.2552,-2.2485,-2.2311,-2.2084,-2.2031,-2.2017,-2.1884,-2.1697,-2.1603,-2.1601,-2.1349,-2.1216,-2.1203,-2.1122,-2.1109,-2.1109,-2.1109,-2.1109,-2.1109,-2.1109,-2.1109,-2.1109,-2.1109,-2.1109,-2.1109,-2.1109,-2.1109,-2.1109,-2.1109,-2.1109,-2.1109,-2.1149,-2.1162,-2.1189,-2.1203,-2.1203,-2.1203,-2.1136,-2.1109,-2.1109,-2.1109,-2.1109,-2.1109,-2.1109,-2.1109,-2.1109,-2.1109,-2.1109,-2.1109,-2.1109,-2.1109,-2.1172,-2.1362,-2.1614,-2.179,-2.2167,-2.248,-2.2731,-2.2918,-2.3106,-2.3106,-2.3106,-2.3106,-2.3106,-2.3106,-2.3164,-2.3237,-2.3545,-2.3662,-2.3793,-2.3896,-2.3954,-2.4101,-2.4408,-2.4569,-2.4671,-2.4832,-2.5128,-2.5629,-2.6167,-2.682,-2.727,-2.775,-2.8394,-3.3817,-3.3817,-3.3817,-3.3817,-3.3747,-3.3451,-3.3312,-3.2945,-2.9987,-2.8541,-2.7901,-2.527,-2.3839,-2.3728,-2.3153,-2.2859,-2.2859,-2.2859,-2.2859,-2.2859,-2.2859,-2.2859,-2.2859,-2.2859,-2.2859,-2.2859,-2.2859,-2.2859,-2.2859,-2.2859,-2.2901,-2.2766,-2.2699,-2.2619,-2.2365,-2.2325,-2.2205,-2.2031,-2.1924,-2.1897,-2.1844,-2.1617,-2.1456,-2.1416,-2.1243,-2.1122,-2.1109,-2.1109,-2.1109,-2.1109,-2.1109,-2.1109,-2.1109,-2.1109,-2.1109,-2.1109,-2.1109,-2.1109,-2.1109,-2.1122,-2.1109,-2.1149,-2.1349,-2.1456,-2.1521,-2.1521,-2.1521,-2.1416,-2.1256,-2.1149,-2.1136,-2.1109,-2.1149,-2.1162,-2.1149,-2.1136,-2.1109,-2.1109,-2.1109,-2.1109,-2.1122,-2.1109,-2.1109,-2.1452,-2.1754,-2.1992,-2.2292,-2.2668,-2.2856,-2.3043,-2.3043,-2.3106,-2.3106,-2.3106,-2.3135,-2.3208,-2.3398,-2.353,-2.3823,-2.4071,-2.4203,-2.4276,-2.4349,-2.4576,-2.4797,-2.4899,-2.4847,-2.5241,-2.5495,-2.6234,-2.702,-2.7866,-2.8657,-2.9182,-2.9835,-3.3651,-3.3817,-3.3817,-3.3817,-3.3817,-3.3817,-3.3817,-3.3188,-3.0389,-2.9035,-2.8184,-2.5201,-2.3638,-2.3527,-2.31,-2.2859,-2.2859,-2.2859,-2.2859,-2.2859,-2.2859,-2.2859,-2.2859,-2.2859,-2.2859,-2.2859,-2.2859,-2.2859,-2.2859,-2.2859,-2.2859,-2.2859,-2.2859,-2.2779,-2.2645,-2.2619,-2.2552,-2.2418,-2.2245,-2.2191,-2.2138,-2.1911,-2.1657,-2.1641,-2.139,-2.1269,-2.1122,-2.1109,-2.1109,-2.1109,-2.1109,-2.1109,-2.1109,-2.1109,-2.1109,-2.1109,-2.1109,-2.1109,-2.1109,-2.1243,-2.1323,-2.1323,-2.159,-2.171,-2.1829,-2.175,-2.167,-2.1628,-2.148,-2.1309,-2.1309,-2.1162,-2.1203,-2.1443,-2.139,-2.1376,-2.1443,-2.1283,-2.1109,-2.1136,-2.1243,-2.133,-2.1443,-2.1765,-2.209,-2.2405,-2.2663,-2.2962,-2.2933,-2.3043,-2.3106,-2.3106,-2.3106,-2.312,-2.3149,-2.3325,-2.3662,-2.391,-2.4218,-2.4466,-2.4671,-2.473,-2.4774,-2.4943,-2.5069,-2.5046,-2.5061,-2.551,-2.6167,-2.6886,-2.7866,-2.8986,-3.0095,-3.0872,-3.1534,-3.3321,-3.3633,-3.3633,-3.3633,-3.3633,-3.3596,-3.3578,-3.311,-3.0369,-2.9035,-2.8084,-2.5057,-2.3703,-2.333,-2.302,-2.2873,-2.2859,-2.2859,-2.2859,-2.2859,-2.2859,-2.2859,-2.2859,-2.2859,-2.2859,-2.2859,-2.2859,-2.2859,-2.2859,-2.2859,-2.2859,-2.2859,-2.2859,-2.2846,-2.2846,-2.2859,-2.2806,-2.2739,-2.2579,-2.2485,-2.2432,-2.2205,-2.1937,-2.1762,-2.1695,-2.1483,-2.1296,-2.1203,-2.1176,-2.1109,-2.1109,-2.1109,-2.1109,-2.1109,-2.1109,-2.1109,-2.1109,-2.1149,-2.1243,-2.1403,-2.1601,-2.1668,-2.1884,-2.2031,-2.2058,-2.2044,-2.1951,-2.1804,-2.167,-2.1681,-2.1668,-2.147,-2.155,-2.1777,-2.1737,-2.1829,-2.1817,-2.1523,-2.1349,-2.1323,-2.1612,-2.1781,-2.1997,-2.2332,-2.2539,-2.2835,-2.3092,-2.3237,-2.3223,-2.3237,-2.331,-2.3354,-2.3398,-2.3486,-2.3515,-2.3706,-2.4013,-2.4268,-2.4606,-2.4878,-2.5099,-2.4949,-2.5002,-2.5181,-2.524,-2.539,-2.5913,-2.6769,-2.7419,-2.7866,-2.8903,-3.0272,-3.1515,-3.2638,-3.2975,-3.2735,-3.279,-3.279,-3.279,-3.2808,-3.2808,-3.2845,-3.2502,-3.0805,-2.9369,-2.8079,-2.5998,-2.4247,-2.3498,-2.2993,-2.2873,-2.2859,-2.2859,-2.2859,-2.2859,-2.2859,-2.2859,-2.2859,-2.2859,-2.2859,-2.2859,-2.2859,-2.2859,-2.2859,-2.2859,-2.2859,-2.2859,-2.2859,-2.2859,-2.2859,-2.2859,-2.2859,-2.2859,-2.2779,-2.2752,-2.2672,-2.2485,-2.2205,-2.1951,-2.1911,-2.1764,-2.1614,-2.1534,-2.1363,-2.1149,-2.1109,-2.1122,-2.1162,-2.1162,-2.1162,-2.1149,-2.1149,-2.1243,-2.1456,-2.1614,-2.1762,-2.1897,-2.2178,-2.2325,-2.2352,-2.2338,-2.2285,-2.2178,-2.2004,-2.1897,-2.1911,-2.1804,-2.1871,-2.1977,-2.1977,-2.1951,-2.1991,-2.2121,-2.2092,-2.2236,-2.2356,-2.238,-2.2637,-2.2855,-2.3113,-2.3364,-2.3499,-2.3691,-2.3706,-2.3706,-2.3749,-2.3764,-2.3793,-2.3881,-2.3969,-2.4188,-2.4437,-2.4643,-2.493,-2.5264,-2.536,-2.5105,-2.5187,-2.5981,-2.6368,-2.6568,-2.7219,-2.7998,-2.892,-2.9622,-3.066,-3.1707,-3.2428,-3.3102,-3.3223,-3.2404,-3.2588,-3.2606,-3.2606,-3.2606,-3.2606,-3.2606,-3.2351,-3.0796,-2.9277,-2.7736,-2.6004,-2.4422,-2.3378,-2.2953,-2.2859,-2.2859,-2.2859,-2.2859,-2.2859,-2.2859,-2.2859,-2.2859,-2.2859,-2.2859,-2.2859,-2.2859,-2.2859,-2.2859,-2.2859,-2.2859,-2.2859,-2.2859,-2.2859,-2.2859,-2.2859,-2.2859,-2.2859,-2.2859,-2.2859,-2.2859,-2.2699,-2.2498,-2.2285,-2.2191,-2.2058,-2.1844,-2.1777,-2.1724,-2.1603,-2.1577,-2.1563,-2.155,-2.1537,-2.1483,-2.1376,-2.1349,-2.147,-2.1764,-2.1897,-2.2084,-2.2205,-2.2472,-2.2632,-2.2645,-2.2632,-2.2579,-2.2405,-2.2178,-2.2058,-2.2178,-2.2098,-2.2138,-2.2352,-2.2378,-2.2351,-2.2646,-2.3262,-2.3634,-2.3658,-2.3322,-2.321,-2.3173,-2.3448,-2.3716,-2.3912,-2.405,-2.413,-2.4159,-2.4145,-2.413,-2.4151,-2.4216,-2.4485,-2.4719,-2.5126,-2.5402,-2.5508,-2.5716,-2.6054,-2.6301,-2.6435,-2.6902,-2.7618,-2.7816,-2.78,-2.8526,-2.9313,-3.0337,-3.1258,-3.1982,-3.2575,-3.3019,-3.3374,-3.3496,-3.2074,-3.2349,-3.2349,-3.2349,-3.2349,-3.2349,-3.2331,-3.2077,-3.0844,-2.9444,-2.7922,-2.6274,-2.4873,-2.3938,-2.3475,-2.327,-2.2928,-2.2859,-2.2859,-2.2859,-2.2859,-2.2859,-2.2859,-2.2859,-2.2859,-2.2859,-2.2859,-2.2859,-2.2859,-2.2859,-2.2859,-2.2859,-2.2859,-2.2859,-2.2859,-2.2859,-2.2859,-2.2859,-2.2859,-2.2859,-2.2859,-2.2846,-2.2766,-2.2539,-2.2498,-2.2365,-2.2111,-2.2071,-2.2017,-2.1951,-2.1937,-2.1951,-2.1977,-2.1977,-2.1897,-2.175,-2.1735,-2.1804,-2.2044,-2.2231,-2.2378,-2.2498,-2.2712,-2.2819,-2.2914,-2.2792,-2.2752,-2.2512,-2.2352,-2.2285,-2.2458,-2.2311,-2.2418,-2.2754,-2.2903,-2.3173,-2.3905,-2.4689,-2.5783,-2.5456,-2.4582,-2.4465,-2.4701,-2.465,-2.5084,-2.4436,-2.4525,-2.4496,-2.4525,-2.4466,-2.4503,-2.4561,-2.4678,-2.5065,-2.55,-2.6149,-2.6518,-2.6893,-2.719,-2.7535,-2.7883,-2.8213,-2.8723,-2.9117,-2.9051,-2.9165,-2.9882,-3.0613,-3.1579,-3.2365,-3.2892,-3.3228,-3.3355,-3.3476,-3.3555,-3.1469,-3.1524,-3.1543,-3.1524,-3.1561,-3.1561,-3.1543,-3.1543,-3.1247,-3.0396,-2.8924,-2.7485,-2.6588,-2.5853,-2.4858,-2.3938,-2.3201,-2.2859,-2.2859,-2.2859,-2.2859,-2.2859,-2.2859,-2.2859,-2.2859,-2.2859,-2.2859,-2.2859,-2.2859,-2.2859,-2.2859,-2.2859,-2.2859,-2.2859,-2.2859,-2.2859,-2.2859,-2.2859,-2.2859,-2.2859,-2.2859,-2.2859,-2.2901,-2.2792,-2.2752,-2.2645,-2.2405,-2.2365,-2.2285,-2.2071,-2.2031,-2.2004,-2.1991,-2.1991,-2.2124,-2.2164,-2.2138,-2.2058,-2.2325,-2.2445,-2.2552,-2.2699,-2.2832,-2.2859,-2.2859,-2.2859,-2.2832,-2.2901,-2.2794,-2.2699,-2.2807,-2.2875,-2.2874,-2.3474,-2.4139,-2.4689,-2.5315,-2.6639,-2.7635,-2.8163,-2.7605,-2.6994,-2.6814,-2.6612,-2.6424,-2.5606,-2.5069,-2.5145,-2.5301,-2.5544,-2.5646,-2.5901,-2.6102,-2.6427,-2.6656,-2.7194,-2.7604,-2.8065,-2.8592,-2.8986,-2.9313,-2.9639,-3.016,-3.0419,-3.0401,-3.0531,-3.113,-3.1918,-3.2765,-3.3165,-3.3228,-3.3292,-3.3355,-3.3516,-3.3672,-3.1377,-3.1377,-3.1377,-3.1377,-3.1377,-3.1377,-3.1377,-3.1377,-3.1377,-3.0584,-2.9199,-2.7718,-2.6321,-2.5061,-2.3992,-2.3461,-2.2996,-2.2859,-2.2859,-2.2859,-2.2859,-2.2859,-2.2859,-2.2859,-2.2859,-2.2859,-2.2859,-2.2859,-2.2859,-2.2859,-2.2859,-2.2859,-2.2859,-2.2859,-2.2859,-2.2859,-2.2859,-2.2859,-2.2859,-2.2859,-2.2859,-2.2859,-2.2859,-2.2859,-2.2859,-2.2779,-2.2699,-2.2672,-2.2619,-2.2485,-2.2485,-2.2552,-2.2552,-2.2498,-2.2565,-2.2619,-2.2565,-2.2552,-2.2659,-2.2659,-2.2739,-2.2806,-2.2859,-2.2859,-2.2859,-2.2859,-2.2859,-2.2859,-2.2859,-2.2928,-2.3201,-2.3665,-2.4006,-2.4535,-2.5532,-2.6188,-2.7039,-2.8541,-2.967,-3.0125,-3.0466,-2.9752,-2.9034,-2.8641,-2.8229,-2.7437,-2.7089,-2.7272,-2.7455,-2.7768,-2.7768,-2.7719,-2.7933,-2.8162,-2.8261,-2.8525,-2.8639,-2.9117,-3.0012,-3.0354,-3.0613,-3.1001,-3.1451,-3.1918,-3.211,-3.2301,-3.2511,-3.2702,-3.3165,-3.3292,-3.3355,-3.3418,-3.3457,-3.3789,-3.4043,-3.1377,-3.1377,-3.1377,-3.1377,-3.1377,-3.1377,-3.1377,-3.1377,-3.1377,-3.0779,-2.9657,-2.8246,-2.6121,-2.3938,-2.3597,-2.3475,-2.2928,-2.2859,-2.2859,-2.2859,-2.2859,-2.2859,-2.2859,-2.2859,-2.2859,-2.2859,-2.2859,-2.2859,-2.2859,-2.2859,-2.2859,-2.2859,-2.2859,-2.2859,-2.2859,-2.2859,-2.2859,-2.2859,-2.2859,-2.2859,-2.2859,-2.2859,-2.2859,-2.2859,-2.2859,-2.2859,-2.2859,-2.2846,-2.2846,-2.2832,-2.2874,-2.2779,-2.2792,-2.2779,-2.2779,-2.2819,-2.2779,-2.2792,-2.2819,-2.2819,-2.2859,-2.2859,-2.2859,-2.2859,-2.2859,-2.2859,-2.2859,-2.2859,-2.3461,-2.3461,-2.3734,-2.4738,-2.533,-2.6069,-2.7055,-2.7718,-2.8575,-2.9995,-3.1176,-3.1643,-3.1982,-3.2174,-3.1451,-3.0807,-3.0095,-2.9378,-2.9182,-2.9313,-2.9313,-2.9378,-2.9134,-2.8854,-2.9426,-2.9635,-2.98,-2.99,-2.99,-3.0225,-3.113,-3.1643,-3.1854,-3.2237,-3.2702,-3.3165,-3.3418,-3.3292,-3.2956,-3.3165,-3.3418,-3.3418,-3.3418,-3.3418,-3.3535,-3.3906,-3.4394,-3.1377,-3.1377,-3.1377,-3.1377,-3.1377,-3.1377,-3.1377,-3.1377,-3.1377,-3.1249,-3.0649,-2.9526,-2.7203,-2.5278,-2.4345,-2.3802,-2.2941,-2.2859,-2.2859,-2.2859,-2.2859,-2.2859,-2.2859,-2.2859,-2.2859,-2.2859,-2.2859,-2.2859,-2.2859,-2.2859,-2.2859,-2.2859,-2.2859,-2.2859,-2.2859,-2.2859,-2.2859,-2.2859,-2.2859,-2.2859,-2.2859,-2.2859,-2.2859,-2.2859,-2.2859,-2.2859,-2.2859,-2.2859,-2.2859,-2.2859,-2.2859,-2.2859,-2.2859,-2.2859,-2.2859,-2.2859,-2.2859,-2.2859,-2.2859,-2.2859,-2.2859,-2.2859,-2.2859,-2.2859,-2.2859,-2.2928,-2.2928,-2.327,-2.4196,-2.4805,-2.5263,-2.6002,-2.6871,-2.7585,-2.8509,-2.9557,-3.0354,-3.1405,-3.2447,-3.3019,-3.3165,-3.3102,-3.3038,-3.211,-3.1534,-3.0761,-3.0419,-3.0549,-3.0225,-3.016,-2.99,-2.99,-3.0678,-3.1047,-3.1304,-3.1451,-3.1662,-3.179,-3.2365,-3.2765,-3.2956,-3.3418,-3.3418,-3.3418,-3.3418,-3.3418,-3.3418,-3.3418,-3.3418,-3.3418,-3.3437,-3.3496,-3.3828,-3.4297,-3.4766,-3.1377,-3.1377,-3.1377,-3.1377,-3.1377,-3.1377,-3.1377,-3.1377,-3.1377,-3.0843,-3.013,-2.8526,-2.6855,-2.5263,-2.4006,-2.3461,-2.2928,-2.2859,-2.2941,-2.2859,-2.2859,-2.2859,-2.2859,-2.2899,-2.2859,-2.2873,-2.2873,-2.2859,-2.2859,-2.2859,-2.2859,-2.2859,-2.2886,-2.2859,-2.2859,-2.2859,-2.2859,-2.2859,-2.2859,-2.2859,-2.2859,-2.2859,-2.2859,-2.2859,-2.2859,-2.2859,-2.2859,-2.2859,-2.2859,-2.2859,-2.2859,-2.2859,-2.2859,-2.2859,-2.2859,-2.2859,-2.2859,-2.2859,-2.2859,-2.2859,-2.2859,-2.2859,-2.2859,-2.2928,-2.3133,-2.3665,-2.4074,-2.4602,-2.5465,-2.627,-2.6455,-2.7535,-2.8592,-2.9182,-2.9965,-3.1083,-3.1873,-3.2657,-3.3038,-3.3292,-3.3355,-3.3292,-3.3292,-3.3228,-3.2702,-3.2128,-3.1918,-3.1662,-3.1405,-3.1258,-3.1083,-3.1083,-3.179,-3.2174,-3.2365,-3.2892,-3.3418,-3.3418,-3.3418,-3.3418,-3.3418,-3.3418,-3.3437,-3.3418,-3.3476,-3.3555,-3.3555,-3.3457,-3.3457,-3.3516,-3.3594,-3.3672,-3.4121,-3.4668,-3.5117,-3.1377,-3.1377,-3.1377,-3.1377,-3.1377,-3.1377,-3.1377,-3.1377,-3.1377,-3.0908,-2.9805,-2.8378,-2.7254,-2.6069,-2.4926,-2.4022,-2.3927,-2.3763,-2.3487,-2.3334,-2.3249,-2.3126,-2.3126,-2.314,-2.3166,-2.3046,-2.2993,-2.2993,-2.2859,-2.2859,-2.2939,-2.2993,-2.2993,-2.2979,-2.2859,-2.2873,-2.2873,-2.2859,-2.2859,-2.2859,-2.2859,-2.2859,-2.2859,-2.2859,-2.2859,-2.2859,-2.2859,-2.2859,-2.2859,-2.2859,-2.2859,-2.2859,-2.2859,-2.2859,-2.2859,-2.2859,-2.2859,-2.2859,-2.2928,-2.2859,-2.2859,-2.2859,-2.3529,-2.3529,-2.387,-2.4805,-2.5532,-2.5801,-2.6855,-2.7784,-2.785,-2.8986,-3.0,-3.052,-3.1166,-3.2083,-3.2466,-3.3038,-3.3228,-3.3355,-3.3418,-3.3418,-3.3418,-3.3418,-3.3165,-3.2765,-3.2702,-3.2575,-3.2638,-3.2575,-3.2702,-3.2702,-3.2956,-3.3146,-3.3355,-3.3418,-3.3418,-3.3418,-3.3418,-3.3418,-3.3418,-3.3496,-3.3613,-3.373,-3.3789,-3.3789,-3.3867,-3.3984,-3.3848,-3.3672,-3.3867,-3.4121,-3.4551,-3.5098,-3.541,-3.1377,-3.1377,-3.1377,-3.1377,-3.1377,-3.1377,-3.1377,-3.1377,-3.1377,-3.1313,-3.0972,-2.9657,-2.9068,-2.8477,-2.7035,-2.6065,-2.5374,-2.5172,-2.4762,-2.4118,-2.3708,-2.3732,-2.3674,-2.3607,-2.3474,-2.3354,-2.33,-2.3193,-2.2953,-2.302,-2.3126,-2.3247,-2.33,-2.322,-2.2913,-2.2873,-2.2873,-2.2886,-2.2926,-2.2953,-2.2926,-2.2926,-2.2939,-2.2859,-2.2859,-2.2859,-2.2859,-2.2859,-2.2859,-2.2859,-2.2859,-2.2859,-2.2859,-2.2859,-2.2859,-2.2859,-2.2859,-2.2928,-2.2996,-2.2928,-2.3133,-2.3393,-2.4263,-2.494,-2.5263,-2.6121,-2.7055,-2.7187,-2.8394,-2.9134,-2.9722,-3.0325,-3.1055,-3.1653,-3.223,-3.2613,-3.2931,-3.3165,-3.3292,-3.3418,-3.3418,-3.3418,-3.3418,-3.3418,-3.3418,-3.3292,-3.3355,-3.3418,-3.3418,-3.3418,-3.3418,-3.3418,-3.3418,-3.3418,-3.3418,-3.3418,-3.3418,-3.3418,-3.3496,-3.3613,-3.373,-3.3906,-3.4023,-3.4082,-3.416,-3.4219,-3.4434,-3.4648,-3.4473,-3.4336,-3.4473,-3.4746,-3.5156,-3.5449,-3.5703,-3.1589,-3.1377,-3.1377,-3.1377,-3.1377,-3.1377,-3.1377,-3.1377,-3.1377,-3.1377,-3.1102,-2.9917,-2.9265,-2.8922,-2.8344,-2.7431,-2.6929,-2.5948,-2.5369,-2.52,-2.4435,-2.391,-2.3794,-2.3821,-2.3741,-2.3647,-2.3607,-2.3581,-2.3487,-2.3464,-2.3474,-2.3607,-2.3634,-2.3567,-2.35,-2.346,-2.3544,-2.3474,-2.346,-2.3394,-2.3193,-2.3153,-2.3073,-2.2899,-2.2886,-2.2859,-2.2859,-2.2859,-2.2859,-2.2859,-2.2859,-2.2859,-2.2859,-2.2859,-2.2859,-2.2859,-2.2928,-2.3393,-2.3938,-2.4331,-2.4331,-2.4738,-2.5532,-2.6321,-2.6522,-2.7734,-2.8328,-2.8789,-2.9722,-3.039,-3.0926,-3.0972,-3.1506,-3.1974,-3.2485,-3.2804,-3.3058,-3.3228,-3.3418,-3.3418,-3.3418,-3.3418,-3.3418,-3.3418,-3.3418,-3.3476,-3.3476,-3.3437,-3.3437,-3.3418,-3.3418,-3.3418,-3.3418,-3.3418,-3.3418,-3.3496,-3.3633,-3.373,-3.3887,-3.4043,-3.4199,-3.4316,-3.4434,-3.4512,-3.4609,-3.4707,-3.4883,-3.5019,-3.5078,-3.5078,-3.5137,-3.5156,-3.5351,-3.5625,-3.5898,-3.1974,-3.1699,-3.157,-3.157,-3.157,-3.1442,-3.1377,-3.1396,-3.1524,-3.1598,-3.1421,-3.0728,-3.0487,-3.0293,-2.9747,-2.9055,-2.878,-2.8164,-2.6606,-2.6408,-2.5398,-2.4751,-2.4318,-2.4035,-2.4035,-2.3968,-2.3901,-2.3875,-2.3714,-2.3754,-2.3821,-2.3901,-2.4008,-2.4075,-2.4022,-2.3915,-2.3799,-2.3701,-2.3674,-2.3634,-2.3487,-2.3367,-2.322,-2.306,-2.2953,-2.2859,-2.2859,-2.2859,-2.2859,-2.2859,-2.2859,-2.2859,-2.2859,-2.2859,-2.2859,-2.2859,-2.2996,-2.3597,-2.4535,-2.5599,-2.5868,-2.6671,-2.7469,-2.7784,-2.8114,-2.9199,-2.9787,-3.0325,-3.0972,-3.1184,-3.1377,-3.1442,-3.1782,-3.2313,-3.2651,-3.2969,-3.3204,-3.3394,-3.3437,-3.3437,-3.3418,-3.3418,-3.3418,-3.3418,-3.3418,-3.3496,-3.3555,-3.3535,-3.3516,-3.3516,-3.3516,-3.3496,-3.3476,-3.3476,-3.3555,-3.3652,-3.3809,-3.4023,-3.4238,-3.4453,-3.457,-3.4687,-3.4824,-3.498,-3.5156,-3.5273,-3.5293,-3.5371,-3.5469,-3.5547,-3.5586,-3.5605,-3.5605,-3.5781,-3.6016,-3.2422,-3.2358,-3.2038,-3.191,-3.1846,-3.1525,-3.1377,-3.1414,-3.1781,-3.1928,-3.1899,-3.2155,-3.2011,-3.2326,-3.2332,-3.1773,-3.0892,-3.0632,-2.9081,-2.7485,-2.6619,-2.5747,-2.4896,-2.4516,-2.4369,-2.4262,-2.4209,-2.4128,-2.3861,-2.3941,-2.4062,-2.4209,-2.4396,-2.4449,-2.4356,-2.4168,-2.3968,-2.3968,-2.3968,-2.3901,-2.3781,-2.3581,-2.342,-2.3247,-2.3073,-2.2939,-2.2886,-2.2859,-2.2859,-2.2859,-2.2859,-2.2859,-2.2859,-2.2859,-2.2859,-2.2928,-2.2928,-2.4006,-2.5196,-2.6455,-2.7784,-2.8674,-2.9199,-2.9347,-2.9657,-3.0325,-3.0714,-3.0972,-3.1313,-3.1377,-3.146,-3.1736,-3.2075,-3.2414,-3.2836,-3.3091,-3.3408,-3.3516,-3.3476,-3.3457,-3.3418,-3.3418,-3.3437,-3.3437,-3.3633,-3.3711,-3.3828,-3.3926,-3.3906,-3.3789,-3.375,-3.3633,-3.3613,-3.3574,-3.3672,-3.3887,-3.4219,-3.4512,-3.4648,-3.4824,-3.4941,-3.5117,-3.5273,-3.5488,-3.5762,-3.584,-3.5703,-3.5742,-3.5898,-3.5937,-3.5859,-3.5859,-3.582,-3.5859,-3.6035,-3.2613,-3.2422,-3.2294,-3.2102,-3.1846,-3.157,-3.1377,-3.1396,-3.1524,-3.1561,-3.1561,-3.1671,-3.2019,-3.2166,-3.2459,-3.2489,-3.22,-3.1565,-3.0156,-2.8844,-2.7578,-2.6078,-2.5139,-2.4623,-2.4556,-2.4529,-2.4476,-2.4422,-2.4396,-2.4356,-2.4356,-2.4529,-2.4583,-2.4623,-2.4569,-2.4462,-2.4382,-2.4329,-2.4302,-2.4209,-2.4102,-2.3941,-2.3701,-2.342,-2.3247,-2.3073,-2.2913,-2.2873,-2.2859,-2.2859,-2.2859,-2.2859,-2.2859,-2.2859,-2.2928,-2.3065,-2.3802,-2.5008,-2.6455,-2.7866,-2.9199,-3.026,-3.0685,-3.0797,-3.0926,-3.1073,-3.1396,-3.1433,-3.1534,-3.157,-3.1838,-3.2134,-3.2531,-3.3013,-3.3354,-3.3566,-3.3823,-3.3867,-3.3828,-3.3691,-3.3652,-3.3652,-3.3652,-3.3789,-3.3984,-3.4043,-3.4141,-3.4277,-3.4297,-3.4199,-3.4082,-3.3945,-3.3965,-3.4004,-3.4062,-3.4258,-3.4648,-3.498,-3.5098,-3.5273,-3.5488,-3.5664,-3.5801,-3.5879,-3.5957,-3.5996,-3.5976,-3.6035,-3.6035,-3.6035,-3.5976,-3.5996,-3.6035,-3.6035,-3.6035,-3.2994,-3.2804,-3.2676,-3.2422,-3.2038,-3.1717,-3.1589,-3.1607,-3.1607,-3.1634,-3.1653,-3.1836,-3.2001,-3.2258,-3.2514,-3.2759,-3.3007,-3.2552,-3.146,-3.0058,-2.8429,-2.707,-2.5932,-2.4931,-2.4623,-2.4636,-2.4636,-2.4583,-2.4636,-2.4636,-2.4623,-2.4609,-2.4636,-2.4636,-2.4609,-2.4596,-2.4609,-2.4596,-2.4583,-2.4516,-2.4409,-2.4249,-2.3901,-2.3594,-2.3434,-2.3166,-2.2995,-2.2941,-2.2859,-2.2859,-2.2859,-2.2859,-2.2859,-2.2859,-2.3393,-2.3665,-2.4399,-2.6002,-2.7585,-2.8608,-3.0,-3.1027,-3.1524,-3.1569,-3.1496,-3.146,-3.1579,-3.1616,-3.1717,-3.1838,-3.219,-3.2627,-3.3168,-3.3712,-3.3927,-3.4141,-3.4251,-3.4316,-3.4199,-3.4023,-3.3984,-3.4004,-3.4082,-3.4238,-3.4355,-3.4453,-3.4629,-3.4863,-3.4785,-3.4629,-3.4492,-3.4355,-3.4434,-3.4512,-3.459,-3.4648,-3.498,-3.5312,-3.5508,-3.5703,-3.5996,-3.6016,-3.5937,-3.5957,-3.6016,-3.6035,-3.6035,-3.6035,-3.6035,-3.6035,-3.6035,-3.6035,-3.6035,-3.6035,-3.6035,-3.3355,-3.3355,-3.3038,-3.274,-3.2422,-3.2102,-3.191,-3.1902,-3.1921,-3.1928,-3.1964,-3.2276,-3.2368,-3.2368,-3.2459,-3.2716,-3.296,-3.2888,-3.2173,-3.1386,-2.956,-2.7996,-2.6575,-2.5566,-2.5065,-2.4784,-2.4784,-2.5065,-2.4636,-2.4636,-2.4636,-2.4636,-2.4636,-2.4636,-2.4636,-2.4636,-2.4636,-2.4636,-2.4636,-2.4596,-2.4543,-2.4356,-2.4102,-2.3808,-2.3541,-2.3247,-2.3062,-2.2954,-2.2941,-2.2928,-2.2859,-2.2928,-2.2859,-2.327,-2.3938,-2.4805,-2.548,-2.6937,-2.8526,-2.9461,-3.0266,-3.1172,-3.1781,-3.1946,-3.1909,-3.1836,-3.1909,-3.1983,-3.2122,-3.244,-3.2796,-3.3134,-3.3641,-3.4208,-3.4568,-3.4654,-3.47,-3.4687,-3.4473,-3.4355,-3.4355,-3.4375,-3.4434,-3.457,-3.4766,-3.4863,-3.5098,-3.5371,-3.5332,-3.5117,-3.4941,-3.4805,-3.498,-3.5059,-3.4961,-3.5078,-3.5332,-3.5605,-3.5801,-3.5898,-3.5996,-3.6035,-3.6035,-3.6035,-3.6035,-3.6035,-3.6035,-3.6035,-3.6035,-3.6035,-3.6035,-3.6035,-3.6035,-3.6035,-3.6035,-3.3418,-3.3355,-3.3038,-3.2867,-3.274,-3.2422,-3.2102,-3.1929,-3.1957,-3.182,-3.1626,-3.1653,-3.1873,-3.2129,-3.2148,-3.2368,-3.2716,-3.2955,-3.2254,-3.1252,-2.9949,-2.879,-2.7273,-2.6678,-2.5831,-2.5286,-2.5359,-2.5639,-2.477,-2.4636,-2.4636,-2.4636,-2.4636,-2.4636,-2.4636,-2.4636,-2.4636,-2.4636,-2.4636,-2.4636,-2.4609,-2.4569,-2.4396,-2.4102,-2.3808,-2.3655,-2.3456,-2.3199,-2.3201,-2.3201,-2.2996,-2.2928,-2.2859,-2.3884,-2.4549,-2.5278,-2.6953,-2.8279,-2.9333,-3.0283,-3.1107,-3.152,-3.2019,-3.2203,-3.2294,-3.2294,-3.2349,-3.2423,-3.2611,-3.2999,-3.3425,-3.3747,-3.4089,-3.466,-3.5168,-3.5215,-3.5215,-3.5019,-3.4785,-3.4766,-3.4746,-3.4785,-3.4844,-3.4961,-3.5156,-3.5391,-3.5664,-3.5859,-3.582,-3.5664,-3.5449,-3.5371,-3.5605,-3.5644,-3.5469,-3.543,-3.5644,-3.5762,-3.5918,-3.5996,-3.6035,-3.6035,-3.6035,-3.6035,-3.6035,-3.6035,-3.6035,-3.6035,-3.6035,-3.6035,-3.6035,-3.6035,-3.6035,-3.6035,-3.6035,-3.3418,-3.3355,-3.3228,-3.3102,-3.3058,-3.274,-3.2485,-3.2294,-3.2038,-3.1782,-3.1589,-3.146,-3.1506,-3.1726,-3.1726,-3.2077,-3.2511,-3.2733,-3.26,-3.1714,-3.0611,-2.9703,-2.8759,-2.8018,-2.747,-2.6851,-2.6474,-2.6152,-2.4918,-2.4636,-2.4636,-2.4636,-2.4636,-2.4636,-2.4636,-2.4636,-2.4636,-2.4636,-2.4636,-2.4636,-2.4636,-2.4609,-2.4489,-2.4209,-2.4093,-2.3981,-2.3863,-2.3606,-2.3579,-2.3608,-2.3509,-2.3969,-2.4219,-2.4865,-2.5922,-2.7127,-2.8544,-2.9613,-3.0389,-3.1103,-3.1854,-3.2129,-3.2496,-3.2753,-3.2863,-3.2881,-3.2955,-3.301,-3.3169,-3.3543,-3.4142,-3.4526,-3.495,-3.5423,-3.5597,-3.5664,-3.5644,-3.5566,-3.5449,-3.5449,-3.5449,-3.5449,-3.5488,-3.5508,-3.5664,-3.5684,-3.5976,-3.6016,-3.6016,-3.6035,-3.5859,-3.5781,-3.5918,-3.5976,-3.5801,-3.5781,-3.5898,-3.5996,-3.6035,-3.6035,-3.6035,-3.6035,-3.6035,-3.6035,-3.6035,-3.6035,-3.6035,-3.6035,-3.6035,-3.6035,-3.6035,-3.6035,-3.6035,-3.6055,-3.6152,-3.3418,-3.3418,-3.3355,-3.3355,-3.3355,-3.3102,-3.2912,-3.2804,-3.2294,-3.1974,-3.1974,-3.1653,-3.1506,-3.1442,-3.146,-3.1894,-3.2283,-3.2524,-3.2644,-3.2643,-3.1784,-3.0891,-3.0243,-2.9764,-2.9264,-2.8315,-2.756,-2.6474,-2.5212,-2.4844,-2.4636,-2.4636,-2.4636,-2.4636,-2.4636,-2.4636,-2.4636,-2.4636,-2.4636,-2.4636,-2.4636,-2.4636,-2.4489,-2.4342,-2.4195,-2.4278,-2.4246,-2.4039,-2.4039,-2.3998,-2.4001,-2.4539,-2.538,-2.5983,-2.7568,-2.8825,-2.9843,-3.0822,-3.1588,-3.1943,-3.2331,-3.2643,-3.3046,-3.3248,-3.3321,-3.3413,-3.3468,-3.35,-3.3681,-3.4059,-3.4664,-3.5139,-3.548,-3.584,-3.5908,-3.5976,-3.5976,-3.5957,-3.5957,-3.5957,-3.5957,-3.5957,-3.5976,-3.5996,-3.6016,-3.6016,-3.6035,-3.6035,-3.6035,-3.6035,-3.5957,-3.5918,-3.5976,-3.5996,-3.5976,-3.5996,-3.6035,-3.6035,-3.6035,-3.6035,-3.6035,-3.6035,-3.6035,-3.6035,-3.6035,-3.6035,-3.6035,-3.6035,-3.6035,-3.6035,-3.6035,-3.6035,-3.6074,-3.6152,-3.6348,-3.3418,-3.3418,-3.3418,-3.3418,-3.3355,-3.3292,-3.3165,-3.2931,-3.2785,-3.2549,-3.2294,-3.223,-3.1955,-3.1442,-3.1377,-3.1746,-3.2134,-3.2385,-3.2993,-3.3273,-3.2322,-3.1806,-3.1496,-3.1148,-3.1037,-3.0026,-2.8598,-2.6925,-2.5932,-2.5139,-2.4636,-2.4636,-2.4636,-2.4636,-2.4636,-2.4636,-2.4636,-2.4636,-2.4636,-2.4636,-2.4636,-2.4636,-2.4623,-2.4489,-2.4315,-2.4426,-2.4363,-2.4031,-2.4079,-2.4123,-2.4364,-2.5144,-2.6228,-2.7424,-2.8793,-3.0173,-3.1127,-3.1715,-3.2356,-3.2478,-3.2716,-3.3046,-3.334,-3.3413,-3.3523,-3.367,-3.3707,-3.3707,-3.3909,-3.4184,-3.4696,-3.4971,-3.5245,-3.5743,-3.6016,-3.6016,-3.6016,-3.5996,-3.5996,-3.5996,-3.5996,-3.5996,-3.5996,-3.6016,-3.6016,-3.6035,-3.6035,-3.6035,-3.6035,-3.6035,-3.6035,-3.6035,-3.6035,-3.6035,-3.6016,-3.6016,-3.6035,-3.6035,-3.6035,-3.6035,-3.6035,-3.6035,-3.6035,-3.6035,-3.6035,-3.6035,-3.6035,-3.6035,-3.6035,-3.6035,-3.6035,-3.6035,-3.6094,-3.6269,-3.6504]},{"header":{"parameterUnit":"m.s-1","parameterCategory":1,"la1":31.0,"la2":29.5877,"lo1":-88.7671,"lo2":-86.6584,"dy":0.0162,"dx":0.0185,"nx":115,"ny":88,"refTime":"2026-04-01T00:00:00:Z","depth":0,"parameterNumber":3,"parameterNumberName":"V-component_of_WINDS"},"data":[0.0,0.0,0.0,0.0,0.0,0.0,0.0,0.0,0.0,0.0,0.0,0.0,0.0,0.0,0.0,0.0,0.0,0.0,0.0,0.0,0.0,0.0,0.0,0.0,0.0,0.0,0.0,0.0,0.0,0.0,0.0,0.0,0.0,0.0,0.0,0.0,0.0,0.0,0.0,0.0,0.0,0.0,0.0,0.0,0.0,0.0,0.0,0.0,0.0,0.0,0.0,0.0,0.0,0.0,0.0,0.0,0.0,0.0,0.0,0.0,0.0,0.0,0.0,0.0,0.0,0.0,0.0,0.0,0.0,0.0,0.0,0.0,0.0,0.0,0.0,0.0,0.0,0.0,0.0,0.0,0.0,0.0,0.0,0.0,0.0,0.0,0.0,0.0,0.0,0.0,0.0,0.0,0.0,0.0,0.0,0.0,0.0,0.0,0.0,0.0,0.0,0.0,0.0,0.0,0.0,0.0,0.0,0.0,0.0,0.0,0.0,0.0,0.0,0.0,0.0,0.0,0.0,0.0,0.0,0.0,0.0,0.0,0.0,0.0,0.0,0.0,0.0,0.0,0.0,0.0,0.0,0.0,0.0,0.0,0.0,0.0,0.0,0.0,0.0,0.0,0.0,0.0,0.0,0.0,0.0,0.0,0.0,0.0,0.0,0.0,0.0,0.0,0.0,0.0,0.0,0.0,0.0,0.0,0.0,0.0,0.0,0.0,0.0,0.0,0.0,0.0,0.0,0.0,0.0,0.0,0.0,0.0,0.0,0.0,0.0,0.0,0.0,0.0,0.0,0.0,0.0,0.0,0.0,0.0,0.0,0.0,0.0,0.0,0.0,0.0,0.0,0.0,0.0,0.0,0.0,0.0,0.0,0.0,0.0,0.0,0.0,0.0,0.0,0.0,0.0,0.0,0.0,0.0,0.0,0.0,0.0,0.0,0.0,0.0,0.0,0.0,0.0,0.0,0.0,0.0,0.0,0.0,0.0,0.0,0.0,0.0,0.0,0.0,0.0,0.0,0.0,0.0,0.0,0.0,0.0,0.0,0.0,0.0,0.0,0.0,0.0,0.0,0.0,0.0,0.0,0.0,0.0,0.0,0.0,0.0,0.0,0.0,0.0,0.0,0.0,0.0,0.0,0.0,0.0,0.0,0.0,0.0,0.0,0.0,0.0,0.0,0.0,0.0,0.0,0.0,0.0,0.0,0.0,0.0,0.0,0.0,0.0,0.0,0.0,0.0,0.0,0.0,0.0,0.0,0.0,0.0,0.0,0.0,0.0,0.0,0.0,0.0,0.0,0.0,0.0,0.0,0.0,0.0,0.0,0.0,0.0,0.0,0.0,0.0,0.0,0.0,0.0,0.0,0.0,0.0,0.0,0.0,0.0,0.0,0.0,0.0,0.0,0.0,0.0,0.0,0.0,0.0,0.0,0.0,0.0,0.0,0.0,0.0,0.0,0.0,0.0,0.0,0.0,0.0,0.0,0.0,0.0,0.0,0.0,0.0,0.0,0.0,0.0,0.0,0.0,0.0,0.0,0.0,0.0,0.0,0.0,0.0,0.0,0.0,0.0,0.0,0.0,0.0,0.0,0.0,0.0,0.0,0.0,0.0,0.0,0.0,0.0,0.0,0.0,0.0,0.0,0.0,0.0,0.0,0.0,0.0,0.0,0.0,0.0,0.0,0.0,0.0,0.0,0.0,0.0,0.0,0.0,0.0,0.0,0.0,0.0,0.0,0.0,0.0,0.0,0.0,0.0,0.0,0.0,0.0,0.0,0.0,0.0,0.0,0.0,0.0,0.0,0.0,0.0,0.0,0.0,0.0,0.0,0.0,0.0,0.0,0.0,0.0,0.0,0.0,0.0,0.0,0.0,0.0,0.0,0.0,0.0,0.0,0.0,0.0,0.0,0.0,0.0,0.0,0.0,0.0,0.0,0.0,0.0,0.0,0.0,0.0,0.0,0.0,0.0,0.0,0.0,0.0,0.0,0.0,0.0,0.0,0.0,0.0,0.0,0.0,0.0,0.0,0.0,0.0,0.0,0.0,0.0,0.0,0.0,0.0,0.0,0.0,0.0,0.0,0.0,0.0,0.0,0.0,0.0,0.0,0.0,0.0,0.0,0.0,0.0,0.0,0.0,0.0,0.0,0.0,0.0,0.0,0.0,0.0,0.0,0.0,0.0,0.0,0.0,0.0,0.0,0.0,0.0,0.0,0.0,0.0,0.0,0.0,0.0,0.0,0.0,0.0,0.0,0.0,0.0,0.0,0.0,0.0,0.0,0.0,0.0,0.0,0.0,0.0,0.0,0.0,0.0,0.0,0.0,0.0,0.0,0.0,0.0,0.0,0.0,0.0,0.0,0.0,0.0,0.0,0.0,0.0,0.0,0.0,0.0,0.0,0.0,0.0,0.0,0.0,0.0,0.0,0.0,0.0,0.0,0.0,0.0,0.0,0.0,0.0,0.0,0.0,0.0,0.0,0.0,0.0,0.0,0.0,0.0,0.0,0.0,0.0,0.0,0.0,0.0,0.0,0.0,0.0,0.0,0.0,0.0,0.0,0.0,0.0,0.0,0.0,0.0,0.0,0.0,0.0,0.0,0.0,0.0,0.0,0.0,0.0,0.0,0.0,0.0,0.0,0.0,0.0,0.0,0.0,0.0,0.0,0.0,0.0,0.0,0.0,0.0,0.0,0.0,0.0,0.0,0.0,0.0,0.0,0.0,0.0,0.0,0.0,0.0,0.0,0.0,0.0,0.0,0.0,0.0,0.0,0.0,0.0,0.0,0.0,0.0,0.0,0.0,0.0,0.0,0.0,0.0,0.0,0.0,0.0,0.0,0.0,0.0,0.0,0.0,0.0,0.0,0.0,0.0,0.0,0.0,0.0,0.0,0.0,0.0,0.0,0.0,0.0,0.0,0.0,0.0,0.0,0.0,0.0,0.0,0.0,0.0,0.0,0.0,0.0,0.0,0.0,0.0,0.0,0.0,0.0,0.0,0.0,0.0,0.0,0.0,0.0,0.0,0.0,0.0,0.0,0.0,0.0,0.0,0.0,0.0,0.0,0.0,0.0,0.0,0.0,0.0,0.0,0.0,0.0,0.0,0.0,0.0,0.0,0.0,0.0,0.0,0.0,0.0,0.0,0.0,0.0,0.0,0.0,0.0,0.0,0.0,0.0,0.0,0.0,0.0,0.0,0.0,0.0,0.0,0.0,0.0,0.0,0.0,0.0,0.0,0.0,0.0,0.0,0.0,0.0,0.0,0.0,0.0,0.0,0.0,0.0,0.0,0.0,0.0,0.0,0.0,0.0,0.0,0.0,0.0,0.0,0.0,0.0,0.0,0.0,0.0,0.0,0.0,0.0,0.0,0.0,0.0,0.0,0.0,0.0,0.0,0.0,0.0,0.0,0.0,0.0,0.0,0.0,0.0,0.0,0.0,0.0,0.0,0.0,0.0,0.0,0.0,0.0,0.0,0.0,0.0,0.0,0.0,0.0,0.0,0.0,0.0,0.0,0.0,0.0,0.0,0.0,0.0,0.0,0.0,0.0,0.0,0.0,0.0,0.0,0.0,0.0,0.0,0.0,0.0,0.0,0.0,0.0,0.0,0.0,0.0,0.0,0.0,0.0,0.0,0.0,0.0,0.0,0.0,0.0,0.0,0.0,0.0,0.0,0.0,0.0,0.0,0.0,0.0,0.0,0.0,0.0,0.0,0.0,0.0,0.0,0.0,0.0,0.0,0.0,0.0,0.0,0.0,0.0,0.0,0.0,0.0,0.0,0.0,0.0,0.0,0.0,0.0,0.0,0.0,0.0,0.0,0.0,0.0,0.0,0.0,0.0,0.0,0.0,0.0,0.0,0.0,0.0,0.0,0.0,0.0,0.0,0.0,0.0,0.0,0.0,0.0,0.0,0.0,0.0,0.0,0.0,0.0,0.0,0.0,0.0,0.0,0.0,0.0,0.0,0.0,0.0,0.0,0.0,0.0,0.0,0.0,0.0,0.0,0.0,0.0,0.0,0.0,0.0,0.0,0.0,0.0,0.0,0.0,0.0,0.0,0.0,0.0,0.0,0.0,0.0,0.0,0.0,0.0,0.0,0.0,0.0,0.0,0.0,0.0,0.0,0.0,0.0,0.0,0.0,0.0,0.0,0.0,0.0,0.0,0.0,0.0,0.0,0.0,0.0,0.0,0.0,0.0,0.0,0.0,0.0,0.0,0.0,0.0,0.0,0.0,0.0,0.0,0.0,0.0,0.0,0.0,0.0,0.0,0.0,2.7253,0.0,0.0,0.0,0.0,0.0,0.0,0.0,0.0,0.0,0.0,0.0,0.0,0.0,0.0,0.0,0.0,0.0,0.0,0.0,0.0,0.0,0.0,0.0,0.0,0.0,0.0,0.0,0.0,0.0,0.0,0.0,0.0,0.0,0.0,0.0,0.0,0.0,0.0,0.0,0.0,0.0,0.0,0.0,0.0,0.0,0.0,0.0,0.0,0.0,0.0,0.0,0.0,0.0,0.0,0.0,0.0,0.0,0.0,0.0,0.0,0.0,0.0,0.0,0.0,0.0,0.0,0.0,0.0,0.0,0.0,0.0,0.0,0.0,0.0,0.0,0.0,0.0,0.0,0.0,0.0,0.0,0.0,0.0,0.0,0.0,0.0,0.0,0.0,0.0,0.0,0.0,0.0,0.0,0.0,0.0,0.0,0.0,0.0,0.0,0.0,0.0,0.0,0.0,0.0,0.0,0.0,0.0,0.0,0.0,0.0,2.8732,2.8007,2.8772,2.8732,2.7868,0.0,0.0,0.0,0.0,0.0,0.0,0.0,0.0,0.0,0.0,0.0,0.0,0.0,0.0,0.0,0.0,0.0,0.0,0.0,0.0,0.0,0.0,0.0,0.0,0.0,0.0,0.0,0.0,0.0,0.0,0.0,0.0,0.0,0.0,0.0,0.0,0.0,0.0,0.0,0.0,0.0,0.0,0.0,0.0,0.0,0.0,0.0,0.0,0.0,0.0,0.0,0.0,0.0,0.0,0.0,0.0,0.0,0.0,0.0,0.0,0.0,0.0,0.0,0.0,0.0,0.0,0.0,0.0,0.0,0.0,0.0,0.0,0.0,0.0,0.0,0.0,0.0,0.0,0.0,0.0,0.0,0.0,0.0,0.0,0.0,0.0,0.0,0.0,0.0,0.0,0.0,0.0,0.0,0.0,0.0,0.0,0.0,0.0,0.0,0.0,0.0,0.0,0.0,0.0,0.0,0.0,0.0,0.0,0.0,0.0,0.0,0.0,2.8986,2.9006,2.8341,0.0,0.0,0.0,0.0,0.0,0.0,0.0,0.0,0.0,0.0,0.0,0.0,0.0,0.0,0.0,0.0,0.0,0.0,0.0,0.0,0.0,0.0,0.0,0.0,0.0,0.0,0.0,0.0,0.0,0.0,0.0,0.0,0.0,0.0,0.0,0.0,0.0,0.0,0.0,0.0,0.0,0.0,0.0,0.0,0.0,0.0,0.0,0.0,0.0,0.0,0.0,0.0,0.0,0.0,0.0,0.0,0.0,0.0,0.0,0.0,0.0,0.0,0.0,0.0,0.0,0.0,0.0,0.0,0.0,0.0,0.0,0.0,0.0,0.0,0.0,0.0,0.0,0.0,0.0,0.0,0.0,0.0,0.0,0.0,0.0,0.0,0.0,0.0,0.0,0.0,0.0,0.0,0.0,0.0,0.0,0.0,0.0,0.0,0.0,0.0,0.0,0.0,0.0,0.0,0.0,0.0,0.0,0.0,0.0,0.0,2.9033,2.8701,2.9438,0.0,2.8395,0.0,0.0,0.0,0.0,0.0,0.0,0.0,0.0,0.0,0.0,0.0,0.0,0.0,0.0,0.0,0.0,0.0,0.0,0.0,0.0,0.0,0.0,0.0,0.0,0.0,0.0,0.0,0.0,0.0,0.0,0.0,0.0,0.0,0.0,0.0,0.0,0.0,0.0,0.0,0.0,0.0,0.0,0.0,0.0,0.0,0.0,0.0,0.0,0.0,0.0,0.0,0.0,0.0,0.0,0.0,0.0,0.0,0.0,0.0,0.0,0.0,0.0,0.0,0.0,0.0,0.0,0.0,0.0,0.0,0.0,0.0,0.0,0.0,0.0,0.0,0.0,0.0,0.0,0.0,0.0,0.0,0.0,0.0,0.0,0.0,0.0,0.0,0.0,0.0,0.0,0.0,0.0,0.0,0.0,0.0,0.0,0.0,0.0,0.0,0.0,0.0,0.0,0.0,0.0,0.0,0.0,0.0,0.0,0.0,0.0,2.968,2.9194,2.9154,2.8762,0.0,0.0,0.0,0.0,0.0,0.0,0.0,0.0,0.0,0.0,0.0,0.0,0.0,0.0,0.0,0.0,0.0,0.0,0.0,0.0,0.0,0.0,0.0,0.0,0.0,0.0,0.0,0.0,0.0,0.0,0.0,0.0,0.0,0.0,0.0,0.0,0.0,0.0,0.0,0.0,0.0,0.0,0.0,0.0,0.0,0.0,0.0,0.0,0.0,0.0,0.0,0.0,0.0,0.0,0.0,0.0,0.0,0.0,0.0,0.0,0.0,0.0,0.0,0.0,0.0,0.0,0.0,0.0,0.0,0.0,0.0,0.0,0.0,0.0,0.0,0.0,0.0,0.0,0.0,0.0,0.0,0.0,0.0,0.0,0.0,0.0,0.0,0.0,0.0,0.0,0.0,0.0,0.0,0.0,0.0,0.0,0.0,0.0,0.0,0.0,0.0,0.0,0.0,0.0,0.0,0.0,0.0,0.0,0.0,0.0,2.9727,2.9943,2.9646,2.924,2.8622,2.7732,0.0,0.0,0.0,0.0,0.0,0.0,0.0,0.0,0.0,0.0,0.0,0.0,0.0,0.0,0.0,0.0,0.0,0.0,0.0,0.0,0.0,0.0,0.0,0.0,0.0,0.0,0.0,0.0,0.0,0.0,0.0,0.0,0.0,0.0,0.0,0.0,0.0,0.0,0.0,0.0,0.0,0.0,0.0,0.0,0.0,0.0,0.0,0.0,0.0,0.0,0.0,0.0,0.0,0.0,0.0,0.0,0.0,0.0,0.0,0.0,0.0,0.0,0.0,0.0,0.0,0.0,0.0,0.0,0.0,0.0,0.0,0.0,0.0,0.0,0.0,0.0,0.0,0.0,0.0,0.0,0.0,0.0,0.0,0.0,0.0,0.0,0.0,0.0,0.0,0.0,0.0,0.0,0.0,0.0,0.0,0.0,0.0,0.0,0.0,0.0,0.0,0.0,0.0,0.0,0.0,0.0,0.0,0.0,3.0228,2.9626,2.9524,3.0069,3.0008,2.9302,0.0,0.0,0.0,0.0,0.0,0.0,0.0,0.0,0.0,0.0,0.0,0.0,0.0,0.0,0.0,0.0,0.0,0.0,0.0,0.0,0.0,0.0,0.0,0.0,0.0,0.0,0.0,0.0,0.0,0.0,0.0,0.0,0.0,0.0,0.0,0.0,0.0,0.0,0.0,0.0,0.0,0.0,0.0,0.0,0.0,0.0,0.0,0.0,0.0,0.0,0.0,0.0,0.0,0.0,0.0,0.0,0.0,0.0,0.0,0.0,0.0,0.0,0.0,0.0,0.0,0.0,0.0,0.0,0.0,0.0,0.0,0.0,0.0,0.0,0.0,0.0,0.0,0.0,0.0,0.0,0.0,0.0,0.0,0.0,0.0,0.0,0.0,0.0,0.0,0.0,0.0,0.0,0.0,0.0,0.0,0.0,0.0,0.0,0.0,0.0,0.0,0.0,0.0,0.0,0.0,0.0,0.0,0.0,0.0,2.9224,2.9321,2.9889,3.0748,2.9369,2.8481,0.0,0.0,0.0,0.0,0.0,0.0,0.0,0.0,0.0,0.0,0.0,0.0,0.0,0.0,0.0,0.0,0.0,0.0,0.0,0.0,0.0,0.0,0.0,0.0,0.0,0.0,0.0,0.0,0.0,0.0,0.0,0.0,0.0,0.0,0.0,0.0,0.0,0.0,0.0,0.0,0.0,0.0,0.0,0.0,0.0,0.0,0.0,0.0,0.0,0.0,0.0,0.0,0.0,0.0,0.0,0.0,0.0,0.0,0.0,0.0,0.0,0.0,0.0,0.0,0.0,0.0,0.0,0.0,0.0,0.0,0.0,0.0,0.0,0.0,0.0,0.0,0.0,0.0,0.0,0.0,0.0,0.0,0.0,0.0,0.0,0.0,0.0,0.0,0.0,0.0,0.0,0.0,0.0,0.0,0.0,0.0,0.0,0.0,0.0,0.0,0.0,0.0,0.0,0.0,0.0,0.0,0.0,0.0,0.0,2.917,0.0,3.0283,3.0608,2.9143,2.8112,0.0,0.0,0.0,0.0,0.0,0.0,0.0,0.0,0.0,0.0,0.0,0.0,0.0,0.0,0.0,0.0,0.0,0.0,0.0,0.0,0.0,0.0,0.0,0.0,0.0,0.0,0.0,0.0,0.0,0.0,0.0,0.0,0.0,0.0,0.0,0.0,0.0,0.0,0.0,0.0,0.0,0.0,0.0,0.0,0.0,0.0,0.0,0.0,0.0,0.0,0.0,0.0,0.0,0.0,0.0,0.0,0.0,0.0,0.0,0.0,0.0,0.0,0.0,0.0,0.0,0.0,0.0,0.0,0.0,0.0,0.0,0.0,0.0,0.0,0.0,0.0,0.0,0.0,0.0,0.0,0.0,0.0,0.0,0.0,0.0,0.0,0.0,0.0,0.0,0.0,0.0,0.0,0.0,0.0,0.0,0.0,0.0,0.0,0.0,0.0,0.0,0.0,0.0,0.0,0.0,0.0,0.0,0.0,2.9197,3.0337,3.0934,3.0724,2.9583,2.9475,2.8356,0.0,0.0,0.0,0.0,0.0,0.0,0.0,0.0,0.0,0.0,0.0,0.0,0.0,0.0,0.0,0.0,0.0,0.0,0.0,0.0,0.0,0.0,0.0,0.0,0.0,0.0,0.0,0.0,0.0,0.0,0.0,0.0,0.0,0.0,0.0,0.0,0.0,0.0,0.0,0.0,0.0,0.0,0.0,0.0,0.0,0.0,0.0,0.0,0.0,0.0,0.0,0.0,0.0,0.0,0.0,0.0,0.0,0.0,0.0,0.0,0.0,0.0,0.0,0.0,0.0,0.0,0.0,0.0,0.0,0.0,0.0,0.0,0.0,0.0,0.0,0.0,0.0,0.0,0.0,0.0,0.0,0.0,0.0,0.0,0.0,0.0,0.0,0.0,0.0,0.0,0.0,0.0,0.0,0.0,0.0,0.0,0.0,0.0,0.0,0.0,0.0,0.0,0.0,0.0,0.0,0.0,0.0,0.0,0.0,2.9767,3.0364,3.0717,3.069,2.9556,2.8741,0.0,0.0,0.0,0.0,0.0,0.0,0.0,0.0,0.0,0.0,0.0,0.0,0.0,0.0,0.0,0.0,0.0,0.0,0.0,0.0,0.0,0.0,0.0,0.0,0.0,0.0,0.0,0.0,0.0,0.0,0.0,0.0,0.0,0.0,0.0,0.0,0.0,0.0,0.0,0.0,0.0,0.0,0.0,0.0,0.0,0.0,0.0,0.0,0.0,0.0,0.0,0.0,0.0,0.0,0.0,0.0,0.0,0.0,0.0,0.0,0.0,0.0,0.0,0.0,0.0,0.0,0.0,0.0,0.0,0.0,0.0,0.0,0.0,0.0,0.0,0.0,0.0,0.0,0.0,0.0,0.0,0.0,0.0,0.0,0.0,0.0,0.0,0.0,0.0,0.0,0.0,0.0,0.0,0.0,0.0,0.0,0.0,0.0,0.0,0.0,0.0,0.0,0.0,0.0,0.0,0.0,0.0,0.0,0.0,3.0561,3.1097,3.1368,3.1314,2.9984,2.9116,2.879,0.0,0.0,0.0,0.0,0.0,0.0,0.0,0.0,0.0,0.0,0.0,0.0,0.0,0.0,0.0,0.0,0.0,0.0,0.0,0.0,0.0,0.0,0.0,0.0,0.0,0.0,0.0,0.0,0.0,0.0,0.0,0.0,0.0,0.0,0.0,0.0,0.0,0.0,0.0,0.0,0.0,0.0,0.0,0.0,0.0,0.0,0.0,0.0,0.0,0.0,0.0,0.0,0.0,0.0,0.0,0.0,0.0,0.0,0.0,0.0,0.0,0.0,0.0,0.0,0.0,0.0,0.0,0.0,0.0,0.0,0.0,0.0,0.0,0.0,0.0,0.0,0.0,0.0,0.0,0.0,0.0,0.0,0.0,0.0,0.0,0.0,0.0,0.0,0.0,0.0,0.0,0.0,0.0,0.0,0.0,0.0,0.0,0.0,0.0,0.0,0.0,0.0,0.0,0.0,0.0,0.0,0.0,0.0,3.2246,3.287,3.2653,3.1504,3.0825,2.9659,0.0,0.0,0.0,0.0,0.0,0.0,0.0,0.0,0.0,0.0,0.0,0.0,0.0,0.0,0.0,0.0,0.0,0.0,0.0,0.0,0.0,0.0,0.0,0.0,0.0,0.0,0.0,0.0,0.0,0.0,0.0,0.0,0.0,0.0,0.0,0.0,0.0,0.0,0.0,0.0,0.0,0.0,0.0,0.0,0.0,0.0,0.0,0.0,0.0,0.0,0.0,0.0,0.0,0.0,0.0,0.0,0.0,0.0,0.0,0.0,0.0,0.0,0.0,0.0,0.0,0.0,0.0,0.0,0.0,0.0,0.0,0.0,0.0,0.0,0.0,0.0,0.0,0.0,0.0,0.0,0.0,0.0,0.0,0.0,0.0,0.0,0.0,0.0,0.0,0.0,0.0,0.0,0.0,0.0,0.0,0.0,0.0,0.0,0.0,0.0,0.0,0.0,0.0,0.0,0.0,0.0,0.0,0.0,0.0,3.2843,3.3837,3.4,3.3203,3.1829,3.0853,0.0,0.0,0.0,0.0,0.0,0.0,0.0,0.0,0.0,0.0,0.0,0.0,0.0,0.0,0.0,0.0,0.0,0.0,0.0,0.0,0.0,0.0,0.0,0.0,0.0,0.0,0.0,0.0,0.0,0.0,0.0,0.0,0.0,0.0,0.0,0.0,0.0,0.0,0.0,0.0,0.0,0.0,0.0,0.0,0.0,0.0,0.0,0.0,0.0,0.0,0.0,0.0,0.0,0.0,0.0,0.0,0.0,0.0,0.0,0.0,0.0,0.0,0.0,0.0,0.0,0.0,0.0,0.0,0.0,0.0,0.0,0.0,0.0,0.0,0.0,0.0,0.0,0.0,0.0,0.0,0.0,0.0,0.0,0.0,0.0,0.0,0.0,0.0,0.0,0.0,0.0,0.0,0.0,0.0,0.0,0.0,0.0,0.0,0.0,0.0,0.0,0.0,0.0,0.0,0.0,0.0,0.0,0.0,3.2236,3.343,3.4597,3.4992,3.4666,3.3213,3.2074,0.0,0.0,0.0,0.0,0.0,0.0,0.0,0.0,0.0,0.0,0.0,0.0,0.0,0.0,0.0,0.0,0.0,0.0,0.0,0.0,0.0,0.0,0.0,0.0,0.0,0.0,0.0,0.0,0.0,0.0,0.0,0.0,0.0,0.0,0.0,0.0,0.0,0.0,0.0,0.0,0.0,0.0,0.0,0.0,0.0,0.0,0.0,0.0,0.0,0.0,0.0,0.0,0.0,0.0,0.0,0.0,0.0,0.0,0.0,0.0,0.0,0.0,0.0,0.0,0.0,0.0,0.0,0.0,0.0,0.0,0.0,0.0,0.0,0.0,0.0,0.0,0.0,0.0,0.0,0.0,0.0,0.0,0.0,0.0,0.0,0.0,0.0,0.0,0.0,0.0,0.0,0.0,0.0,0.0,0.0,0.0,0.0,0.0,0.0,0.0,0.0,0.0,0.0,0.0,0.0,0.0,0.0,0.0,3.2907,3.4027,3.514,3.571,3.5683,3.4543,3.3105,0.0,0.0,0.0,0.0,0.0,0.0,0.0,0.0,0.0,0.0,0.0,0.0,0.0,0.0,0.0,0.0,0.0,0.0,0.0,0.0,0.0,0.0,0.0,0.0,0.0,0.0,0.0,0.0,0.0,0.0,0.0,0.0,0.0,0.0,0.0,0.0,0.0,0.0,0.0,0.0,0.0,0.0,0.0,0.0,0.0,0.0,0.0,0.0,0.0,0.0,0.0,0.0,0.0,0.0,0.0,0.0,0.0,0.0,0.0,0.0,0.0,0.0,0.0,0.0,0.0,0.0,0.0,0.0,0.0,0.0,0.0,0.0,0.0,0.0,0.0,0.0,0.0,0.0,0.0,0.0,0.0,0.0,0.0,0.0,0.0,0.0,0.0,0.0,0.0,0.0,0.0,0.0,0.0,0.0,0.0,0.0,0.0,0.0,0.0,0.0,0.0,0.0,0.0,0.0,0.0,0.0,0.0,0.0,3.3843,3.4886,3.5437,3.571,3.571,3.4174,3.2898,0.0,0.0,0.0,0.0,0.0,0.0,0.0,0.0,0.0,0.0,0.0,0.0,0.0,0.0,0.0,0.0,0.0,0.0,0.0,0.0,0.0,0.0,0.0,0.0,0.0,0.0,0.0,0.0,0.0,0.0,0.0,0.0,0.0,0.0,0.0,0.0,0.0,0.0,0.0,0.0,0.0,0.0,0.0,0.0,0.0,0.0,0.0,0.0,3.2987,0.0,0.0,0.0,0.0,0.0,0.0,0.0,0.0,0.0,0.0,0.0,0.0,0.0,0.0,0.0,0.0,0.0,0.0,0.0,0.0,0.0,0.0,0.0,0.0,0.0,0.0,0.0,0.0,0.0,0.0,0.0,0.0,0.0,0.0,0.0,0.0,0.0,0.0,0.0,0.0,0.0,0.0,0.0,0.0,0.0,0.0,0.0,0.0,0.0,0.0,0.0,0.0,0.0,0.0,0.0,0.0,0.0,0.0,0.0,3.4602,3.5349,3.5991,3.6211,3.5991,3.4854,3.3711,0.0,0.0,0.0,0.0,0.0,0.0,0.0,0.0,0.0,0.0,0.0,0.0,0.0,0.0,0.0,0.0,0.0,0.0,0.0,0.0,0.0,0.0,0.0,0.0,0.0,0.0,0.0,0.0,0.0,0.0,0.0,0.0,0.0,0.0,0.0,0.0,0.0,0.0,0.0,0.0,0.0,0.0,0.0,0.0,0.0,0.0,0.0,0.0,0.0,0.0,0.0,0.0,0.0,0.0,0.0,0.0,0.0,0.0,0.0,0.0,0.0,0.0,0.0,0.0,0.0,0.0,0.0,0.0,0.0,0.0,0.0,0.0,0.0,0.0,0.0,0.0,0.0,0.0,0.0,0.0,0.0,0.0,0.0,0.0,0.0,0.0,0.0,0.0,0.0,0.0,0.0,0.0,0.0,0.0,0.0,0.0,0.0,0.0,0.0,0.0,0.0,0.0,0.0,0.0,0.0,0.0,0.0,3.4667,3.5677,3.6217,3.6936,3.7066,3.6642,3.6075,3.4986,3.3502,0.0,0.0,0.0,0.0,0.0,0.0,0.0,0.0,0.0,0.0,0.0,0.0,0.0,0.0,0.0,0.0,0.0,0.0,0.0,0.0,0.0,0.0,0.0,0.0,0.0,0.0,0.0,0.0,0.0,0.0,0.0,0.0,0.0,0.0,0.0,0.0,0.0,0.0,3.3271,3.549,0.0,0.0,0.0,0.0,0.0,0.0,0.0,0.0,3.6394,0.0,0.0,0.0,0.0,0.0,0.0,0.0,0.0,0.0,0.0,0.0,0.0,0.0,0.0,0.0,0.0,0.0,0.0,0.0,0.0,0.0,0.0,0.0,0.0,0.0,0.0,0.0,0.0,0.0,0.0,0.0,0.0,0.0,0.0,0.0,0.0,0.0,0.0,0.0,0.0,0.0,0.0,0.0,0.0,0.0,0.0,0.0,0.0,0.0,0.0,0.0,0.0,0.0,0.0,0.0,0.0,3.6946,3.7482,3.8256,3.9215,3.8832,3.8245,3.7606,3.706,3.6133,3.4827,0.0,0.0,0.0,0.0,0.0,0.0,0.0,0.0,0.0,0.0,0.0,0.0,0.0,0.0,0.0,0.0,0.0,0.0,0.0,0.0,0.0,0.0,0.0,0.0,0.0,0.0,0.0,0.0,0.0,0.0,0.0,0.0,0.0,0.0,0.0,0.0,0.0,0.0,0.0,3.8314,3.8871,0.0,0.0,0.0,0.0,0.0,0.0,0.0,0.0,3.6466,0.0,0.0,0.0,0.0,0.0,0.0,0.0,0.0,0.0,0.0,0.0,0.0,0.0,0.0,0.0,0.0,0.0,0.0,0.0,0.0,0.0,0.0,0.0,0.0,0.0,0.0,0.0,0.0,0.0,0.0,0.0,0.0,0.0,0.0,0.0,0.0,0.0,0.0,0.0,0.0,0.0,0.0,0.0,0.0,0.0,0.0,0.0,0.0,0.0,0.0,0.0,0.0,0.0,0.0,0.0,3.7353,3.8772,3.9907,4.0681,4.025,3.9698,3.9098,3.8156,3.6896,0.0,0.0,0.0,0.0,0.0,0.0,0.0,0.0,0.0,0.0,0.0,0.0,0.0,0.0,0.0,0.0,0.0,0.0,0.0,0.0,0.0,0.0,0.0,0.0,0.0,0.0,0.0,0.0,0.0,0.0,0.0,0.0,0.0,0.0,0.0,0.0,0.0,0.0,0.0,0.0,4.0043,4.0732,4.1314,0.0,0.0,0.0,0.0,0.0,0.0,3.8403,3.7624,0.0,0.0,0.0,0.0,0.0,0.0,0.0,0.0,0.0,0.0,0.0,0.0,0.0,0.0,0.0,0.0,0.0,0.0,0.0,0.0,0.0,0.0,0.0,0.0,0.0,0.0,0.0,0.0,0.0,0.0,0.0,0.0,0.0,0.0,0.0,0.0,0.0,0.0,0.0,0.0,0.0,0.0,0.0,0.0,0.0,0.0,0.0,0.0,0.0,0.0,0.0,0.0,0.0,0.0,0.0,3.76,3.9852,4.1365,4.2008,4.1618,4.1115,4.0577,3.9319,3.7674,0.0,0.0,0.0,0.0,0.0,0.0,0.0,0.0,0.0,0.0,0.0,0.0,0.0,0.0,0.0,0.0,0.0,0.0,0.0,0.0,0.0,0.0,0.0,0.0,0.0,0.0,0.0,0.0,0.0,0.0,0.0,0.0,0.0,0.0,0.0,0.0,0.0,0.0,0.0,0.0,0.0,4.2441,4.2816,4.1683,0.0,0.0,0.0,0.0,4.083,4.0419,0.0,0.0,0.0,0.0,0.0,0.0,0.0,0.0,0.0,0.0,0.0,0.0,0.0,0.0,0.0,0.0,0.0,0.0,0.0,0.0,0.0,0.0,0.0,0.0,0.0,0.0,0.0,0.0,0.0,0.0,0.0,0.0,0.0,0.0,0.0,0.0,0.0,0.0,0.0,0.0,0.0,0.0,0.0,0.0,0.0,0.0,0.0,0.0,0.0,0.0,0.0,0.0,0.0,0.0,0.0,0.0,3.9517,4.1473,4.3088,4.4181,4.3216,4.2345,4.1635,4.0375,3.8852,0.0,0.0,0.0,0.0,0.0,0.0,0.0,0.0,0.0,0.0,0.0,0.0,0.0,0.0,0.0,0.0,0.0,0.0,0.0,0.0,0.0,0.0,0.0,0.0,0.0,0.0,0.0,0.0,0.0,0.0,0.0,0.0,0.0,0.0,0.0,0.0,0.0,0.0,0.0,0.0,0.0,4.3513,4.3576,4.2378,4.1715,0.0,0.0,4.1494,4.2315,4.3864,0.0,0.0,0.0,0.0,0.0,0.0,0.0,0.0,0.0,0.0,0.0,0.0,0.0,0.0,0.0,0.0,0.0,0.0,0.0,0.0,0.0,0.0,0.0,0.0,0.0,0.0,0.0,0.0,0.0,0.0,0.0,0.0,0.0,0.0,0.0,0.0,0.0,0.0,0.0,0.0,0.0,0.0,0.0,0.0,0.0,0.0,0.0,0.0,0.0,0.0,0.0,0.0,0.0,0.0,0.0,3.7901,4.0256,4.228,4.3927,4.5254,4.4409,4.3576,4.289,4.1208,3.9256,0.0,0.0,0.0,0.0,0.0,0.0,0.0,0.0,0.0,0.0,0.0,0.0,0.0,0.0,0.0,0.0,0.0,0.0,0.0,0.0,0.0,0.0,0.0,0.0,0.0,0.0,0.0,0.0,0.0,0.0,0.0,0.0,0.0,0.0,0.0,0.0,0.0,0.0,0.0,0.0,0.0,0.0,4.4338,4.4117,0.0,0.0,0.0,4.3011,4.3706,0.0,0.0,0.0,0.0,0.0,0.0,0.0,0.0,0.0,0.0,0.0,0.0,0.0,0.0,0.0,0.0,0.0,0.0,0.0,0.0,0.0,0.0,0.0,0.0,0.0,0.0,0.0,0.0,0.0,0.0,0.0,0.0,0.0,0.0,0.0,0.0,0.0,0.0,0.0,0.0,0.0,0.0,0.0,0.0,0.0,0.0,0.0,0.0,0.0,0.0,0.0,0.0,0.0,0.0,0.0,0.0,0.0,4.083,4.2884,4.4527,4.5728,4.5096,4.4369,4.3674,4.1841,0.0,0.0,0.0,0.0,0.0,0.0,0.0,0.0,0.0,0.0,0.0,0.0,0.0,0.0,0.0,0.0,0.0,0.0,0.0,0.0,0.0,0.0,0.0,0.0,0.0,0.0,0.0,3.1426,0.0,0.0,0.0,0.0,0.0,0.0,0.0,0.0,0.0,0.0,0.0,0.0,0.0,0.0,4.5698,4.5285,4.573,4.6207,0.0,0.0,4.4938,4.5448,4.6275,4.5798,0.0,0.0,0.0,0.0,0.0,0.0,0.0,0.0,0.0,0.0,0.0,0.0,0.0,0.0,0.0,0.0,0.0,0.0,0.0,0.0,0.0,0.0,0.0,0.0,0.0,0.0,0.0,0.0,0.0,0.0,0.0,0.0,0.0,0.0,0.0,0.0,0.0,0.0,0.0,0.0,0.0,0.0,0.0,0.0,0.0,0.0,0.0,0.0,0.0,0.0,0.0,0.0,0.0,0.0,3.9439,4.1494,4.3579,4.5033,4.576,4.5096,4.4401,4.3703,4.2315,4.032,0.0,0.0,0.0,0.0,0.0,0.0,0.0,0.0,0.0,0.0,0.0,0.0,0.0,0.0,0.0,0.0,0.0,0.0,0.0,0.0,0.0,0.0,0.0,0.0,0.0,0.0,0.0,0.0,0.0,0.0,0.0,0.0,0.0,0.0,0.0,0.0,0.0,0.0,0.0,0.0,0.0,4.6047,4.6662,4.6791,4.7343,0.0,4.822,4.7734,4.7767,5.0515,5.0644,4.456,0.0,0.0,0.0,0.0,0.0,0.0,0.0,0.0,0.0,0.0,0.0,0.0,0.0,0.0,0.0,0.0,0.0,0.0,0.0,0.0,0.0,0.0,0.0,0.0,0.0,0.0,0.0,0.0,0.0,0.0,0.0,0.0,0.0,0.0,0.0,0.0,0.0,0.0,0.0,0.0,0.0,0.0,0.0,0.0,0.0,0.0,0.0,0.0,0.0,0.0,0.0,0.0,0.0,3.9927,4.1532,4.4066,4.5736,4.6442,4.6185,4.5544,4.442,4.3393,4.1405,0.0,0.0,0.0,0.0,0.0,0.0,0.0,0.0,0.0,0.0,0.0,0.0,0.0,0.0,0.0,0.0,0.0,0.0,0.0,0.0,0.0,0.0,0.0,0.0,0.0,0.0,0.0,0.0,3.4862,3.5051,3.5075,0.0,0.0,0.0,0.0,0.0,0.0,0.0,0.0,0.0,0.0,4.673,4.7478,4.832,0.0,0.0,4.9098,4.868,4.8644,4.9386,4.8706,4.5015,4.4075,0.0,0.0,0.0,0.0,0.0,0.0,0.0,0.0,0.0,0.0,0.0,0.0,0.0,0.0,0.0,0.0,0.0,0.0,0.0,0.0,0.0,0.0,0.0,0.0,0.0,0.0,0.0,0.0,0.0,0.0,0.0,0.0,0.0,0.0,0.0,0.0,0.0,0.0,0.0,0.0,0.0,0.0,0.0,0.0,0.0,0.0,0.0,0.0,0.0,0.0,0.0,0.0,4.0351,4.1488,4.4528,4.6374,4.686,4.6927,4.6309,4.5111,4.4205,4.2325,0.0,0.0,0.0,0.0,0.0,0.0,0.0,0.0,0.0,0.0,0.0,0.0,0.0,0.0,0.0,0.0,0.0,0.0,0.0,0.0,0.0,0.0,0.0,0.0,0.0,0.0,0.0,0.0,3.6141,3.5909,3.5711,0.0,0.0,0.0,0.0,0.0,0.0,0.0,0.0,0.0,0.0,4.7593,4.8507,4.9485,5.0138,5.0138,4.9714,4.9355,4.9059,4.9156,4.8276,4.5538,0.0,0.0,0.0,0.0,0.0,0.0,0.0,0.0,0.0,0.0,0.0,0.0,0.0,0.0,0.0,0.0,0.0,0.0,0.0,0.0,0.0,0.0,0.0,0.0,0.0,0.0,0.0,4.1319,0.0,0.0,4.0227,0.0,0.0,0.0,0.0,0.0,0.0,0.0,0.0,0.0,0.0,0.0,0.0,0.0,0.0,0.0,0.0,0.0,0.0,0.0,0.0,0.0,0.0,4.0804,4.1551,4.508,4.6894,4.6927,4.6927,4.657,4.5793,4.4431,4.3005,4.1478,0.0,0.0,0.0,0.0,0.0,0.0,0.0,0.0,0.0,0.0,0.0,0.0,0.0,0.0,0.0,0.0,0.0,0.0,0.0,0.0,0.0,0.0,0.0,0.0,0.0,0.0,3.7168,3.6439,3.5768,0.0,0.0,0.0,0.0,0.0,0.0,0.0,0.0,0.0,4.4291,4.6545,4.8498,4.9921,5.0186,5.0219,5.0252,5.0219,4.9921,4.9259,5.085,5.0817,0.0,0.0,0.0,0.0,0.0,0.0,0.0,0.0,0.0,0.0,0.0,0.0,0.0,0.0,0.0,0.0,0.0,0.0,0.0,0.0,0.0,0.0,0.0,0.0,0.0,0.0,0.0,4.4026,4.287,0.0,0.0,0.0,0.0,0.0,0.0,0.0,0.0,0.0,0.0,0.0,4.328,4.3714,0.0,0.0,0.0,0.0,0.0,0.0,0.0,0.0,0.0,0.0,0.0,0.0,4.1457,4.2282,4.5763,4.7637,4.7605,4.7605,4.7276,4.6552,4.5598,4.3493,4.017,0.0,0.0,0.0,0.0,0.0,0.0,0.0,0.0,0.0,0.0,0.0,0.0,0.0,0.0,0.0,0.0,0.0,0.0,0.0,0.0,0.0,0.0,0.0,0.0,0.0,3.9156,0.0,0.0,0.0,0.0,0.0,0.0,0.0,0.0,0.0,0.0,0.0,4.3722,4.5456,4.756,4.9258,5.0272,5.0815,5.1321,0.0,0.0,0.0,0.0,0.0,0.0,0.0,0.0,0.0,0.0,0.0,0.0,0.0,0.0,4.8361,4.2535,4.1013,4.0824,4.1571,0.0,0.0,0.0,0.0,0.0,0.0,0.0,0.0,0.0,0.0,0.0,0.0,0.0,0.0,4.5435,4.4571,4.4304,0.0,0.0,0.0,0.0,0.0,0.0,0.0,0.0,4.5584,4.628,4.5701,4.6136,4.5734,4.462,4.4047,4.2078,0.0,0.0,0.0,0.0,0.0,0.0,0.0,0.0,4.1877,4.2969,4.6278,4.8001,4.8001,4.8001,4.7769,4.7272,4.6311,4.4092,4.0547,3.9255,3.7698,0.0,0.0,0.0,0.0,0.0,0.0,0.0,0.0,0.0,0.0,0.0,0.0,0.0,0.0,0.0,0.0,0.0,0.0,0.0,0.0,0.0,0.0,0.0,4.0256,0.0,0.0,0.0,0.0,0.0,0.0,0.0,0.0,0.0,4.3162,4.4397,4.6086,4.8155,4.9613,5.0656,5.1142,0.0,0.0,0.0,0.0,0.0,0.0,0.0,5.0707,4.9545,4.9403,4.9697,5.0322,5.1832,5.2872,5.2671,0.0,0.0,4.5892,4.4356,4.4228,4.5177,4.5734,4.6258,4.6978,4.7664,4.8024,0.0,0.0,0.0,0.0,4.7544,0.0,0.0,0.0,4.6938,4.6636,0.0,4.5835,0.0,0.0,0.0,0.0,4.2299,4.5119,0.0,0.0,4.8644,4.935,4.8711,4.8709,4.8341,4.7799,4.8848,4.7656,4.4298,4.1352,0.0,0.0,0.0,0.0,0.0,0.0,4.2237,4.3794,4.6576,4.8001,4.8034,4.8001,4.8001,4.7901,4.6576,4.4787,4.2634,4.1806,4.015,3.7367,3.6506,0.0,0.0,0.0,0.0,0.0,0.0,0.0,0.0,0.0,0.0,0.0,0.0,0.0,0.0,0.0,0.0,0.0,0.0,0.0,0.0,4.0447,0.0,0.0,0.0,0.0,0.0,0.0,0.0,0.0,0.0,0.0,4.609,4.7212,4.9176,5.2079,0.0,0.0,0.0,0.0,5.216,5.1708,5.1483,5.1437,5.136,5.3065,5.3836,5.2217,0.0,0.0,5.3389,5.3734,5.4044,5.3355,5.3806,5.3784,5.2692,5.1053,5.0189,5.0255,5.0289,5.0587,5.1284,5.1885,5.2348,5.2135,0.0,0.0,0.0,0.0,5.0056,5.0726,5.21,5.1397,5.0491,4.9453,4.9252,0.0,0.0,0.0,0.0,0.0,0.0,4.929,4.9507,5.1182,5.2181,5.2582,5.2552,5.2478,5.2264,5.1568,5.0167,4.8178,4.7106,4.3829,3.8482,0.0,0.0,0.0,0.0,4.4171,4.6101,4.7369,4.8266,4.8763,4.8266,4.7769,4.7206,4.6808,4.5549,4.3367,4.3219,4.2076,3.9741,3.8987,0.0,0.0,0.0,0.0,0.0,0.0,0.0,0.0,0.0,0.0,0.0,0.0,0.0,0.0,0.0,0.0,0.0,0.0,0.0,4.0447,4.0943,4.1173,0.0,0.0,0.0,0.0,0.0,0.0,0.0,0.0,0.0,5.1203,5.0446,5.0303,0.0,0.0,5.213,5.2697,5.3202,5.3839,5.4843,5.5411,0.0,5.5279,5.5552,5.5601,5.4957,5.6264,5.7205,5.666,5.7081,5.7396,5.7089,5.6679,5.6235,5.5858,5.4262,5.321,5.355,5.3685,5.3957,5.4601,5.4974,5.511,5.5678,5.3516,5.2371,5.2303,5.2909,5.2472,5.3212,5.4658,5.3918,5.328,5.2674,5.23,5.0816,4.8489,4.7845,0.0,0.0,0.0,5.1387,5.2137,5.2993,5.3864,5.463,5.4665,5.4694,5.4624,5.3682,5.2474,5.0989,5.055,4.7945,4.3276,0.0,4.2261,4.258,4.4585,4.6544,4.8354,4.9102,4.9516,4.9684,4.8691,4.7963,4.7563,4.7263,4.6466,4.5169,4.4927,4.3981,4.2078,4.1358,4.0311,0.0,0.0,0.0,0.0,0.0,0.0,0.0,0.0,0.0,0.0,0.0,3.7297,3.6453,0.0,0.0,0.0,3.9564,4.0923,4.2361,4.2984,0.0,0.0,0.0,0.0,0.0,0.0,0.0,4.7808,5.0017,5.219,5.3929,5.3327,5.3203,5.464,5.4281,5.4173,5.4999,0.0,5.5675,5.7011,5.7568,5.7826,5.7833,5.7866,5.7953,5.8058,5.8787,5.9358,5.9264,5.9558,5.9709,5.9611,5.9164,5.8785,5.872,5.754,5.6381,5.6061,5.5961,5.6235,5.6919,5.709,5.7158,5.8742,5.7825,5.5179,5.433,5.4837,5.4837,5.5278,5.5888,5.5245,5.5348,5.5858,5.5094,5.396,5.2453,5.097,0.0,5.1344,5.2067,5.3168,5.4451,5.4451,5.4809,5.5513,5.5543,5.5513,5.5507,5.5371,5.4526,5.314,5.2329,5.1093,4.9448,4.7435,4.634,4.6255,4.7604,4.909,5.0509,5.1257,5.1333,5.0647,4.9388,4.8707,4.8639,4.797,4.76,4.7533,4.6891,4.5849,4.4404,4.3625,4.2462,4.0764,0.0,0.0,0.0,0.0,0.0,0.0,0.0,0.0,0.0,0.0,0.0,0.0,0.0,0.0,0.0,4.2427,0.0,4.4693,4.5714,0.0,0.0,0.0,4.6395,4.5924,4.8496,5.0329,5.0401,0.0,0.0,5.4979,5.5667,5.6971,5.9289,5.8166,5.7406,5.8275,5.7567,5.7433,5.844,5.8569,5.8726,5.9213,5.968,6.01,6.0496,6.1003,6.0831,6.0766,6.0772,6.0909,6.0749,6.0879,6.079,6.0706,6.0316,5.9914,5.7943,5.7569,5.7707,5.8324,5.8495,5.8736,6.0244,5.941,5.8746,5.7944,5.7139,5.7103,5.7528,5.8119,5.7981,5.7941,5.8049,5.7859,5.6832,5.5312,5.4763,5.4647,5.4802,5.5595,5.6145,5.6479,5.6479,5.6587,5.6767,5.6767,5.6767,5.6767,5.6717,5.5923,5.45,5.4229,5.3327,5.1752,5.1202,5.0116,4.8542,4.9503,5.0745,5.2164,5.1697,5.1408,5.12,5.0881,5.0414,4.9804,4.9597,4.9246,4.8722,4.8661,4.7981,4.6464,4.5761,4.4704,4.3115,4.0495,0.0,0.0,0.0,0.0,0.0,0.0,0.0,0.0,0.0,4.051,3.8167,0.0,4.0461,0.0,4.3683,4.5204,4.5962,4.5755,0.0,0.0,4.8025,4.8315,5.0524,5.1466,5.2154,5.277,5.3892,5.516,5.65,5.679,5.7587,5.9289,5.7695,5.679,5.813,5.8213,5.8585,5.9878,6.0575,6.091,6.0413,6.0015,5.9844,5.9908,5.998,5.9917,5.9807,5.9669,5.9558,5.9445,5.9331,5.9494,6.0036,6.0077,6.0172,6.0123,5.9787,5.9471,5.9681,5.9683,5.9892,6.0736,5.9998,5.9998,5.9546,5.8841,5.8841,5.9045,5.9414,5.9379,5.9399,5.9296,5.8905,5.8174,5.7217,5.6736,5.65,5.6536,5.7007,5.7188,5.7188,5.7188,5.7188,5.7188,5.7188,5.7188,5.7188,5.7188,5.6391,5.4979,5.4907,5.4255,5.3023,5.3023,5.2412,5.1263,5.1733,5.2384,5.3176,5.243,5.1884,5.1633,5.1284,5.0697,4.9936,4.9901,4.9517,4.881,4.8548,4.784,4.665,4.5979,4.5176,4.4195,4.2235,4.0831,0.0,0.0,0.0,0.0,0.0,0.0,0.0,0.0,0.0,0.0,0.0,4.2435,4.3544,4.5621,4.7228,4.8025,4.8641,4.9619,5.0995,5.1031,5.1611,5.3385,5.3856,5.4363,5.516,5.5667,5.6355,5.755,5.7732,5.8202,5.9434,5.813,5.7514,5.8601,5.8637,5.8854,6.0086,6.0665,6.0783,6.0339,5.9905,5.9615,5.9615,5.9615,5.9589,5.9509,5.9429,5.9286,5.9204,5.9185,5.9318,6.0052,6.011,6.0304,6.0902,6.0854,6.0512,6.0419,6.0392,6.0509,6.1132,6.0392,6.0321,6.0251,6.0286,6.0251,6.0188,6.0125,6.0125,6.0156,6.0211,5.9306,5.8771,5.8528,5.7732,5.7297,5.7188,5.7188,5.7188,5.7188,5.7188,5.7188,5.7188,5.7188,5.7188,5.7188,5.7188,5.6391,5.4943,5.4907,5.4436,5.3603,5.3566,5.353,5.353,5.3566,5.3603,5.3675,5.325,5.2756,5.2145,5.144,5.0665,4.9766,4.9731,4.9344,4.8473,4.791,4.7171,4.6266,4.5703,4.5246,4.4936,4.4064,4.3407,0.0,4.2303,0.0,0.0,0.0,0.0,0.0,0.0,0.0,0.0,4.4838,4.5164,4.5852,4.8025,4.9691,5.051,5.248,5.3494,5.3059,5.4182,5.5051,5.5196,5.5776,5.6428,5.7116,5.7188,5.7478,5.8094,5.8239,5.8528,5.8999,5.8565,5.8275,5.9035,5.8709,5.8709,5.947,5.9506,5.9542,5.9434,5.9325,5.9216,5.9253,5.918,5.9289,5.9216,5.919,5.9227,5.9227,5.9128,5.9463,6.0323,6.0295,6.048,6.1229,6.1299,6.1123,6.0878,6.0696,6.0826,6.3358,6.2565,6.1888,6.1636,6.1608,6.1636,6.1315,6.0837,6.0837,6.1104,6.1536,6.0774,6.0015,5.9325,5.8528,5.7804,5.7188,5.7188,5.7188,5.7188,5.7188,5.7188,5.7188,5.7188,5.7188,5.7188,5.7188,5.6391,5.4907,5.4907,5.4146,5.277,5.2733,5.2733,5.2733,0.0,0.0,0.0,5.4231,5.4133,5.3387,5.3207,5.245,5.1009,5.0973,0.0,4.8933,4.9257,4.8884,4.7493,4.7853,0.0,0.0,0.0,0.0,0.0,0.0,0.0,0.0,0.0,0.0,0.0,4.7419,4.6943,4.5425,4.7512,4.9025,4.9242,5.0778,5.2154,5.2915,5.3422,5.4146,5.5196,5.5595,5.6029,5.6681,5.6862,5.7043,5.7152,5.7188,5.7261,5.7442,5.7442,5.7514,5.7695,5.7514,5.7478,5.7659,5.8094,5.8673,5.9398,5.8999,5.8637,5.8637,5.813,5.7804,5.7659,5.7659,5.7695,5.7732,5.7732,5.7695,5.7732,5.7623,5.8166,5.949,5.9753,6.0196,6.1579,6.184,6.1672,6.1117,6.0878,6.094,6.4475,6.3348,6.2985,6.2585,0.0,6.2195,6.1996,6.1684,6.1544,6.1692,6.1942,6.1172,6.0593,6.0158,5.8927,5.8166,5.7768,5.7369,5.7188,5.7188,5.7188,5.7188,5.7188,5.7188,5.7188,5.7188,5.7188,5.6573,5.5486,5.5088,5.4291,5.3096,5.2697,5.248,5.248,5.248,5.2697,5.3096,5.3494,5.353,5.3132,5.3132,5.2516,5.138,5.0886,0.0,0.0,0.0,0.0,0.0,0.0,0.0,0.0,0.0,0.0,4.7047,4.6669,4.6488,4.6524,4.7575,4.8605,4.9438,5.0597,5.0416,4.8387,5.0192,5.1542,5.1978,5.3113,5.4153,5.4953,5.5341,5.5837,5.6563,5.6659,5.6779,5.7191,5.7289,5.7313,5.7363,5.7338,5.7289,5.7289,5.7239,5.7188,5.7188,5.7188,5.7188,5.7224,5.7514,5.7985,5.8347,5.813,5.784,5.7768,5.7514,5.7188,5.7188,5.7188,5.7188,5.7188,5.7188,5.7188,5.7188,5.7188,5.7623,5.8709,5.9325,5.9977,6.1109,6.1725,6.1923,6.1587,6.1321,6.1159,6.5205,6.4001,6.3709,6.3199,6.2615,6.2443,6.2433,6.237,6.2168,0.0,0.0,6.1371,6.1009,6.0791,5.945,5.8772,5.859,5.7768,5.7406,5.7406,5.7261,5.7188,5.7188,5.7188,5.7213,5.7239,5.7213,5.6815,5.6042,5.5402,5.4617,5.3711,5.3023,5.2661,5.2516,5.248,5.248,5.248,5.248,5.248,5.248,5.248,5.2118,5.1344,5.0669,4.9872,4.8909,4.7772,4.7083,4.6939,4.6432,4.6757,4.8025,4.8279,4.8931,5.0162,5.0329,5.0379,5.051,5.1017,5.1488,5.1946,5.3179,5.3419,5.2055,5.2799,5.3667,5.449,5.5239,5.5905,5.6525,5.7085,5.7412,5.7437,5.7338,5.7313,5.7412,5.7437,5.7461,5.7595,5.7486,5.7412,5.7388,5.7289,5.7213,5.7188,5.7188,5.7188,5.7188,5.7224,5.7297,5.7333,5.7333,5.7224,5.7188,5.7224,5.7188,5.7188,5.7188,5.7188,5.7188,5.7188,5.7188,5.7188,5.7188,5.755,5.8275,5.9072,5.9868,6.0665,6.1399,6.2041,6.1978,6.1776,6.1494,6.5861,6.5533,6.4184,6.3527,6.3381,6.2725,6.2433,6.2407,6.2381,6.2354,6.2318,6.2209,6.1772,6.1116,6.0794,6.0233,5.9543,5.8652,5.8239,5.8202,5.7514,5.7188,5.7188,5.7188,5.7264,5.7338,5.7239,5.6865,5.6213,5.5958,5.5124,5.3856,5.3603,5.3168,5.2552,5.248,5.248,5.248,5.248,5.248,5.248,5.248,5.2118,5.1321,5.1176,5.0416,4.8945,4.9329,4.9257,4.8619,4.9112,4.9568,4.9785,5.0379,5.0886,5.1104,5.114,5.143,5.2082,5.1611,5.2236,5.4252,5.4805,5.4865,5.4529,5.5243,5.6091,5.6975,5.7109,5.7291,5.7437,5.7486,5.7559,5.7559,5.7571,5.7534,5.7559,5.7559,5.7583,5.7607,5.7583,5.751,5.7437,5.7388,5.7313,5.7239,5.7213,5.7188,5.7213,5.7188,5.7188,5.7188,5.7188,5.7188,5.7188,5.7188,5.7188,5.7188,5.7188,5.7188,5.7188,5.7188,5.7188,5.7188,5.7188,5.7514,5.8202,5.9072,5.9796,6.0557,6.1353,6.1933,6.2005,6.195,6.1776,6.6655,6.6216,6.5484,6.4935,6.4459,6.3654,6.3042,6.264,6.2603,6.2526,6.2433,6.2433,6.2188,6.1787,6.1324,6.0908,6.0533,5.9656,5.9049,5.8612,5.8249,5.7849,5.7449,5.7412,5.7437,5.7486,5.7473,5.7231,5.6843,5.6358,5.5704,5.4907,5.4146,5.3277,5.2552,5.248,5.248,5.248,5.248,5.248,5.248,5.248,5.2299,5.1937,5.1538,5.0959,5.0234,5.0126,4.993,4.9582,4.9894,5.0293,5.0728,5.1104,5.1466,5.19,5.1937,5.2299,5.3096,5.3673,5.4275,5.5083,5.5968,5.6306,5.5892,5.6585,5.7229,5.7642,5.775,5.7797,5.7834,5.7763,5.7679,5.7679,5.7667,5.7607,5.7715,5.7739,5.7763,5.781,5.7726,5.7679,5.7607,5.7534,5.7486,5.7412,5.7363,5.7313,5.7289,5.7239,5.7188,5.7188,5.7188,5.7188,5.7188,5.7188,5.7188,5.7188,5.7188,5.7188,5.7188,5.7188,5.7188,5.7188,5.7188,5.7333,5.7732,5.842,5.918,6.0013,6.081,6.1362,6.1797,6.2041,6.1895,6.732,6.6769,6.6549,6.5925,6.5007,6.4347,6.3613,6.2842,6.278,6.2679,6.2537,6.2475,6.2511,6.2402,6.1792,6.1536,6.139,6.0635,5.9917,5.9345,5.9151,5.864,5.7911,5.7875,5.7789,5.7643,5.7607,5.7534,5.7413,5.6819,5.6322,5.5873,5.4653,5.3566,5.277,5.277,5.2661,5.2516,5.248,5.248,5.248,5.248,5.248,5.2444,5.19,5.1597,5.1547,5.0967,5.0641,5.0641,5.0641,5.0967,5.1502,5.1742,5.2164,5.2707,5.278,5.307,5.3759,5.5171,5.5895,5.5587,5.6705,5.7288,5.7015,5.7454,5.7857,5.7857,5.7927,5.7997,5.7973,5.7904,5.7857,5.7857,5.7726,5.7763,5.7834,5.7857,5.7904,5.7973,5.7904,5.7834,5.781,5.7739,5.7607,5.7595,5.7486,5.7437,5.7388,5.7289,5.7239,5.7188,5.7188,5.7188,5.7188,5.7188,5.7188,5.7188,5.7188,5.7188,5.7188,5.7188,5.7188,5.7188,5.7188,5.7224,5.7261,5.7876,5.8709,5.9542,6.0375,6.11,6.1797,6.2005,6.1923,6.7677,6.7467,6.6806,6.5595,6.4347,6.4163,6.3649,6.2879,6.2805,6.278,6.273,6.2755,6.2755,6.273,6.2519,6.2395,6.2358,6.15,6.1011,6.0828,6.0208,5.9479,5.875,5.8677,5.8385,5.7836,5.7691,5.7691,5.7703,5.7437,5.683,5.6018,5.5196,5.4399,5.3675,5.3603,5.3241,5.2516,5.248,5.248,5.248,5.248,5.248,5.248,5.2408,5.244,5.2422,5.2409,5.2372,5.2372,5.2313,5.2341,5.2454,5.3103,5.3585,5.3621,5.3658,5.3766,5.3935,5.4871,5.5775,5.6383,5.6731,5.7217,5.7753,5.79,5.7973,5.7973,5.7997,5.7997,5.7997,5.7973,5.7973,5.7973,5.7914,5.7973,5.7973,5.7973,5.7997,5.7997,5.7973,5.795,5.7857,5.781,5.7763,5.7667,5.7583,5.7534,5.7437,5.7388,5.7313,5.7213,5.7188,5.7188,5.7188,5.7188,5.7188,5.7188,5.7188,5.7188,5.7188,5.7188,5.7188,5.7188,5.7188,5.7188,5.7369,5.784,5.8601,5.947,6.0303,6.1073,6.1788,6.2041,6.1923,6.7687,6.765,6.732,6.6549,6.5521,6.5007,6.4347,6.3576,6.3,6.2805,6.2805,6.2805,6.2805,6.2817,6.273,6.2705,6.2668,6.2325,6.186,6.1446,6.108,6.053,5.9774,5.9225,5.8882,5.86,5.8077,5.7834,5.7786,5.7607,5.7085,5.6309,5.5909,5.54,5.4649,5.4576,5.4199,5.3399,5.3399,5.3145,5.2722,5.2549,5.2526,5.2559,5.2559,5.2604,5.2717,5.2739,5.2658,5.2613,5.2658,5.2672,5.2559,5.2999,5.319,5.3226,5.3686,5.4182,5.4784,5.5606,5.6283,5.6717,5.7203,5.7666,5.796,5.7997,5.7997,5.7997,5.7997,5.7997,5.7997,5.7997,5.7997,5.7997,5.7997,5.7997,5.7997,5.7997,5.7997,5.7997,5.7997,5.7997,5.795,5.7927,5.7904,5.7834,5.775,5.7655,5.7534,5.7437,5.7338,5.7213,5.7188,5.7188,5.7188,5.7188,5.7188,5.7188,5.7188,5.7188,5.7188,5.7188,5.7188,5.7188,5.7188,5.7188,5.7188,5.7478,5.8021,5.9216,6.0701,6.1616,6.1942,6.2005,6.195,6.7687,6.7687,6.7687,6.7247,6.6439,6.5632,6.4824,6.4016,6.3172,6.2805,6.2805,6.2805,6.2805,6.2805,6.2805,6.2805,6.2805,6.2805,6.2511,6.1961,6.1924,6.1484,6.0713,6.0162,5.9612,5.9148,5.8597,5.8147,5.7847,5.7679,5.7339,5.6804,5.6731,5.6306,5.5614,5.5504,5.5139,5.441,5.4337,5.4045,5.3549,5.3317,5.3053,5.2708,5.2635,5.2739,5.285,5.285,5.2806,5.2739,5.2806,5.2806,5.2694,5.3002,5.3288,5.3543,5.4318,5.5057,5.5688,5.6539,5.7024,5.7166,5.7703,5.7997,5.7997,5.7997,5.7997,5.7997,5.7997,5.7997,5.7997,5.7997,5.7997,5.7997,5.7997,5.7997,5.7997,5.7997,5.7997,5.7997,5.7997,5.7997,5.7997,5.7997,5.7997,5.7973,5.7881,5.7763,5.7607,5.7486,5.7338,5.7213,5.7188,5.7188,5.7188,5.7188,5.7188,5.7188,5.7188,5.7188,5.7188,5.7188,5.7188,5.7188,5.7188,5.7188,5.7188,5.7297,5.7768,5.9325,6.0783,6.1906,6.2005,6.2041,6.2041,6.7687,6.7687,6.7687,6.7247,6.6439,6.5632,6.4861,6.409,6.3209,6.2805,6.2805,6.2805,6.2805,6.2805,6.2805,6.2805,6.2805,6.2805,6.2743,6.2695,6.2695,6.2291,6.1557,6.1484,6.0676,5.9478,5.9221,5.8697,5.7907,5.781,5.7703,5.7534,5.7497,5.7133,5.6476,5.639,5.5965,5.5272,5.5163,5.5103,5.503,5.503,5.4278,5.3097,5.282,5.2886,5.2959,5.298,5.298,5.2959,5.3017,5.2952,5.2915,5.3661,5.4481,5.5212,5.6108,5.6571,5.6649,5.7341,5.785,5.7923,5.7923,5.7997,5.7997,5.7997,5.7997,5.7997,5.7997,5.7997,5.7997,5.7997,5.7997,5.7997,5.7997,5.7997,5.7997,5.7997,5.7997,5.7997,5.7997,5.7997,5.7997,5.7997,5.7997,5.7973,5.7881,5.7763,5.7583,5.7461,5.7338,5.7239,5.7188,5.7188,5.7188,5.7188,5.7188,5.7188,5.7188,5.7188,5.7188,5.7188,5.7188,5.7188,5.7188,5.7188,5.7188,5.755,5.8166,5.9398,6.0919,6.1824,6.2005,6.2041,6.2041,6.7687,6.7687,6.7687,6.7504,6.7136,6.5888,6.5118,6.4751,6.3367,6.2805,6.2805,6.2805,6.2805,6.2805,6.2805,6.2805,6.2805,6.2805,6.2805,6.2805,6.2805,6.2633,6.2365,6.1851,6.1337,6.075,6.0236,5.9551,5.8697,5.8184,5.7904,5.7881,5.7857,5.7697,5.7478,5.7441,5.7015,5.6319,5.6209,5.599,5.5514,5.544,5.5147,5.4598,5.4019,5.3507,5.3161,5.3124,5.3103,5.3017,5.3558,5.3851,5.3814,5.4598,5.5434,5.6204,5.6616,5.6983,5.7437,5.779,5.7997,5.7997,5.7997,5.7997,5.7997,5.7997,5.7997,5.7997,5.7997,5.7997,5.7997,5.7997,5.7997,5.7997,5.7997,5.7997,5.7997,5.7997,5.7997,5.7997,5.7997,5.7997,5.7997,5.7997,5.7973,5.7904,5.7834,5.7715,5.7547,5.7412,5.7338,5.7239,5.7188,5.7188,5.7188,5.7188,5.7188,5.7188,5.7188,5.7188,5.7188,5.7188,5.7188,5.7188,5.7188,5.7261,5.7333,5.8239,5.8818,5.9506,6.1027,6.186,6.2005,6.2041,6.2041,6.7378,6.7405,6.7596,6.7687,6.7504,6.6256,6.5521,6.5154,6.3833,6.3062,6.2842,6.2805,6.2805,6.2805,6.2805,6.2805,6.2805,6.2805,6.2805,6.2805,6.2805,6.2805,6.2732,6.2254,6.1851,6.1484,6.0786,6.0015,5.9221,5.8657,5.8253,5.7997,5.7997,5.7997,5.7997,5.7997,5.7703,5.7262,5.7189,5.6895,5.6418,5.6381,5.6235,5.5941,5.5339,5.4679,5.4032,5.3959,5.3916,5.3946,5.4429,5.4869,5.506,5.564,5.6345,5.7079,5.7189,5.7409,5.7886,5.7997,5.7997,5.7997,5.7997,5.7997,5.7997,5.7997,5.7997,5.7997,5.7997,5.7997,5.7997,5.7997,5.7997,5.7997,5.7997,5.7997,5.7997,5.7997,5.7997,5.7997,5.7997,5.7997,5.7997,5.7997,5.795,5.7797,5.781,5.7715,5.7498,5.7388,5.7338,5.7213,5.7188,5.7188,5.7188,5.7188,5.7188,5.7188,5.7188,5.7188,5.7188,5.7188,5.7188,5.7188,5.7261,5.7369,5.7876,5.8818,5.947,5.9941,6.0919,6.1969,6.2041,6.2041,6.2041,6.6677,6.6765,6.7405,6.7633,6.7486,6.6706,6.5999,6.5301,6.442,6.3576,6.3025,6.2842,6.2805,6.2805,6.2805,6.2805,6.2805,6.2805,6.2805,6.2805,6.2805,6.2805,6.2805,6.2732,6.2328,6.1704,6.086,6.0089,5.9465,5.9184,5.8767,5.8143,5.8033,5.7997,5.7997,5.7997,5.7997,5.7886,5.785,5.7886,5.796,5.7813,5.7446,5.6895,5.6726,5.6359,5.5611,5.5522,5.539,5.5427,5.5537,5.5978,5.6579,5.6785,5.7152,5.774,5.796,5.796,5.796,5.7997,5.7997,5.7997,5.7997,5.7997,5.7997,5.7997,5.7997,5.7997,5.7997,5.7997,5.7997,5.7997,5.7997,5.7997,5.7997,5.7997,5.7997,5.7997,5.7997,5.7997,5.7997,5.7997,5.7997,5.7997,5.7914,5.7857,5.7786,5.7679,5.7437,5.7363,5.7313,5.7239,5.7188,5.7188,5.7188,5.7188,5.7188,5.7188,5.7188,5.7188,5.7188,5.7188,5.7188,5.7188,5.7188,5.7333,5.8058,5.8963,5.976,6.0375,6.1353,6.2005,6.2041,6.2041,6.2041,6.594,6.6033,6.6736,6.7032,6.6952,6.6646,6.6329,6.5999,6.4714,6.3943,6.3613,6.3062,6.2805,6.2805,6.2805,6.2805,6.2805,6.2805,6.2805,6.2805,6.2805,6.2805,6.2805,6.2805,6.267,6.2328,6.163,6.1117,6.0676,5.9735,5.9038,5.8804,5.8253,5.7997,5.7997,5.7997,5.7997,5.7997,5.7997,5.7997,5.7997,5.7997,5.785,5.7666,5.7629,5.7483,5.7226,5.6198,5.5633,5.5647,5.6124,5.6785,5.7446,5.7629,5.774,5.7923,5.7997,5.7997,5.7997,5.7997,5.7997,5.7997,5.7997,5.7997,5.7997,5.7997,5.7997,5.7997,5.7997,5.7997,5.7997,5.7997,5.7997,5.7997,5.7997,5.7997,5.7997,5.7997,5.7997,5.7997,5.7997,5.7997,5.7997,5.7997,5.795,5.7797,5.7703,5.7619,5.7437,5.7338,5.7264,5.7188,5.7188,5.7188,5.7188,5.7188,5.7188,5.7188,5.7188,5.7188,5.7188,5.7188,5.7188,5.7224,5.7224,5.7623,5.8347,5.9144,6.0013,6.0701,6.1462,6.1824,6.1969,6.2041,6.2041,6.5237,6.53,6.6002,6.6313,6.6338,6.645,6.6373,6.6034,6.5333,6.4824,6.442,6.3649,6.3282,6.3209,6.2927,6.2805,6.2805,6.2805,6.2805,6.2805,6.2805,6.2805,6.2805,6.2805,6.2805,6.2732,6.2291,6.1887,6.1557,6.0603,5.9795,5.9184,5.8671,5.829,5.8033,5.7997,5.7997,5.7997,5.7997,5.7997,5.7997,5.7997,5.7997,5.7997,5.7997,5.7997,5.7923,5.6969,5.6514,5.6565,5.7005,5.7483,5.796,5.796,5.7997,5.7997,5.7997,5.7997,5.7997,5.7997,5.7997,5.7997,5.7997,5.7997,5.7997,5.7997,5.7997,5.7997,5.7997,5.7997,5.7997,5.7997,5.7997,5.7997,5.7997,5.7997,5.7997,5.7997,5.7997,5.7997,5.7997,5.7997,5.7997,5.7997,5.795,5.7834,5.7703,5.7583,5.7437,5.7338,5.7264,5.7213,5.7188,5.7188,5.7188,5.7188,5.7188,5.7188,5.7188,5.7188,5.7188,5.7188,5.7188,5.7369,5.7442,5.8166,5.8891,5.9651,6.0448,6.1064,6.1643,6.1824,6.2041,6.2041,6.1978,6.4532,6.4635,6.5234,6.5526,6.5657,6.6241,6.6148,6.562,6.6007,6.582,6.516,6.4321,6.4016,6.387,6.3172,6.2805,6.2805,6.2805,6.2805,6.2805,6.2805,6.2805,6.2805,6.2805,6.2805,6.2805,6.2768,6.2365,6.1814,6.1484,6.086,5.9648,5.9368,5.8877,5.8327,5.807,5.8107,5.7997,5.7997,5.7997,5.7997,5.7997,5.7997,5.7997,5.7997,5.7997,5.796,5.7813,5.785,5.796,5.785,5.7886,5.796,5.7997,5.7997,5.7997,5.7997,5.7997,5.7997,5.7997,5.7997,5.7997,5.7997,5.7997,5.7997,5.7997,5.7997,5.7997,5.7997,5.7997,5.7997,5.7997,5.7997,5.7997,5.7997,5.7997,5.7997,5.7997,5.7997,5.7997,5.7997,5.7997,5.7997,5.7997,5.7927,5.7834,5.775,5.7607,5.7461,5.7338,5.7313,5.7264,5.7188,5.7188,5.7188,5.7188,5.7188,5.7188,5.7188,5.7224,5.7333,5.7369,5.7478,5.7623,5.8021,5.8746,5.9434,6.0194,6.0883,6.1543,6.1869,6.2005,6.1978,6.1978,6.1812,6.3894,6.3931,6.4601,6.4838,6.4939,6.5625,6.5801,6.5576,6.5634,6.5666,6.5249,6.4459,6.4127,6.398,6.3209,6.2805,6.2805,6.2805,6.2805,6.2805,6.2805,6.2805,6.2805,6.2805,6.2805,6.2805,6.2805,6.2695,6.2438,6.1924,6.1374,6.097,6.0309,5.9685,5.9024,5.8877,5.8547,5.807,5.7997,5.8033,5.8033,5.7997,5.7997,5.7997,5.7997,5.7997,5.7997,5.7997,5.7997,5.7997,5.7997,5.7997,5.7997,5.7997,5.7997,5.7997,5.7997,5.7997,5.7997,5.7997,5.7997,5.7997,5.7997,5.7997,5.7997,5.7997,5.7997,5.7997,5.7997,5.7997,5.7997,5.7997,5.7997,5.7997,5.7997,5.7997,5.7997,5.7997,5.7997,5.7997,5.7997,5.7997,5.7997,5.7973,5.795,5.7834,5.7679,5.7619,5.7437,5.7313,5.7239,5.7239,5.7188,5.7188,5.7188,5.7188,5.7188,5.7188,5.7224,5.7261,5.7478,5.7732,5.7949,5.8202,5.8854,5.9542,6.0086,6.0701,6.1362,6.1942,6.1859,6.1868,6.1923,6.1923,6.1544,6.36,6.3637,6.4039,6.4182,6.4288,6.4905,6.5169,6.5294,6.5785,6.5953,6.5771,6.5001,6.4604,6.4494,6.3356,6.2842,6.2805,6.2805,6.2805,6.2805,6.2805,6.2805,6.2805,6.2805,6.2805,6.2805,6.2805,6.2805,6.2732,6.2328,6.1961,6.152,6.1153,6.0493,5.9758,5.9685,5.9478,5.9061,5.8731,5.851,5.851,5.8143,5.7997,5.7997,5.7997,5.7997,5.7997,5.7997,5.7997,5.7997,5.7997,5.7997,5.7997,5.7997,5.7997,5.7997,5.7997,5.7997,5.7997,5.7997,5.7997,5.7997,5.7997,5.7997,5.7997,5.7997,5.7997,5.7997,5.7997,5.7997,5.7997,5.7997,5.7997,5.7997,5.7997,5.7997,5.7997,5.7997,5.7997,5.7997,5.7997,5.7997,5.7997,5.795,5.7904,5.781,5.7607,5.751,5.7388,5.7264,5.7188,5.7188,5.7188,5.7188,5.7188,5.7188,5.7297,5.7297,5.7732,5.7695,5.7985,5.8311,5.8528,5.8927,5.9651,6.0231,6.0665,6.11,6.1571,6.1914,6.1776,6.1608,6.1608,6.1494,6.1104,6.36,6.36,6.36,6.36,6.3712,6.4218,6.4497,6.4772,6.5873,6.6421,6.6243,6.5633,6.5202,6.5165,6.3539,6.2805,6.2805,6.2805,6.2805,6.2805,6.2805,6.2805,6.2805,6.2805,6.2805,6.2805,6.2805,6.2805,6.2768,6.2768,6.2401,6.1961,6.1777,6.13,6.0676,6.0529,6.0493,6.0126,5.9612,5.9355,5.9148,5.8657,5.829,5.8253,5.8033,5.7997,5.7997,5.7997,5.7997,5.7997,5.7997,5.7997,5.7997,5.7997,5.7997,5.7997,5.7997,5.7997,5.7997,5.7997,5.7997,5.7997,5.8107,5.8143,5.8217,5.8253,5.8253,5.8253,5.807,5.7997,5.7997,5.7997,5.7997,5.7997,5.7997,5.7997,5.7997,5.7997,5.7997,5.7997,5.7997,5.7997,5.7973,5.7904,5.781,5.7703,5.7559,5.7437,5.7338,5.7264,5.7188,5.7188,5.7188,5.7188,5.7188,5.7188,5.7333,5.7514,5.8275,5.8565,5.8891,5.9144,5.9289,5.9651,6.0412,6.081,6.1064,6.1462,6.1806,6.1684,6.1458,6.1133,6.0891,6.0717,6.0375,6.36,6.36,6.36,6.36,6.3637,6.3749,6.3821,6.3967,6.5234,6.5837,6.573,6.5405,6.5275,6.5191,6.3613,6.2805,6.2805,6.2805,6.2805,6.2805,6.2805,6.2805,6.2805,6.2805,6.2805,6.2805,6.2805,6.2805,6.2805,6.2805,6.2707,6.2548,6.2365,6.2144,6.1447,6.1337,6.1006,6.0529,6.0236,6.0162,6.0015,5.9391,5.8951,5.8841,5.8364,5.8033,5.7997,5.7997,5.7997,5.7997,5.7997,5.7997,5.7997,5.7997,5.7997,5.7997,5.7997,5.7997,5.7997,5.8033,5.7997,5.8107,5.8657,5.8951,5.8927,5.8927,5.8927,5.8841,5.84,5.8107,5.807,5.7997,5.8107,5.8143,5.8107,5.807,5.7997,5.7997,5.7997,5.7997,5.8033,5.7997,5.7997,5.7954,5.7799,5.7667,5.751,5.7363,5.7289,5.7213,5.7213,5.7188,5.7188,5.7188,5.7261,5.7442,5.7913,5.8239,5.8963,5.9579,5.9905,6.0086,6.0267,6.0638,6.1181,6.1435,6.1498,6.1506,6.174,6.143,6.1045,6.062,6.0251,5.9998,5.9676,6.3289,6.36,6.36,6.36,6.36,6.36,6.36,6.3754,6.4617,6.5023,6.5013,6.4804,6.4725,6.464,6.3466,6.2805,6.2805,6.2805,6.2805,6.2805,6.2805,6.2805,6.2805,6.2805,6.2805,6.2805,6.2805,6.2805,6.2805,6.2805,6.2805,6.2805,6.2805,6.2585,6.2218,6.2144,6.1961,6.1594,6.1117,6.097,6.0823,6.0199,5.9501,5.9258,5.8767,5.8437,5.8033,5.7997,5.7997,5.7997,5.7997,5.7997,5.7997,5.7997,5.7997,5.7997,5.7997,5.7997,5.7997,5.8364,5.8584,5.8584,5.9318,5.9648,5.9771,5.9758,5.9538,5.9221,5.8817,5.8547,5.8547,5.8143,5.8253,5.8914,5.8767,5.8731,5.8914,5.8474,5.7997,5.807,5.8364,5.8207,5.8124,5.8213,5.7923,5.7802,5.7533,5.7372,5.73,5.7213,5.7188,5.7188,5.7188,5.7224,5.7297,5.7732,5.8565,5.918,5.9941,6.0557,6.1064,6.1208,6.1317,6.1543,6.1661,6.1797,6.1833,6.1776,6.1458,6.1104,6.062,6.0093,5.9546,5.9146,5.8841,6.2668,6.3255,6.3255,6.3255,6.3255,6.3186,6.3151,6.3266,6.3849,6.4081,6.4205,6.4021,6.4035,6.3881,6.3246,6.2842,6.2805,6.2805,6.2805,6.2805,6.2805,6.2805,6.2805,6.2805,6.2805,6.2805,6.2805,6.2805,6.2805,6.2805,6.2805,6.2805,6.2805,6.2768,6.2768,6.2805,6.2658,6.2475,6.2034,6.1777,6.163,6.1006,6.0272,5.9588,5.9404,5.9024,5.851,5.8253,5.818,5.7997,5.7997,5.7997,5.7997,5.7997,5.7997,5.7997,5.7997,5.8107,5.8364,5.8804,5.9148,5.9331,6.0126,6.0529,6.0603,6.0566,6.0309,5.9905,5.9538,5.9368,5.9331,5.8988,5.9208,5.9832,5.9722,5.9771,5.9942,5.9134,5.8657,5.8584,5.8977,5.904,5.8835,5.875,5.8336,5.7969,5.7699,5.7514,5.7478,5.7514,5.7695,5.7804,5.7913,5.813,5.8202,5.8673,5.9434,5.9878,6.0711,6.1191,6.1733,6.1752,6.1688,6.1742,6.1887,6.1868,6.1608,6.1198,6.0867,6.062,6.009,5.9412,5.8806,5.828,5.8135,6.1565,6.1668,6.1668,6.1668,6.1703,6.1703,6.1772,6.1776,6.2466,6.2981,6.3438,6.3349,6.358,6.3694,6.3172,6.2842,6.2805,6.2805,6.2805,6.2805,6.2805,6.2805,6.2805,6.2805,6.2805,6.2805,6.2805,6.2805,6.2805,6.2805,6.2805,6.2805,6.2805,6.2805,6.2805,6.2805,6.2805,6.2805,6.2585,6.2511,6.2291,6.1777,6.1006,6.0309,6.0199,5.9795,5.9184,5.8964,5.8694,5.8107,5.7997,5.8033,5.8143,5.8143,5.8143,5.8107,5.8107,5.8364,5.8951,5.9184,5.9588,6.0162,6.0933,6.1337,6.141,6.1374,6.1227,6.0933,6.0456,6.0162,6.0199,5.9905,6.0089,6.0382,6.0382,6.0309,6.0419,6.0164,5.9883,5.9871,5.9993,5.9859,5.9554,5.9345,5.9245,5.8936,5.8714,5.8637,5.8673,5.8673,5.8782,5.8818,5.8891,5.9108,5.9325,5.9868,6.0484,6.0612,6.1127,6.137,6.1795,6.1942,6.195,6.1579,6.1372,6.1286,6.0956,6.056,6.0125,5.9739,5.9212,5.8703,5.8352,5.8063,5.8128,6.0944,6.1289,6.1323,6.1323,6.1323,6.1323,6.1323,6.1326,6.1598,6.2075,6.248,6.2586,6.2801,6.3156,6.3062,6.2805,6.2805,6.2805,6.2805,6.2805,6.2805,6.2805,6.2805,6.2805,6.2805,6.2805,6.2805,6.2805,6.2805,6.2805,6.2805,6.2805,6.2805,6.2805,6.2805,6.2805,6.2805,6.2805,6.2805,6.2805,6.2805,6.2365,6.1814,6.1227,6.097,6.0603,6.0015,5.9832,5.9685,5.9355,5.9281,5.9245,5.9208,5.9171,5.9024,5.8731,5.8657,5.8988,5.9795,6.0162,6.0676,6.1006,6.1741,6.2181,6.2218,6.2181,6.2034,6.1557,6.0933,6.0603,6.0933,6.0713,6.0823,6.141,6.1276,6.1202,6.1385,6.1197,6.097,6.0835,6.0756,6.0464,5.9976,5.991,6.0015,5.9937,5.9714,5.9724,5.9796,5.976,5.9724,5.9589,5.9562,5.9663,5.9862,6.0286,6.0763,6.1015,6.114,6.1379,6.1401,6.1343,6.114,6.0777,6.0686,6.0651,6.0313,5.9934,5.9379,5.8943,5.8598,5.8315,5.8065,5.7952,5.8017,6.0323,6.084,6.084,6.084,6.084,6.084,6.0806,6.0808,6.0699,6.1043,6.1625,6.171,6.1951,6.236,6.2578,6.2654,6.278,6.2805,6.2805,6.2805,6.2805,6.2805,6.2805,6.2805,6.2805,6.2805,6.2805,6.2805,6.2805,6.2805,6.2805,6.2805,6.2805,6.2805,6.2805,6.2805,6.2805,6.2805,6.2805,6.2805,6.2805,6.2768,6.2548,6.1924,6.1814,6.1447,6.075,6.0639,6.0493,6.0309,6.0272,6.0309,6.0382,6.0382,6.0162,5.9758,5.9515,5.9905,6.0566,6.108,6.1484,6.1814,6.2401,6.2695,6.2743,6.2622,6.2511,6.1851,6.141,6.1227,6.1704,6.13,6.1594,6.2095,6.2082,6.1773,6.187,6.1688,6.1112,6.1079,6.1226,6.0936,6.0377,6.044,6.0557,6.0864,6.0701,6.0629,6.0701,6.0557,6.0457,6.0223,6.0133,6.0142,6.0256,6.0318,6.0626,6.0759,6.0713,6.0772,6.0656,6.0503,6.0219,6.003,6.0062,5.9963,5.9609,5.9281,5.8772,5.8388,5.8137,5.7991,5.7918,5.7983,5.8118,5.9185,5.9288,5.9323,5.9288,5.9357,5.9357,5.9323,5.9323,5.9391,5.9656,6.047,6.0837,6.1149,6.1464,6.1915,6.236,6.2679,6.2805,6.2805,6.2805,6.2805,6.2805,6.2805,6.2805,6.2805,6.2805,6.2805,6.2805,6.2805,6.2805,6.2805,6.2805,6.2805,6.2805,6.2805,6.2805,6.2805,6.2805,6.2805,6.2805,6.2805,6.2805,6.2707,6.2622,6.2511,6.2218,6.1557,6.1447,6.1227,6.0639,6.0529,6.0456,6.0419,6.0419,6.0786,6.0896,6.0823,6.0603,6.1337,6.1667,6.1961,6.2365,6.2732,6.2805,6.2805,6.2805,6.2732,6.2707,6.2413,6.2365,6.245,6.2425,6.2633,6.2369,6.2073,6.1688,6.1687,6.1084,6.064,6.0397,6.0225,6.0629,6.0581,6.084,6.1135,6.144,6.1661,6.1462,6.1271,6.0916,6.0788,6.0467,6.021,6.0239,6.0224,6.0368,6.0397,6.0529,6.0282,6.0093,5.9934,5.9774,5.9513,5.938,5.9346,5.9279,5.9011,5.8633,5.8209,5.8027,5.7991,5.7954,5.7918,5.8051,5.8321,5.9012,5.9012,5.9012,5.9012,5.9012,5.9012,5.9012,5.9012,5.9012,5.9383,6.0033,6.0646,6.1265,6.1833,6.2298,6.2541,6.2755,6.2805,6.2805,6.2805,6.2805,6.2805,6.2805,6.2805,6.2805,6.2805,6.2805,6.2805,6.2805,6.2805,6.2805,6.2805,6.2805,6.2805,6.2805,6.2805,6.2805,6.2805,6.2805,6.2805,6.2805,6.2805,6.2805,6.2805,6.2805,6.2585,6.2365,6.2291,6.2144,6.1777,6.1777,6.1753,6.1753,6.1814,6.1998,6.2144,6.1998,6.1961,6.2254,6.2254,6.2475,6.2658,6.2805,6.2805,6.2805,6.2805,6.2805,6.2805,6.2805,6.278,6.2679,6.2464,6.2334,6.2086,6.164,6.1322,6.0909,6.0176,5.9671,5.9443,5.9313,5.9674,6.0027,6.0215,6.0366,6.073,6.0843,6.0719,6.0594,6.0408,6.0408,6.0473,6.0245,6.0052,6.0092,6.0141,6.0043,6.003,5.9543,5.9414,5.9281,5.9079,5.8841,5.8633,5.8528,5.8423,5.8351,5.8244,5.8027,5.7954,5.7918,5.7881,5.7949,5.8524,5.8964,5.9012,5.9012,5.9012,5.9012,5.9012,5.9012,5.9012,5.9012,5.9012,5.9283,5.9809,6.0401,6.135,6.236,6.249,6.2578,6.278,6.2805,6.2805,6.2805,6.2805,6.2805,6.2805,6.2805,6.2805,6.2805,6.2805,6.2805,6.2805,6.2805,6.2805,6.2805,6.2805,6.2805,6.2805,6.2805,6.2805,6.2805,6.2805,6.2805,6.2805,6.2805,6.2805,6.2805,6.2805,6.2805,6.2805,6.2768,6.2768,6.2732,6.2633,6.2585,6.2622,6.2585,6.2585,6.2695,6.2585,6.2622,6.2695,6.2695,6.2805,6.2805,6.2805,6.2805,6.2805,6.2805,6.2805,6.2805,6.2541,6.2541,6.2438,6.2005,6.1723,6.1415,6.0944,6.0646,6.0246,5.9509,5.8943,5.8737,5.8598,5.8493,5.8841,5.918,5.9546,5.9902,5.9998,5.9934,5.9934,5.9902,6.0065,6.0156,5.9835,5.9601,5.9606,5.9644,5.9644,5.948,5.9011,5.8737,5.8668,5.8458,5.8244,5.8027,5.7881,5.7954,5.8101,5.8027,5.7881,5.7881,5.7881,5.7881,5.8084,5.8727,5.9573,5.9012,5.9012,5.9012,5.9012,5.9012,5.9012,5.9012,5.9012,5.9012,5.9081,5.935,5.9873,6.0921,6.1787,6.2202,6.2412,6.2817,6.2805,6.2805,6.2805,6.2805,6.2805,6.2805,6.2805,6.2805,6.2805,6.2805,6.2805,6.2805,6.2805,6.2805,6.2805,6.2805,6.2805,6.2805,6.2805,6.2805,6.2805,6.2805,6.2805,6.2805,6.2805,6.2805,6.2805,6.2805,6.2805,6.2805,6.2805,6.2805,6.2805,6.2805,6.2805,6.2805,6.2805,6.2805,6.2805,6.2805,6.2805,6.2805,6.2805,6.2805,6.2805,6.2805,6.2805,6.2805,6.278,6.278,6.2654,6.2219,6.1978,6.1751,6.1443,6.1068,6.0706,6.0278,5.9771,5.9414,5.8909,5.8386,5.8065,5.8027,5.8063,5.8099,5.8528,5.8841,5.9248,5.938,5.9314,5.948,5.9513,5.9644,5.9644,5.9247,5.9011,5.8875,5.8841,5.8772,5.8702,5.8388,5.8209,5.8101,5.7881,5.7881,5.7881,5.7881,5.7881,5.7881,5.7881,5.7881,5.7881,5.7915,5.8017,5.8592,5.9404,6.0216,5.9012,5.9012,5.9012,5.9012,5.9012,5.9012,5.9012,5.9012,5.9012,5.9249,5.9615,6.0313,6.1033,6.1751,6.2334,6.2541,6.278,6.2805,6.2817,6.2805,6.2805,6.2805,6.2805,6.2915,6.2805,6.2842,6.2842,6.2805,6.2805,6.2805,6.2805,6.2805,6.2879,6.2805,6.2805,6.2805,6.2805,6.2805,6.2805,6.2805,6.2805,6.2805,6.2805,6.2805,6.2805,6.2805,6.2805,6.2805,6.2805,6.2805,6.2805,6.2805,6.2805,6.2805,6.2805,6.2805,6.2805,6.2805,6.2805,6.2805,6.2805,6.2805,6.2805,6.278,6.2705,6.2464,6.2308,6.2059,6.1668,6.1329,6.1207,6.0772,6.0282,5.9998,5.9611,5.908,5.8702,5.8314,5.8099,5.7954,5.7918,5.7954,5.7954,5.7991,5.8244,5.8562,5.8633,5.8772,5.8909,5.8943,5.908,5.908,5.8702,5.8493,5.8388,5.8137,5.7881,5.7881,5.7881,5.7881,5.7881,5.7881,5.7915,5.7881,5.7983,5.8118,5.8118,5.7949,5.7949,5.8051,5.8186,5.8321,5.9099,6.0047,6.0825,5.9012,5.9012,5.9012,5.9012,5.9012,5.9012,5.9012,5.9012,5.9012,5.9216,5.9779,6.034,6.0855,6.1415,6.1888,6.2579,6.2741,6.2928,6.324,6.3463,6.3661,6.3539,6.3539,6.3576,6.3649,6.3319,6.3172,6.3172,6.2805,6.2805,6.3025,6.3172,6.3172,6.3135,6.2805,6.2842,6.2842,6.2805,6.2805,6.2805,6.2805,6.2805,6.2805,6.2805,6.2805,6.2805,6.2805,6.2805,6.2805,6.2805,6.2805,6.2805,6.2805,6.2805,6.2805,6.2805,6.2805,6.2805,6.278,6.2805,6.2805,6.2805,6.2515,6.2515,6.2386,6.1978,6.164,6.1528,6.1033,6.0615,6.0585,6.0093,5.9681,5.9417,5.908,5.8632,5.8421,5.8099,5.7991,5.7918,5.7881,5.7881,5.7881,5.7881,5.8027,5.8209,5.8244,5.8315,5.828,5.8315,5.8244,5.8244,5.8101,5.7993,5.7918,5.7881,5.7881,5.7881,5.7881,5.7881,5.7881,5.8017,5.822,5.8423,5.8524,5.8524,5.866,5.8863,5.8626,5.8321,5.866,5.9099,5.9844,6.0791,6.1332,5.9012,5.9012,5.9012,5.9012,5.9012,5.9012,5.9012,5.9012,5.9012,5.9047,5.9182,5.9809,6.0097,6.0379,6.1081,6.1968,6.2802,6.3094,6.3675,6.4506,6.4699,6.4982,6.5044,6.4861,6.4494,6.4163,6.4016,6.3723,6.3062,6.3246,6.3539,6.387,6.4016,6.3796,6.2952,6.2842,6.2842,6.2879,6.2989,6.3062,6.2989,6.2989,6.3025,6.2805,6.2805,6.2805,6.2805,6.2805,6.2805,6.2805,6.2805,6.2805,6.2805,6.2805,6.2805,6.2805,6.2805,6.278,6.2755,6.278,6.2705,6.2567,6.2192,6.1924,6.1751,6.135,6.0944,6.0885,6.0375,6.0065,5.9776,5.9516,5.9183,5.8909,5.8596,5.8384,5.8205,5.8027,5.7954,5.7881,5.7881,5.7881,5.7881,5.7881,5.7881,5.7954,5.7918,5.7881,5.7881,5.7881,5.7881,5.7881,5.7881,5.7881,5.7881,5.7881,5.7881,5.7881,5.8017,5.822,5.8423,5.8727,5.893,5.9032,5.9167,5.9268,5.9641,6.0013,5.9708,5.9471,5.9708,6.0182,6.0892,6.14,6.1839,5.8944,5.9012,5.9012,5.9012,5.9012,5.9012,5.9012,5.9012,5.9012,5.9012,5.9114,5.9679,6.0001,6.0297,6.1131,6.1974,6.2491,6.3623,6.4402,6.4594,6.5138,6.5249,6.5375,6.5448,6.5228,6.4971,6.4861,6.4787,6.453,6.4248,6.4494,6.4861,6.4934,6.4751,6.4567,6.4457,6.4468,6.4494,6.4457,6.4273,6.3723,6.3613,6.3392,6.2915,6.2879,6.2805,6.2805,6.2805,6.2805,6.2805,6.2805,6.2805,6.2805,6.2805,6.2805,6.2805,6.278,6.2567,6.236,6.2166,6.2166,6.2005,6.164,6.1265,6.1178,6.0681,6.0406,6.0188,5.9776,5.9483,5.925,5.9182,5.8944,5.8736,5.8455,5.8277,5.8133,5.7991,5.7881,5.7881,5.7881,5.7881,5.7881,5.7881,5.7881,5.7983,5.7983,5.7915,5.7915,5.7881,5.7881,5.7881,5.7881,5.7881,5.7881,5.8017,5.8254,5.8423,5.8693,5.8964,5.9235,5.9438,5.9641,5.9776,5.9945,6.0114,6.0419,6.0655,6.0757,6.0757,6.0858,6.0892,6.1231,6.1704,6.2178,5.8736,5.884,5.8909,5.8909,5.8909,5.8978,5.9012,5.9047,5.9288,5.9426,5.9564,6.0144,6.0485,6.0758,6.133,6.2309,6.2608,6.3444,6.4831,6.4954,6.5523,6.5979,6.614,6.6035,6.6035,6.5852,6.5668,6.5595,6.5154,6.5264,6.5448,6.5668,6.5962,6.6145,6.5999,6.5705,6.5165,6.5118,6.5044,6.4934,6.453,6.42,6.3796,6.3356,6.3062,6.2805,6.2805,6.2805,6.2805,6.2805,6.2805,6.2805,6.2805,6.2805,6.2805,6.2805,6.2755,6.249,6.2086,6.1612,6.15,6.1156,6.0802,6.0615,6.0463,6.0033,5.9744,5.9516,5.9182,5.9115,5.9012,5.8978,5.884,5.8595,5.8452,5.8273,5.8095,5.7986,5.7915,5.7915,5.7881,5.7881,5.7881,5.7881,5.7881,5.8017,5.8118,5.8084,5.8051,5.8051,5.8051,5.8017,5.7983,5.7983,5.8118,5.8287,5.8558,5.893,5.9302,5.9674,5.9877,6.008,6.0317,6.0588,6.0892,6.1095,6.1129,6.1264,6.1434,6.1569,6.1637,6.167,6.167,6.1975,6.2381,5.849,5.8525,5.8701,5.8771,5.8806,5.8978,5.9012,5.9081,5.9771,6.0047,6.0151,6.0634,6.0843,6.1118,6.1292,6.2023,6.3163,6.3506,6.4745,6.5947,6.6301,6.6854,6.7259,6.7357,6.6953,6.6659,6.6512,6.6292,6.5558,6.5778,6.6109,6.6512,6.7026,6.7173,6.6916,6.6402,6.5852,6.5852,6.5852,6.5668,6.5338,6.4787,6.4347,6.387,6.3392,6.3025,6.2879,6.2805,6.2805,6.2805,6.2805,6.2805,6.2805,6.2805,6.2805,6.278,6.278,6.2334,6.1778,6.1207,6.0615,6.0286,6.0033,6.0005,5.9809,5.9516,5.9317,5.9182,5.9047,5.9012,5.9013,5.8909,5.877,5.8628,5.8483,5.8339,5.8157,5.8051,5.7983,5.7949,5.7881,5.7881,5.7915,5.7915,5.8254,5.8389,5.8592,5.8761,5.8727,5.8524,5.8457,5.8254,5.822,5.8152,5.8321,5.8693,5.9268,5.9776,6.0013,6.0317,6.052,6.0825,6.1095,6.1467,6.1941,6.2076,6.1839,6.1907,6.2178,6.2245,6.211,6.211,6.2042,6.211,6.2415,5.8384,5.849,5.8561,5.8666,5.8806,5.8909,5.9012,5.9047,5.9288,5.9357,5.9357,5.9564,6.022,6.0496,6.1047,6.1915,6.2857,6.3833,6.4855,6.5748,6.6374,6.7061,6.746,6.765,6.7467,6.7393,6.7247,6.71,6.7026,6.6916,6.6916,6.7393,6.754,6.765,6.7504,6.721,6.699,6.6843,6.6769,6.6512,6.6219,6.5778,6.5118,6.4347,6.387,6.3392,6.2952,6.2842,6.2805,6.2805,6.2805,6.2805,6.2805,6.2805,6.278,6.273,6.2412,6.1897,6.1207,6.062,6.0033,5.9549,5.9419,5.9318,5.925,5.9217,5.9047,5.9116,5.9151,5.922,5.9254,5.9183,5.9143,5.91,5.8953,5.8877,5.873,5.866,5.8592,5.8355,5.8287,5.8287,5.8287,5.8524,5.8863,5.8964,5.9133,5.937,5.9404,5.9235,5.9032,5.8795,5.8829,5.8896,5.8998,5.9336,6.0013,6.0588,6.0791,6.1095,6.1467,6.1772,6.2009,6.2144,6.2279,6.2347,6.2313,6.2415,6.2415,6.2415,6.2313,6.2347,6.2415,6.2415,6.2415,5.8169,5.8277,5.8348,5.849,5.8701,5.8875,5.8944,5.8978,5.9288,5.9495,5.953,5.9875,6.0185,6.0668,6.1151,6.1773,6.257,6.3203,6.4146,6.5202,6.5971,6.6582,6.7117,6.7579,6.765,6.7687,6.7687,6.754,6.7687,6.7687,6.765,6.7614,6.7687,6.7687,6.7614,6.7577,6.7614,6.7577,6.754,6.7357,6.7063,6.6623,6.5668,6.4824,6.4383,6.3649,6.2964,6.2817,6.2805,6.2805,6.2805,6.2805,6.2805,6.2805,6.2567,6.2464,6.2139,6.1443,6.0706,6.0317,5.9681,5.9286,5.9288,5.953,5.9392,5.9323,5.9392,5.9461,5.9495,5.9564,5.9596,5.9626,5.9684,5.9738,5.9661,5.9583,5.9475,5.9438,5.9235,5.893,5.8863,5.8896,5.9032,5.9302,5.9505,5.9674,5.9979,6.0385,6.025,5.9979,5.9742,5.9505,5.9641,5.9776,5.9911,6.0013,6.0588,6.1163,6.1501,6.1839,6.2347,6.2381,6.2245,6.2279,6.2381,6.2415,6.2415,6.2415,6.2415,6.2415,6.2415,6.2415,6.2415,6.2415,6.2415,5.7918,5.7918,5.8099,5.8312,5.849,5.8666,5.8771,5.8909,5.9564,6.0047,6.0116,6.0703,6.0875,6.0875,6.1047,6.153,6.2153,6.2676,6.3485,6.453,6.5429,6.6156,6.6823,6.7258,6.7488,6.7633,6.7633,6.7488,6.7687,6.7687,6.7687,6.7687,6.7687,6.7687,6.7687,6.7687,6.7687,6.7687,6.7687,6.7577,6.743,6.6916,6.6219,6.5411,6.4677,6.387,6.3147,6.2853,6.2817,6.278,6.2805,6.278,6.2805,6.2654,6.236,6.1978,6.1704,6.1039,6.0313,5.9905,5.9722,5.9563,5.9771,6.0082,6.0013,5.9875,6.0013,6.0151,6.0254,6.0216,6.0245,6.0239,6.0225,6.031,6.0329,6.0325,6.0254,6.008,5.9708,5.9505,5.9505,5.9539,5.9641,5.9877,6.0216,6.0385,6.0791,6.1264,6.1197,6.0825,6.052,6.0283,6.0588,6.0723,6.0554,6.0757,6.1197,6.167,6.2009,6.2178,6.2347,6.2415,6.2415,6.2415,6.2415,6.2415,6.2415,6.2415,6.2415,6.2415,6.2415,6.2415,6.2415,6.2415,6.2415,5.7881,5.7918,5.8099,5.8241,5.8312,5.849,5.8666,5.8805,5.9012,5.9219,5.9323,5.953,5.9944,6.0427,6.0461,6.0875,6.153,6.1979,6.2961,6.39,6.4779,6.543,6.6457,6.6656,6.7073,6.7405,6.7378,6.723,6.7596,6.7687,6.7687,6.7687,6.7687,6.7687,6.7687,6.7687,6.7687,6.7687,6.7687,6.7687,6.7614,6.7504,6.7026,6.6219,6.5411,6.4552,6.3793,6.3097,6.2888,6.2679,6.2755,6.278,6.2805,6.2423,6.2122,6.1787,6.1075,6.0472,6.0142,5.9757,5.9597,5.9909,6.022,6.0565,6.0737,6.0737,6.084,6.0978,6.1011,6.0935,6.0926,6.0882,6.087,6.0951,6.1066,6.0994,6.0994,6.0655,6.025,6.0216,6.0182,6.025,6.0351,6.0554,6.0892,6.1298,6.1772,6.211,6.2042,6.1772,6.14,6.1264,6.167,6.1738,6.1434,6.1366,6.1738,6.1941,6.2212,6.2347,6.2415,6.2415,6.2415,6.2415,6.2415,6.2415,6.2415,6.2415,6.2415,6.2415,6.2415,6.2415,6.2415,6.2415,6.2415,5.7881,5.7918,5.7991,5.8063,5.8133,5.8312,5.8455,5.8561,5.8701,5.884,5.8944,5.9013,5.9254,5.9668,5.9668,6.0012,6.0665,6.1079,6.1636,6.2579,6.3819,6.4247,6.4974,6.5807,6.5911,6.625,6.678,6.7032,6.7542,6.7687,6.7687,6.7687,6.7687,6.7687,6.7687,6.7687,6.7687,6.7687,6.7687,6.7687,6.7687,6.7614,6.7283,6.6512,6.5972,6.5223,6.4684,6.3987,6.3914,6.3778,6.394,6.3685,6.3507,6.2921,6.2197,6.1468,6.0693,6.0048,5.9966,5.9907,5.9909,6.0427,6.1116,6.1599,6.1806,6.1841,6.1979,6.2082,6.1731,6.1618,6.1913,6.1968,6.1775,6.182,6.1811,6.1772,6.1738,6.1603,6.14,6.14,6.14,6.14,6.1467,6.1501,6.1772,6.1806,6.2313,6.2381,6.2381,6.2415,6.211,6.1975,6.2212,6.2313,6.2009,6.1975,6.2178,6.2347,6.2415,6.2415,6.2415,6.2415,6.2415,6.2415,6.2415,6.2415,6.2415,6.2415,6.2415,6.2415,6.2415,6.2415,6.2415,6.2448,6.2618,5.7881,5.7881,5.7918,5.7918,5.7918,5.8063,5.8171,5.8277,5.8561,5.8736,5.8736,5.8909,5.8944,5.8978,5.9013,5.9357,5.9768,6.0215,6.0594,6.1392,6.2718,6.3511,6.4124,6.4563,6.4963,6.551,6.6127,6.678,6.7433,6.7569,6.7687,6.7687,6.7687,6.7687,6.7687,6.7687,6.7687,6.7687,6.7687,6.7687,6.7687,6.7687,6.7283,6.688,6.6476,6.603,6.55,6.516,6.516,6.505,6.4841,6.4556,6.402,6.3313,6.2468,6.164,6.0849,6.0491,6.0359,6.0393,6.0806,6.1392,6.2151,6.253,6.2668,6.2841,6.2944,6.2839,6.252,6.2404,6.2696,6.2745,6.2552,6.2391,6.2352,6.2313,6.2313,6.2279,6.2279,6.2279,6.2279,6.2279,6.2313,6.2347,6.2381,6.2381,6.2415,6.2415,6.2415,6.2415,6.2279,6.2212,6.2313,6.2347,6.2313,6.2347,6.2415,6.2415,6.2415,6.2415,6.2415,6.2415,6.2415,6.2415,6.2415,6.2415,6.2415,6.2415,6.2415,6.2415,6.2415,6.2415,6.2482,6.2618,6.2956,5.7881,5.7881,5.7881,5.7881,5.7918,5.7954,5.8027,5.8205,5.8243,5.8419,5.8561,5.8596,5.8702,5.8978,5.9012,5.9081,5.9183,5.9491,6.0138,6.0964,6.2091,6.3101,6.3693,6.3863,6.4525,6.5131,6.577,6.6641,6.7117,6.746,6.7687,6.7687,6.7687,6.7687,6.7687,6.7687,6.7687,6.7687,6.7687,6.7687,6.7687,6.7687,6.765,6.7283,6.6806,6.6433,6.604,6.5579,6.527,6.5171,6.5164,6.4867,6.431,6.3639,6.2817,6.2036,6.1256,6.1086,6.1014,6.1082,6.153,6.2151,6.2703,6.2841,6.3048,6.3324,6.3393,6.3393,6.3107,6.2959,6.308,6.2928,6.2774,6.2537,6.2381,6.2381,6.2381,6.2347,6.2347,6.2347,6.2347,6.2347,6.2347,6.2381,6.2381,6.2415,6.2415,6.2415,6.2415,6.2415,6.2415,6.2415,6.2415,6.2415,6.2381,6.2381,6.2415,6.2415,6.2415,6.2415,6.2415,6.2415,6.2415,6.2415,6.2415,6.2415,6.2415,6.2415,6.2415,6.2415,6.2415,6.2415,6.2516,6.2821,6.3226]}]]